GFSWCAN_prec_precacc24_153.txt.gz
Total_Precipitation_Accumulation
0.39 0.53 0.40 0.19 0.29 0.34 0.16 0.11 0.08 0.03 0.01 0.00 0.03 0.04 0.05 0.13 0.21 0.16 0.17 0.20 0.24 0.21 0.07 0.04 0.03 0.03 0.03 0.02 0.02 0.01 0.05 0.03 0.02 0.08 0.09 0.06 0.01 0.00 0.01 0.00 0.00 0.04 0.08 0.06 0.07 0.07 0.03 0.00 0.00 0.01 0.01 0.01 0.00 0.00
0.36 0.44 0.41 0.24 0.27 0.28 0.13 0.10 0.07 0.01 0.00 0.01 0.03 0.03 0.07 0.12 0.18 0.22 0.41 0.28 0.31 0.31 0.14 0.03 0.03 0.01 0.01 0.01 0.04 0.04 0.01 0.00 0.00 0.01 0.01 0.02 0.04 0.02 0.01 0.02 0.00 0.02 0.01 0.01 0.01 0.01 0.00 0.00 0.00 0.00 0.00 0.00 0.00 0.00
0.30 0.45 0.38 0.27 0.33 0.29 0.11 0.16 0.08 0.01 0.00 0.02 0.02 0.03 0.12 0.10 0.15 0.37 0.56 0.37 0.41 0.41 0.22 0.05 0.05 0.01 0.00 0.01 0.04 0.11 0.05 0.00 0.00 0.00 0.03 0.02 0.05 0.02 0.01 0.01 0.00 0.00 0.00 0.00 0.00 0.00 0.00 0.00 0.00 0.00 0.00 0.00 0.00 0.00
0.31 0.45 0.30 0.25 0.35 0.24 0.12 0.20 0.06 0.02 0.01 0.02 0.02 0.03 0.09 0.06 0.23 0.52 0.53 0.30 0.38 0.33 0.40 0.25 0.02 0.01 0.01 0.02 0.04 0.04 0.07 0.05 0.04 0.03 0.05 0.03 0.05 0.04 0.01 0.00 0.00 0.00 0.00 0.00 0.01 0.01 0.00 0.00 0.00 0.00 0.00 0.00 0.00 0.00
0.35 0.44 0.27 0.25 0.32 0.18 0.12 0.14 0.07 0.03 0.02 0.01 0.02 0.03 0.05 0.11 0.46 0.59 0.41 0.18 0.14 0.16 0.22 0.16 0.07 0.03 0.00 0.01 0.02 0.04 0.10 0.14 0.16 0.15 0.13 0.04 0.01 0.06 0.02 0.00 0.00 0.00 0.00 0.00 0.01 0.00 0.00 0.00 0.00 0.00 0.00 0.00 0.00 0.00
0.35 0.46 0.27 0.25 0.24 0.17 0.14 0.09 0.07 0.04 0.03 0.02 0.04 0.03 0.04 0.21 0.44 0.52 0.42 0.17 0.10 0.13 0.15 0.15 0.15 0.12 0.04 0.01 0.02 0.05 0.08 0.09 0.12 0.13 0.08 0.03 0.01 0.03 0.06 0.01 0.00 0.00 0.00 0.00 0.00 0.00 0.00 0.00 0.00 0.00 0.01 0.00 0.00 0.00
0.40 0.46 0.25 0.22 0.18 0.16 0.17 0.08 0.04 0.06 0.04 0.02 0.04 0.05 0.06 0.23 0.46 0.33 0.26 0.15 0.12 0.18 0.16 0.07 0.13 0.19 0.05 0.03 0.03 0.02 0.01 0.01 0.00 0.00 0.01 0.00 0.01 0.04 0.03 0.02 0.00 0.00 0.00 0.00 0.00 0.00 0.01 0.00 0.00 0.00 0.00 0.00 0.00 0.00
0.50 0.43 0.21 0.15 0.14 0.15 0.15 0.04 0.04 0.04 0.02 0.04 0.02 0.05 0.11 0.30 0.43 0.23 0.06 0.15 0.17 0.16 0.03 0.03 0.11 0.17 0.03 0.03 0.01 0.00 0.01 0.01 0.00 0.00 0.00 0.00 0.00 0.01 0.02 0.00 0.00 0.00 0.00 0.00 0.00 0.00 0.00 0.00 0.00 0.00 0.00 0.00 0.00 0.00
0.66 0.36 0.16 0.09 0.11 0.13 0.07 0.03 0.05 0.04 0.03 0.03 0.03 0.09 0.30 0.37 0.36 0.20 0.15 0.19 0.13 0.09 0.05 0.02 0.04 0.09 0.03 0.04 0.01 0.01 0.00 0.01 0.00 0.00 0.00 0.00 0.00 0.00 0.00 0.00 0.00 0.00 0.00 0.00 0.00 0.00 0.00 0.00 0.00 0.00 0.00 0.00 0.00 0.00
0.68 0.23 0.12 0.09 0.09 0.05 0.02 0.03 0.05 0.04 0.02 0.02 0.05 0.14 0.38 0.30 0.28 0.19 0.19 0.18 0.12 0.03 0.01 0.02 0.01 0.03 0.03 0.03 0.03 0.01 0.00 0.00 0.00 0.00 0.00 0.00 0.00 0.00 0.00 0.00 0.00 0.00 0.00 0.00 0.00 0.00 0.00 0.00 0.00 0.00 0.00 0.00 0.00 0.00
0.47 0.19 0.09 0.09 0.03 0.01 0.02 0.02 0.03 0.05 0.03 0.00 0.02 0.20 0.29 0.24 0.08 0.02 0.01 0.01 0.02 0.01 0.01 0.02 0.01 0.01 0.01 0.02 0.01 0.01 0.01 0.00 0.00 0.00 0.00 0.00 0.00 0.00 0.00 0.00 0.00 0.00 0.00 0.00 0.00 0.00 0.00 0.00 0.00 0.00 0.00 0.00 0.00 0.00
0.33 0.08 0.06 0.04 0.02 0.02 0.01 0.01 0.05 0.01 0.00 0.00 0.03 0.12 0.07 0.02 0.00 0.00 0.00 0.00 0.00 0.00 0.00 0.01 0.01 0.01 0.02 0.03 0.01 0.01 0.01 0.01 0.03 0.01 0.01 0.00 0.00 0.00 0.00 0.00 0.00 0.00 0.00 0.00 0.00 0.00 0.00 0.00 0.00 0.00 0.00 0.00 0.00 0.00
0.16 0.10 0.08 0.05 0.03 0.01 0.00 0.00 0.00 0.00 0.02 0.02 0.03 0.09 0.04 0.01 0.00 0.00 0.00 0.00 0.00 0.00 0.00 0.01 0.01 0.01 0.01 0.01 0.00 0.01 0.01 0.02 0.01 0.01 0.00 0.00 0.00 0.00 0.00 0.00 0.00 0.00 0.00 0.00 0.00 0.00 0.00 0.00 0.00 0.00 0.00 0.00 0.00 0.00
0.14 0.13 0.10 0.06 0.02 0.00 0.00 0.00 0.00 0.00 0.00 0.00 0.01 0.01 0.02 0.01 0.01 0.02 0.02 0.00 0.00 0.00 0.01 0.01 0.00 0.01 0.02 0.00 0.00 0.00 0.01 0.01 0.01 0.01 0.00 0.00 0.00 0.00 0.00 0.00 0.00 0.00 0.00 0.00 0.00 0.00 0.00 0.00 0.00 0.00 0.00 0.00 0.00 0.00
0.19 0.16 0.15 0.10 0.04 0.01 0.00 0.00 0.00 0.00 0.00 0.00 0.00 0.00 0.01 0.03 0.04 0.02 0.01 0.02 0.01 0.01 0.01 0.02 0.02 0.03 0.01 0.00 0.00 0.00 0.01 0.00 0.00 0.00 0.02 0.00 0.00 0.00 0.00 0.00 0.00 0.00 0.00 0.00 0.00 0.00 0.00 0.00 0.00 0.00 0.00 0.00 0.00 0.00
0.20 0.35 0.38 0.21 0.06 0.00 0.00 0.00 0.00 0.00 0.00 0.00 0.01 0.02 0.03 0.04 0.04 0.03 0.04 0.03 0.01 0.02 0.06 0.10 0.04 0.03 0.01 0.00 0.00 0.00 0.00 0.00 0.02 0.02 0.01 0.01 0.01 0.00 0.00 0.00 0.00 0.00 0.00 0.00 0.00 0.00 0.00 0.00 0.00 0.00 0.00 0.00 0.00 0.00
0.11 0.34 0.44 0.28 0.06 0.00 0.00 0.00 0.00 0.00 0.00 0.01 0.05 0.08 0.08 0.04 0.04 0.05 0.07 0.03 0.01 0.04 0.11 0.08 0.04 0.02 0.02 0.00 0.00 0.01 0.02 0.05 0.03 0.02 0.02 0.02 0.01 0.00 0.00 0.00 0.00 0.00 0.00 0.00 0.00 0.00 0.00 0.00 0.00 0.00 0.00 0.00 0.00 0.00
0.13 0.26 0.29 0.14 0.02 0.01 0.00 0.00 0.00 0.00 0.02 0.05 0.04 0.03 0.01 0.02 0.04 0.05 0.05 0.02 0.03 0.06 0.06 0.09 0.04 0.02 0.02 0.03 0.07 0.12 0.07 0.04 0.02 0.01 0.01 0.01 0.00 0.00 0.00 0.00 0.00 0.00 0.00 0.00 0.00 0.00 0.00 0.00 0.00 0.00 0.00 0.00 0.00 0.00
0.17 0.19 0.14 0.08 0.03 0.02 0.01 0.00 0.00 0.00 0.01 0.01 0.01 0.01 0.00 0.01 0.01 0.02 0.01 0.00 0.00 0.00 0.01 0.03 0.04 0.07 0.11 0.16 0.17 0.12 0.06 0.03 0.01 0.00 0.00 0.00 0.00 0.00 0.00 0.00 0.00 0.00 0.00 0.00 0.00 0.00 0.00 0.00 0.00 0.00 0.00 0.00 0.00 0.00
0.10 0.10 0.08 0.04 0.01 0.00 0.00 0.00 0.00 0.00 0.00 0.00 0.00 0.00 0.01 0.02 0.01 0.00 0.00 0.00 0.01 0.02 0.02 0.04 0.13 0.23 0.22 0.13 0.12 0.09 0.06 0.04 0.01 0.00 0.00 0.00 0.00 0.00 0.00 0.00 0.00 0.00 0.00 0.00 0.00 0.00 0.00 0.00 0.00 0.00 0.00 0.00 0.00 0.00
0.06 0.09 0.05 0.01 0.00 0.00 0.00 0.00 0.00 0.00 0.00 0.00 0.00 0.00 0.00 0.00 0.00 0.00 0.00 0.00 0.02 0.06 0.06 0.09 0.12 0.14 0.20 0.14 0.09 0.07 0.06 0.04 0.01 0.01 0.01 0.01 0.00 0.00 0.00 0.00 0.00 0.00 0.00 0.00 0.00 0.00 0.00 0.00 0.00 0.00 0.00 0.00 0.00 0.00
0.04 0.04 0.02 0.00 0.00 0.00 0.00 0.00 0.00 0.00 0.00 0.00 0.00 0.00 0.00 0.00 0.00 0.00 0.00 0.00 0.01 0.05 0.05 0.05 0.05 0.04 0.03 0.04 0.03 0.02 0.01 0.01 0.01 0.01 0.01 0.01 0.01 0.00 0.00 0.00 0.00 0.00 0.00 0.00 0.00 0.00 0.00 0.00 0.00 0.00 0.00 0.00 0.00 0.00
0.01 0.02 0.00 0.00 0.00 0.00 0.00 0.00 0.00 0.00 0.00 0.00 0.00 0.00 0.00 0.00 0.00 0.00 0.01 0.01 0.04 0.05 0.02 0.02 0.02 0.02 0.02 0.01 0.00 0.00 0.00 0.00 0.00 0.00 0.01 0.01 0.01 0.00 0.00 0.00 0.00 0.00 0.00 0.00 0.00 0.00 0.00 0.00 0.00 0.00 0.00 0.00 0.01 0.01
0.00 0.00 0.00 0.00 0.00 0.00 0.00 0.00 0.00 0.00 0.00 0.00 0.00 0.00 0.01 0.01 0.01 0.01 0.01 0.05 0.06 0.03 0.00 0.00 0.00 0.01 0.00 0.00 0.01 0.01 0.00 0.00 0.00 0.00 0.01 0.01 0.01 0.02 0.01 0.01 0.02 0.03 0.02 0.01 0.01 0.00 0.01 0.01 0.01 0.01 0.01 0.01 0.01 0.01
0.00 0.00 0.00 0.00 0.00 0.00 0.00 0.00 0.00 0.00 0.00 0.00 0.00 0.01 0.01 0.01 0.02 0.02 0.04 0.10 0.07 0.04 0.01 0.00 0.00 0.00 0.01 0.02 0.01 0.02 0.01 0.00 0.01 0.01 0.03 0.02 0.01 0.01 0.02 0.04 0.05 0.05 0.04 0.03 0.03 0.03 0.03 0.03 0.03 0.02 0.02 0.03 0.03 0.03
0.00 0.00 0.00 0.00 0.00 0.00 0.00 0.01 0.01 0.02 0.02 0.01 0.02 0.02 0.01 0.02 0.03 0.06 0.07 0.09 0.06 0.04 0.03 0.03 0.03 0.01 0.01 0.02 0.02 0.03 0.02 0.00 0.00 0.04 0.07 0.02 0.01 0.02 0.03 0.04 0.05 0.05 0.03 0.03 0.03 0.04 0.04 0.03 0.03 0.03 0.03 0.02 0.04 0.05
0.00 0.01 0.00 0.00 0.02 0.04 0.04 0.05 0.05 0.06 0.05 0.03 0.04 0.01 0.02 0.03 0.06 0.06 0.05 0.04 0.04 0.03 0.03 0.05 0.05 0.03 0.03 0.03 0.03 0.02 0.02 0.01 0.02 0.06 0.08 0.04 0.02 0.02 0.02 0.04 0.06 0.06 0.03 0.02 0.02 0.02 0.03 0.04 0.04 0.04 0.03 0.03 0.04 0.05
0.00 0.01 0.03 0.01 0.01 0.04 0.08 0.10 0.09 0.08 0.13 0.08 0.07 0.07 0.07 0.06 0.07 0.06 0.06 0.04 0.05 0.06 0.06 0.05 0.03 0.03 0.05 0.07 0.05 0.04 0.03 0.03 0.06 0.07 0.07 0.03 0.01 0.00 0.01 0.01 0.01 0.01 0.00 0.00 0.01 0.01 0.02 0.03 0.05 0.06 0.04 0.03 0.05 0.07
0.01 0.00 0.01 0.01 0.01 0.02 0.03 0.07 0.13 0.12 0.10 0.11 0.16 0.13 0.05 0.06 0.10 0.10 0.08 0.08 0.07 0.06 0.05 0.05 0.04 0.05 0.05 0.10 0.05 0.03 0.05 0.06 0.11 0.12 0.15 0.16 0.07 0.03 0.01 0.01 0.01 0.01 0.00 0.01 0.00 0.00 0.01 0.02 0.03 0.05 0.06 0.07 0.09 0.13
0.02 0.00 0.01 0.01 0.00 0.01 0.03 0.02 0.02 0.03 0.03 0.05 0.04 0.03 0.03 0.06 0.09 0.08 0.07 0.06 0.06 0.07 0.10 0.09 0.07 0.05 0.05 0.04 0.07 0.06 0.05 0.06 0.08 0.11 0.12 0.11 0.10 0.07 0.03 0.01 0.02 0.02 0.01 0.01 0.02 0.01 0.01 0.02 0.03 0.02 0.04 0.08 0.10 0.13
0.03 0.03 0.03 0.01 0.03 0.03 0.03 0.03 0.04 0.03 0.04 0.04 0.05 0.04 0.04 0.05 0.07 0.04 0.03 0.06 0.05 0.04 0.03 0.05 0.05 0.05 0.06 0.06 0.06 0.06 0.07 0.07 0.08 0.09 0.09 0.09 0.08 0.05 0.03 0.02 0.02 0.02 0.02 0.03 0.05 0.08 0.08 0.06 0.08 0.09 0.08 0.10 0.12 0.11
0.08 0.12 0.13 0.11 0.09 0.06 0.08 0.07 0.08 0.09 0.07 0.07 0.06 0.04 0.07 0.07 0.06 0.06 0.03 0.02 0.03 0.04 0.05 0.05 0.06 0.07 0.09 0.11 0.10 0.12 0.12 0.09 0.07 0.05 0.03 0.02 0.02 0.02 0.02 0.01 0.01 0.03 0.04 0.05 0.06 0.07 0.07 0.09 0.13 0.15 0.15 0.13 0.11 0.11
0.09 0.11 0.14 0.16 0.12 0.11 0.10 0.15 0.16 0.14 0.12 0.09 0.07 0.07 0.08 0.08 0.06 0.07 0.04 0.04 0.07 0.06 0.05 0.05 0.07 0.08 0.12 0.11 0.09 0.10 0.12 0.10 0.06 0.04 0.02 0.01 0.01 0.01 0.01 0.01 0.02 0.03 0.03 0.04 0.05 0.05 0.06 0.06 0.07 0.07 0.07 0.06 0.06 0.05

GFSWCAN_prec_precacc24_156.txt.gz
Total_Precipitation_Accumulation
0.25 0.47 0.44 0.31 0.48 0.84 0.34 0.22 0.14 0.06 0.03 0.01 0.03 0.04 0.05 0.12 0.22 0.17 0.18 0.21 0.25 0.22 0.07 0.04 0.03 0.04 0.03 0.03 0.04 0.03 0.10 0.06 0.04 0.11 0.12 0.09 0.03 0.01 0.02 0.01 0.01 0.04 0.12 0.10 0.16 0.17 0.06 0.00 0.00 0.00 0.01 0.00 0.00 0.00
0.24 0.42 0.59 0.34 0.40 0.65 0.33 0.20 0.11 0.03 0.01 0.01 0.03 0.03 0.07 0.13 0.20 0.24 0.42 0.30 0.33 0.32 0.14 0.03 0.03 0.01 0.01 0.02 0.08 0.09 0.06 0.02 0.01 0.02 0.03 0.05 0.05 0.03 0.01 0.03 0.00 0.02 0.02 0.02 0.02 0.02 0.00 0.00 0.00 0.00 0.00 0.00 0.00 0.00
0.23 0.42 0.73 0.39 0.43 0.48 0.26 0.20 0.09 0.03 0.01 0.02 0.02 0.03 0.13 0.11 0.17 0.39 0.56 0.39 0.48 0.46 0.23 0.05 0.05 0.01 0.00 0.01 0.04 0.15 0.06 0.01 0.01 0.01 0.04 0.04 0.06 0.03 0.01 0.01 0.01 0.00 0.00 0.00 0.00 0.00 0.00 0.00 0.00 0.00 0.00 0.00 0.00 0.00
0.20 0.47 0.68 0.42 0.46 0.36 0.18 0.18 0.06 0.02 0.02 0.02 0.02 0.04 0.09 0.07 0.26 0.56 0.55 0.32 0.44 0.39 0.44 0.25 0.02 0.01 0.01 0.02 0.04 0.06 0.11 0.09 0.07 0.05 0.06 0.04 0.06 0.05 0.01 0.01 0.01 0.01 0.00 0.00 0.01 0.00 0.00 0.00 0.00 0.00 0.00 0.00 0.00 0.00
0.20 0.51 0.52 0.38 0.38 0.21 0.11 0.10 0.05 0.02 0.03 0.02 0.03 0.03 0.05 0.12 0.48 0.63 0.45 0.20 0.16 0.19 0.27 0.18 0.08 0.03 0.00 0.01 0.02 0.07 0.17 0.23 0.25 0.25 0.23 0.08 0.01 0.07 0.03 0.00 0.01 0.00 0.00 0.00 0.01 0.00 0.00 0.00 0.00 0.00 0.00 0.00 0.00 0.00
0.22 0.48 0.35 0.29 0.24 0.13 0.09 0.05 0.07 0.04 0.03 0.02 0.04 0.04 0.05 0.22 0.47 0.59 0.55 0.22 0.11 0.15 0.20 0.16 0.16 0.12 0.04 0.03 0.05 0.08 0.15 0.22 0.25 0.26 0.18 0.09 0.03 0.04 0.10 0.02 0.00 0.00 0.00 0.00 0.00 0.00 0.00 0.00 0.00 0.00 0.00 0.00 0.00 0.00
0.27 0.39 0.25 0.21 0.15 0.11 0.09 0.04 0.03 0.05 0.03 0.02 0.04 0.06 0.08 0.25 0.48 0.38 0.28 0.16 0.13 0.21 0.29 0.11 0.14 0.20 0.06 0.11 0.14 0.12 0.12 0.11 0.12 0.09 0.05 0.03 0.03 0.09 0.11 0.03 0.00 0.00 0.00 0.00 0.00 0.00 0.00 0.00 0.00 0.00 0.00 0.00 0.00 0.00
0.40 0.39 0.21 0.14 0.10 0.08 0.08 0.01 0.03 0.03 0.04 0.05 0.03 0.06 0.13 0.33 0.48 0.24 0.06 0.16 0.27 0.33 0.12 0.10 0.14 0.21 0.09 0.13 0.10 0.04 0.04 0.04 0.04 0.02 0.00 0.00 0.00 0.02 0.03 0.00 0.00 0.00 0.00 0.00 0.00 0.00 0.00 0.00 0.00 0.00 0.00 0.00 0.00 0.00
0.55 0.35 0.15 0.07 0.08 0.09 0.06 0.02 0.03 0.04 0.05 0.04 0.05 0.14 0.44 0.51 0.42 0.22 0.17 0.24 0.34 0.36 0.15 0.04 0.07 0.11 0.07 0.10 0.02 0.01 0.01 0.01 0.00 0.00 0.00 0.00 0.00 0.01 0.01 0.00 0.00 0.00 0.00 0.00 0.00 0.00 0.00 0.00 0.00 0.00 0.00 0.00 0.00 0.00
0.53 0.20 0.10 0.06 0.09 0.07 0.03 0.03 0.04 0.04 0.03 0.03 0.06 0.22 0.49 0.36 0.36 0.32 0.41 0.44 0.37 0.21 0.05 0.02 0.02 0.03 0.07 0.06 0.03 0.01 0.00 0.00 0.00 0.00 0.00 0.00 0.00 0.00 0.00 0.00 0.00 0.00 0.00 0.00 0.00 0.00 0.00 0.00 0.00 0.00 0.00 0.00 0.00 0.00
0.35 0.16 0.08 0.10 0.05 0.03 0.02 0.02 0.03 0.05 0.03 0.00 0.04 0.28 0.44 0.40 0.23 0.16 0.13 0.14 0.14 0.08 0.02 0.03 0.04 0.04 0.05 0.04 0.01 0.01 0.00 0.00 0.00 0.00 0.00 0.00 0.00 0.00 0.00 0.00 0.00 0.00 0.00 0.00 0.00 0.00 0.00 0.00 0.00 0.00 0.00 0.00 0.00 0.00
0.25 0.10 0.08 0.03 0.02 0.03 0.02 0.01 0.05 0.01 0.00 0.01 0.07 0.20 0.21 0.11 0.09 0.04 0.02 0.00 0.01 0.00 0.00 0.03 0.04 0.07 0.05 0.03 0.01 0.00 0.00 0.00 0.03 0.01 0.00 0.00 0.00 0.00 0.00 0.00 0.00 0.00 0.00 0.00 0.00 0.00 0.00 0.00 0.00 0.00 0.00 0.00 0.00 0.00
0.14 0.08 0.03 0.03 0.03 0.01 0.00 0.00 0.00 0.01 0.04 0.07 0.11 0.17 0.15 0.08 0.03 0.00 0.00 0.00 0.01 0.01 0.01 0.02 0.05 0.03 0.02 0.01 0.00 0.00 0.00 0.02 0.01 0.00 0.00 0.00 0.00 0.00 0.00 0.00 0.00 0.00 0.00 0.00 0.00 0.00 0.00 0.00 0.00 0.00 0.00 0.00 0.00 0.00
0.05 0.04 0.03 0.02 0.00 0.00 0.00 0.00 0.01 0.01 0.02 0.05 0.06 0.06 0.08 0.02 0.01 0.02 0.02 0.01 0.01 0.00 0.01 0.01 0.01 0.01 0.02 0.00 0.00 0.00 0.01 0.01 0.01 0.00 0.00 0.00 0.00 0.00 0.00 0.00 0.00 0.00 0.00 0.00 0.00 0.00 0.00 0.00 0.00 0.00 0.00 0.00 0.00 0.00
0.08 0.03 0.01 0.01 0.00 0.00 0.00 0.00 0.00 0.00 0.00 0.00 0.00 0.02 0.01 0.03 0.04 0.02 0.02 0.02 0.01 0.01 0.01 0.02 0.02 0.03 0.01 0.00 0.00 0.00 0.00 0.00 0.00 0.00 0.02 0.01 0.01 0.00 0.00 0.00 0.00 0.00 0.00 0.00 0.00 0.00 0.00 0.00 0.00 0.00 0.00 0.00 0.00 0.00
0.13 0.13 0.08 0.02 0.00 0.00 0.00 0.00 0.00 0.00 0.00 0.00 0.02 0.02 0.03 0.04 0.05 0.04 0.06 0.03 0.01 0.01 0.06 0.09 0.03 0.03 0.01 0.00 0.00 0.00 0.00 0.00 0.02 0.03 0.02 0.02 0.02 0.00 0.00 0.00 0.00 0.00 0.00 0.00 0.00 0.00 0.00 0.00 0.00 0.00 0.00 0.00 0.00 0.00
0.08 0.16 0.07 0.03 0.01 0.00 0.00 0.00 0.00 0.00 0.00 0.01 0.06 0.08 0.08 0.04 0.06 0.07 0.09 0.03 0.01 0.03 0.08 0.06 0.04 0.02 0.02 0.00 0.00 0.02 0.03 0.06 0.04 0.02 0.03 0.03 0.03 0.01 0.00 0.00 0.00 0.00 0.00 0.00 0.00 0.00 0.00 0.00 0.00 0.00 0.00 0.00 0.00 0.00
0.09 0.09 0.06 0.02 0.00 0.00 0.00 0.00 0.00 0.00 0.02 0.06 0.05 0.04 0.02 0.04 0.06 0.07 0.07 0.03 0.03 0.06 0.05 0.07 0.03 0.02 0.02 0.03 0.08 0.13 0.07 0.04 0.02 0.01 0.01 0.02 0.02 0.02 0.00 0.00 0.00 0.00 0.00 0.00 0.00 0.00 0.00 0.00 0.00 0.00 0.00 0.00 0.00 0.00
0.13 0.09 0.03 0.01 0.00 0.00 0.00 0.00 0.00 0.00 0.01 0.01 0.01 0.01 0.01 0.02 0.03 0.04 0.02 0.01 0.00 0.00 0.01 0.01 0.04 0.07 0.11 0.16 0.18 0.13 0.07 0.03 0.01 0.00 0.00 0.01 0.01 0.01 0.01 0.00 0.00 0.00 0.00 0.00 0.00 0.00 0.00 0.00 0.00 0.00 0.00 0.00 0.00 0.00
0.06 0.06 0.04 0.01 0.00 0.00 0.00 0.00 0.00 0.00 0.00 0.00 0.00 0.00 0.01 0.02 0.02 0.00 0.00 0.00 0.01 0.01 0.01 0.03 0.13 0.23 0.22 0.14 0.13 0.10 0.07 0.05 0.02 0.01 0.00 0.00 0.00 0.00 0.00 0.00 0.00 0.00 0.00 0.00 0.00 0.00 0.00 0.00 0.00 0.00 0.00 0.00 0.00 0.00
0.06 0.07 0.04 0.01 0.00 0.00 0.00 0.00 0.00 0.00 0.00 0.00 0.00 0.00 0.00 0.00 0.00 0.00 0.00 0.00 0.02 0.07 0.07 0.09 0.13 0.15 0.21 0.15 0.10 0.09 0.08 0.05 0.03 0.01 0.01 0.01 0.00 0.00 0.00 0.00 0.00 0.00 0.00 0.00 0.00 0.00 0.00 0.00 0.00 0.00 0.00 0.00 0.00 0.00
0.04 0.04 0.02 0.00 0.00 0.00 0.00 0.00 0.00 0.00 0.00 0.00 0.00 0.00 0.00 0.00 0.00 0.00 0.00 0.00 0.02 0.05 0.06 0.06 0.06 0.05 0.04 0.05 0.05 0.03 0.02 0.02 0.02 0.02 0.02 0.01 0.01 0.01 0.00 0.00 0.00 0.00 0.00 0.00 0.00 0.00 0.00 0.00 0.00 0.00 0.00 0.00 0.00 0.00
0.01 0.02 0.00 0.00 0.00 0.00 0.00 0.00 0.00 0.00 0.00 0.00 0.00 0.00 0.00 0.00 0.00 0.00 0.01 0.01 0.04 0.05 0.03 0.02 0.03 0.03 0.02 0.01 0.00 0.00 0.00 0.00 0.00 0.00 0.01 0.01 0.01 0.01 0.01 0.01 0.01 0.01 0.00 0.00 0.00 0.00 0.00 0.00 0.00 0.00 0.00 0.00 0.01 0.01
0.00 0.00 0.00 0.00 0.00 0.00 0.00 0.00 0.00 0.00 0.00 0.00 0.00 0.00 0.01 0.01 0.00 0.00 0.01 0.05 0.06 0.03 0.00 0.00 0.01 0.01 0.00 0.00 0.01 0.01 0.00 0.00 0.00 0.00 0.01 0.01 0.01 0.02 0.02 0.02 0.03 0.03 0.03 0.02 0.02 0.01 0.01 0.01 0.01 0.01 0.02 0.02 0.02 0.02
0.00 0.00 0.00 0.00 0.00 0.00 0.00 0.00 0.00 0.00 0.00 0.00 0.00 0.01 0.01 0.00 0.02 0.02 0.04 0.10 0.07 0.04 0.01 0.00 0.00 0.00 0.01 0.02 0.01 0.02 0.01 0.00 0.01 0.01 0.03 0.02 0.01 0.02 0.03 0.04 0.05 0.06 0.04 0.04 0.04 0.04 0.04 0.04 0.03 0.03 0.03 0.03 0.03 0.03
0.00 0.00 0.00 0.00 0.00 0.00 0.00 0.00 0.00 0.01 0.01 0.01 0.02 0.02 0.00 0.01 0.02 0.06 0.07 0.09 0.06 0.04 0.02 0.03 0.02 0.01 0.01 0.02 0.02 0.03 0.02 0.00 0.00 0.04 0.07 0.02 0.01 0.02 0.03 0.04 0.06 0.05 0.03 0.04 0.04 0.04 0.04 0.03 0.03 0.03 0.03 0.03 0.04 0.06
0.00 0.01 0.00 0.00 0.00 0.01 0.02 0.03 0.02 0.03 0.03 0.03 0.04 0.01 0.02 0.03 0.06 0.06 0.05 0.04 0.04 0.03 0.03 0.04 0.04 0.02 0.02 0.03 0.02 0.02 0.02 0.01 0.03 0.07 0.08 0.04 0.02 0.02 0.02 0.04 0.06 0.06 0.03 0.02 0.02 0.03 0.03 0.04 0.04 0.04 0.03 0.03 0.04 0.05
0.00 0.01 0.02 0.01 0.01 0.02 0.05 0.07 0.07 0.06 0.11 0.07 0.07 0.06 0.07 0.05 0.06 0.05 0.05 0.04 0.05 0.06 0.06 0.04 0.03 0.03 0.05 0.06 0.04 0.03 0.03 0.04 0.07 0.08 0.07 0.04 0.01 0.01 0.01 0.02 0.01 0.01 0.00 0.00 0.01 0.01 0.02 0.03 0.06 0.06 0.05 0.03 0.05 0.08
0.01 0.00 0.01 0.01 0.01 0.01 0.02 0.05 0.12 0.11 0.10 0.10 0.16 0.12 0.05 0.04 0.08 0.09 0.08 0.08 0.07 0.05 0.05 0.05 0.04 0.05 0.05 0.10 0.04 0.02 0.04 0.06 0.10 0.12 0.14 0.16 0.08 0.03 0.01 0.01 0.01 0.01 0.00 0.01 0.00 0.00 0.01 0.03 0.04 0.05 0.06 0.07 0.09 0.14
0.02 0.00 0.01 0.01 0.00 0.01 0.03 0.02 0.02 0.02 0.02 0.04 0.03 0.03 0.03 0.05 0.09 0.08 0.07 0.06 0.06 0.07 0.09 0.09 0.07 0.05 0.05 0.04 0.07 0.06 0.04 0.05 0.07 0.09 0.11 0.11 0.11 0.07 0.03 0.02 0.02 0.02 0.01 0.01 0.02 0.01 0.01 0.02 0.03 0.03 0.05 0.09 0.11 0.14
0.02 0.02 0.03 0.01 0.03 0.03 0.02 0.02 0.03 0.02 0.03 0.03 0.04 0.04 0.04 0.05 0.07 0.05 0.03 0.05 0.05 0.03 0.03 0.04 0.05 0.05 0.06 0.06 0.06 0.06 0.06 0.06 0.08 0.08 0.08 0.09 0.08 0.05 0.03 0.02 0.02 0.02 0.02 0.03 0.04 0.07 0.07 0.06 0.08 0.09 0.09 0.11 0.13 0.12
0.06 0.11 0.14 0.13 0.10 0.07 0.10 0.09 0.09 0.09 0.07 0.06 0.05 0.04 0.06 0.07 0.06 0.05 0.03 0.02 0.02 0.03 0.04 0.04 0.06 0.06 0.08 0.10 0.09 0.10 0.11 0.09 0.06 0.05 0.03 0.03 0.03 0.03 0.02 0.01 0.01 0.02 0.03 0.04 0.04 0.05 0.06 0.09 0.13 0.16 0.16 0.14 0.13 0.13
0.06 0.09 0.12 0.15 0.12 0.11 0.12 0.18 0.18 0.14 0.12 0.08 0.07 0.07 0.07 0.07 0.06 0.06 0.04 0.04 0.07 0.06 0.05 0.05 0.06 0.07 0.11 0.11 0.09 0.10 0.11 0.10 0.07 0.04 0.03 0.02 0.01 0.01 0.01 0.01 0.02 0.02 0.02 0.03 0.04 0.05 0.06 0.06 0.07 0.08 0.08 0.07 0.07 0.05

GFSWCAN_prec_precacc24_159.txt.gz
Total_Precipitation_Accumulation
0.15 0.39 0.42 0.31 0.57 1.04 0.41 0.31 0.31 0.24 0.21 0.06 0.03 0.04 0.05 0.11 0.22 0.18 0.21 0.25 0.27 0.23 0.08 0.05 0.03 0.04 0.04 0.05 0.05 0.06 0.13 0.08 0.08 0.15 0.14 0.11 0.06 0.04 0.03 0.04 0.05 0.06 0.15 0.14 0.20 0.24 0.10 0.01 0.00 0.00 0.02 0.00 0.00 0.00
0.16 0.30 0.56 0.36 0.51 0.85 0.46 0.30 0.27 0.16 0.14 0.04 0.03 0.03 0.07 0.12 0.20 0.26 0.47 0.32 0.36 0.35 0.15 0.03 0.03 0.01 0.01 0.03 0.09 0.12 0.08 0.09 0.05 0.05 0.05 0.09 0.11 0.08 0.06 0.05 0.02 0.05 0.04 0.06 0.06 0.08 0.04 0.00 0.00 0.00 0.00 0.00 0.00 0.00
0.14 0.29 0.74 0.46 0.55 0.75 0.45 0.32 0.24 0.14 0.06 0.03 0.02 0.03 0.13 0.11 0.17 0.40 0.59 0.43 0.52 0.48 0.23 0.05 0.05 0.01 0.00 0.01 0.05 0.17 0.07 0.02 0.04 0.06 0.12 0.12 0.11 0.06 0.05 0.03 0.05 0.02 0.00 0.01 0.02 0.00 0.00 0.00 0.00 0.00 0.00 0.00 0.00 0.00
0.15 0.40 0.95 0.53 0.62 0.64 0.43 0.35 0.22 0.10 0.03 0.03 0.02 0.04 0.10 0.07 0.28 0.58 0.58 0.37 0.47 0.40 0.45 0.25 0.02 0.01 0.01 0.02 0.04 0.06 0.12 0.11 0.09 0.10 0.16 0.10 0.10 0.08 0.04 0.03 0.03 0.03 0.03 0.02 0.01 0.00 0.00 0.00 0.00 0.00 0.00 0.00 0.00 0.00
0.16 0.51 0.95 0.57 0.60 0.47 0.36 0.28 0.17 0.07 0.03 0.02 0.03 0.04 0.07 0.13 0.51 0.68 0.51 0.26 0.19 0.21 0.30 0.18 0.08 0.04 0.00 0.01 0.02 0.07 0.19 0.27 0.32 0.34 0.30 0.10 0.03 0.11 0.05 0.03 0.01 0.00 0.02 0.02 0.02 0.02 0.00 0.00 0.00 0.00 0.00 0.00 0.00 0.00
0.25 0.62 0.71 0.50 0.47 0.31 0.26 0.18 0.13 0.06 0.03 0.02 0.05 0.06 0.07 0.25 0.51 0.65 0.64 0.27 0.15 0.17 0.26 0.17 0.16 0.12 0.04 0.03 0.06 0.10 0.18 0.27 0.35 0.37 0.26 0.14 0.03 0.06 0.15 0.03 0.00 0.00 0.00 0.00 0.01 0.00 0.00 0.00 0.00 0.00 0.00 0.00 0.00 0.00
0.39 0.63 0.46 0.33 0.25 0.20 0.17 0.10 0.05 0.05 0.03 0.02 0.05 0.07 0.09 0.26 0.51 0.41 0.33 0.17 0.14 0.23 0.33 0.13 0.14 0.20 0.06 0.12 0.16 0.15 0.17 0.22 0.21 0.23 0.17 0.08 0.05 0.12 0.18 0.04 0.02 0.00 0.00 0.00 0.00 0.00 0.00 0.00 0.00 0.00 0.00 0.00 0.00 0.00
0.39 0.45 0.24 0.16 0.11 0.08 0.06 0.01 0.02 0.02 0.04 0.05 0.03 0.07 0.14 0.35 0.50 0.26 0.07 0.16 0.32 0.41 0.15 0.12 0.14 0.20 0.10 0.16 0.15 0.11 0.14 0.14 0.17 0.13 0.05 0.02 0.02 0.06 0.06 0.03 0.01 0.00 0.00 0.00 0.00 0.00 0.00 0.00 0.00 0.00 0.00 0.00 0.00 0.00
0.45 0.34 0.15 0.07 0.06 0.06 0.03 0.01 0.02 0.04 0.06 0.05 0.05 0.16 0.52 0.60 0.46 0.23 0.18 0.25 0.39 0.53 0.30 0.07 0.09 0.13 0.11 0.19 0.10 0.08 0.08 0.10 0.05 0.02 0.01 0.01 0.03 0.03 0.02 0.00 0.00 0.00 0.00 0.00 0.00 0.00 0.00 0.00 0.00 0.00 0.00 0.00 0.00 0.00
0.49 0.20 0.10 0.05 0.07 0.05 0.02 0.02 0.04 0.06 0.03 0.03 0.08 0.28 0.61 0.39 0.37 0.33 0.45 0.52 0.49 0.31 0.12 0.06 0.04 0.07 0.13 0.15 0.11 0.06 0.02 0.03 0.01 0.01 0.01 0.00 0.01 0.01 0.00 0.00 0.00 0.00 0.00 0.00 0.00 0.00 0.00 0.00 0.00 0.00 0.00 0.00 0.00 0.00
0.33 0.16 0.08 0.09 0.05 0.02 0.02 0.02 0.04 0.06 0.04 0.02 0.07 0.30 0.47 0.48 0.29 0.25 0.26 0.28 0.22 0.14 0.03 0.04 0.05 0.06 0.07 0.11 0.05 0.02 0.01 0.00 0.00 0.00 0.00 0.01 0.00 0.00 0.00 0.00 0.00 0.00 0.00 0.00 0.00 0.00 0.00 0.00 0.00 0.00 0.00 0.00 0.00 0.00
0.24 0.10 0.08 0.03 0.02 0.03 0.02 0.01 0.05 0.02 0.01 0.02 0.09 0.25 0.31 0.24 0.19 0.14 0.11 0.06 0.06 0.03 0.01 0.03 0.05 0.10 0.15 0.08 0.07 0.02 0.00 0.00 0.02 0.00 0.00 0.00 0.00 0.00 0.00 0.00 0.00 0.00 0.00 0.00 0.00 0.00 0.00 0.00 0.00 0.00 0.00 0.00 0.00 0.00
0.14 0.08 0.02 0.03 0.02 0.02 0.00 0.01 0.01 0.02 0.05 0.10 0.19 0.26 0.23 0.17 0.13 0.05 0.03 0.01 0.03 0.01 0.01 0.03 0.09 0.09 0.08 0.05 0.02 0.00 0.00 0.01 0.00 0.00 0.00 0.00 0.00 0.00 0.00 0.00 0.00 0.00 0.00 0.00 0.00 0.00 0.00 0.00 0.00 0.00 0.00 0.00 0.00 0.00
0.05 0.02 0.03 0.01 0.01 0.01 0.01 0.02 0.01 0.01 0.05 0.12 0.15 0.13 0.15 0.07 0.05 0.02 0.03 0.01 0.01 0.00 0.03 0.05 0.05 0.04 0.03 0.02 0.01 0.00 0.01 0.01 0.01 0.00 0.00 0.00 0.00 0.00 0.00 0.00 0.00 0.00 0.00 0.00 0.00 0.00 0.00 0.00 0.00 0.00 0.00 0.00 0.00 0.00
0.04 0.02 0.01 0.00 0.01 0.01 0.01 0.00 0.00 0.00 0.01 0.02 0.03 0.07 0.02 0.04 0.04 0.02 0.02 0.01 0.00 0.01 0.03 0.03 0.01 0.01 0.01 0.00 0.00 0.00 0.00 0.00 0.00 0.01 0.02 0.01 0.01 0.00 0.00 0.00 0.00 0.00 0.00 0.00 0.00 0.00 0.00 0.00 0.00 0.00 0.00 0.00 0.00 0.00
0.02 0.02 0.01 0.00 0.01 0.00 0.00 0.00 0.00 0.00 0.00 0.00 0.02 0.03 0.03 0.05 0.05 0.04 0.06 0.03 0.00 0.01 0.04 0.05 0.02 0.02 0.00 0.00 0.00 0.00 0.00 0.01 0.02 0.03 0.02 0.02 0.02 0.00 0.00 0.00 0.00 0.00 0.00 0.00 0.00 0.00 0.00 0.00 0.00 0.00 0.00 0.00 0.00 0.00
0.01 0.03 0.00 0.00 0.00 0.00 0.00 0.00 0.00 0.00 0.00 0.01 0.06 0.08 0.08 0.06 0.07 0.08 0.08 0.03 0.00 0.02 0.05 0.04 0.03 0.02 0.02 0.00 0.00 0.02 0.03 0.06 0.04 0.03 0.03 0.03 0.03 0.02 0.01 0.00 0.00 0.00 0.00 0.00 0.00 0.00 0.00 0.00 0.00 0.00 0.00 0.00 0.00 0.00
0.01 0.00 0.00 0.00 0.00 0.00 0.00 0.00 0.00 0.00 0.02 0.06 0.06 0.04 0.02 0.05 0.07 0.09 0.07 0.02 0.03 0.04 0.02 0.05 0.03 0.02 0.02 0.03 0.08 0.14 0.08 0.05 0.02 0.01 0.01 0.02 0.03 0.03 0.04 0.01 0.00 0.00 0.00 0.00 0.00 0.00 0.00 0.00 0.00 0.00 0.00 0.00 0.00 0.00
0.00 0.00 0.00 0.00 0.00 0.00 0.00 0.00 0.00 0.00 0.02 0.02 0.02 0.01 0.02 0.03 0.04 0.07 0.04 0.01 0.00 0.00 0.00 0.01 0.03 0.07 0.11 0.16 0.18 0.13 0.07 0.04 0.02 0.00 0.00 0.01 0.02 0.02 0.03 0.03 0.01 0.00 0.00 0.00 0.00 0.00 0.00 0.00 0.00 0.00 0.00 0.00 0.00 0.00
0.01 0.00 0.00 0.00 0.00 0.00 0.00 0.00 0.00 0.00 0.00 0.00 0.01 0.01 0.02 0.03 0.03 0.01 0.02 0.01 0.01 0.02 0.01 0.03 0.12 0.21 0.21 0.13 0.13 0.10 0.08 0.05 0.03 0.02 0.01 0.01 0.01 0.01 0.00 0.00 0.00 0.00 0.00 0.00 0.00 0.00 0.00 0.00 0.00 0.00 0.00 0.00 0.00 0.00
0.03 0.02 0.00 0.00 0.00 0.00 0.00 0.00 0.00 0.00 0.00 0.00 0.00 0.00 0.00 0.00 0.00 0.00 0.00 0.00 0.02 0.08 0.07 0.09 0.13 0.16 0.21 0.15 0.11 0.09 0.08 0.05 0.03 0.02 0.01 0.01 0.00 0.00 0.00 0.00 0.00 0.00 0.00 0.00 0.00 0.00 0.00 0.00 0.00 0.00 0.00 0.00 0.00 0.00
0.04 0.03 0.01 0.00 0.00 0.00 0.00 0.00 0.00 0.00 0.00 0.00 0.00 0.00 0.00 0.00 0.00 0.00 0.00 0.00 0.02 0.06 0.06 0.06 0.06 0.06 0.04 0.05 0.05 0.03 0.02 0.02 0.02 0.02 0.02 0.01 0.01 0.01 0.01 0.00 0.00 0.00 0.00 0.00 0.00 0.00 0.00 0.00 0.00 0.00 0.00 0.00 0.00 0.00
0.01 0.02 0.00 0.00 0.00 0.00 0.00 0.00 0.00 0.00 0.00 0.00 0.00 0.00 0.00 0.00 0.00 0.00 0.00 0.01 0.04 0.06 0.03 0.02 0.03 0.03 0.02 0.01 0.00 0.00 0.00 0.00 0.00 0.00 0.01 0.01 0.01 0.01 0.01 0.01 0.01 0.01 0.01 0.00 0.00 0.00 0.00 0.00 0.00 0.00 0.00 0.00 0.01 0.01
0.00 0.00 0.00 0.00 0.00 0.00 0.00 0.00 0.00 0.00 0.00 0.00 0.00 0.00 0.00 0.01 0.00 0.00 0.01 0.05 0.06 0.03 0.01 0.01 0.01 0.01 0.00 0.00 0.01 0.01 0.00 0.00 0.00 0.00 0.02 0.01 0.01 0.02 0.02 0.02 0.03 0.03 0.03 0.03 0.03 0.03 0.02 0.02 0.02 0.02 0.02 0.01 0.02 0.02
0.00 0.00 0.00 0.00 0.00 0.00 0.00 0.00 0.00 0.00 0.00 0.00 0.00 0.00 0.01 0.00 0.01 0.02 0.04 0.09 0.07 0.04 0.01 0.00 0.00 0.00 0.01 0.02 0.01 0.02 0.01 0.00 0.01 0.01 0.03 0.02 0.01 0.03 0.03 0.04 0.06 0.06 0.05 0.04 0.05 0.05 0.04 0.04 0.04 0.03 0.03 0.03 0.04 0.03
0.00 0.00 0.00 0.00 0.00 0.00 0.00 0.00 0.00 0.00 0.00 0.00 0.01 0.01 0.00 0.01 0.02 0.05 0.06 0.09 0.06 0.04 0.02 0.03 0.02 0.01 0.00 0.01 0.01 0.02 0.01 0.00 0.00 0.05 0.07 0.02 0.01 0.02 0.04 0.05 0.07 0.06 0.03 0.04 0.04 0.05 0.04 0.03 0.03 0.03 0.03 0.03 0.04 0.06
0.00 0.00 0.00 0.00 0.00 0.00 0.01 0.01 0.01 0.01 0.02 0.01 0.03 0.00 0.01 0.02 0.05 0.05 0.05 0.04 0.04 0.03 0.03 0.04 0.03 0.02 0.02 0.02 0.02 0.01 0.01 0.01 0.03 0.07 0.08 0.04 0.02 0.02 0.03 0.04 0.07 0.07 0.03 0.02 0.02 0.03 0.04 0.05 0.04 0.05 0.04 0.04 0.05 0.05
0.00 0.01 0.02 0.01 0.01 0.02 0.02 0.04 0.05 0.04 0.07 0.05 0.05 0.03 0.04 0.04 0.05 0.05 0.05 0.04 0.06 0.06 0.06 0.04 0.02 0.02 0.04 0.05 0.03 0.03 0.03 0.03 0.07 0.09 0.07 0.04 0.01 0.01 0.01 0.02 0.02 0.01 0.00 0.00 0.01 0.01 0.02 0.03 0.06 0.07 0.06 0.04 0.05 0.08
0.01 0.00 0.01 0.01 0.01 0.01 0.02 0.03 0.09 0.10 0.08 0.09 0.13 0.10 0.04 0.04 0.07 0.08 0.07 0.07 0.06 0.05 0.05 0.05 0.04 0.05 0.04 0.09 0.04 0.02 0.03 0.05 0.10 0.12 0.14 0.17 0.10 0.04 0.01 0.01 0.01 0.01 0.01 0.01 0.00 0.00 0.01 0.03 0.04 0.05 0.06 0.06 0.08 0.12
0.02 0.00 0.01 0.01 0.00 0.01 0.03 0.02 0.02 0.02 0.02 0.03 0.03 0.02 0.03 0.05 0.09 0.08 0.07 0.06 0.06 0.07 0.09 0.09 0.07 0.05 0.05 0.04 0.07 0.05 0.04 0.04 0.06 0.08 0.09 0.10 0.10 0.07 0.03 0.02 0.02 0.02 0.01 0.01 0.02 0.02 0.01 0.03 0.04 0.03 0.05 0.09 0.12 0.15
0.02 0.02 0.03 0.02 0.03 0.03 0.03 0.02 0.03 0.02 0.03 0.03 0.03 0.03 0.03 0.05 0.07 0.05 0.03 0.05 0.05 0.04 0.03 0.04 0.05 0.05 0.05 0.05 0.05 0.05 0.06 0.05 0.07 0.07 0.08 0.08 0.07 0.05 0.03 0.02 0.02 0.02 0.02 0.02 0.03 0.06 0.07 0.05 0.08 0.09 0.09 0.11 0.13 0.12
0.06 0.10 0.14 0.13 0.12 0.08 0.11 0.12 0.10 0.09 0.07 0.06 0.06 0.04 0.06 0.06 0.06 0.05 0.03 0.02 0.02 0.03 0.04 0.04 0.05 0.06 0.07 0.09 0.08 0.09 0.10 0.08 0.06 0.05 0.03 0.03 0.03 0.03 0.02 0.01 0.01 0.01 0.02 0.02 0.02 0.03 0.03 0.06 0.11 0.14 0.15 0.14 0.14 0.13
0.06 0.08 0.11 0.15 0.12 0.13 0.14 0.20 0.19 0.14 0.11 0.08 0.07 0.07 0.08 0.08 0.06 0.07 0.04 0.04 0.07 0.06 0.05 0.05 0.06 0.07 0.10 0.10 0.08 0.09 0.11 0.10 0.06 0.04 0.03 0.02 0.01 0.01 0.01 0.01 0.01 0.01 0.01 0.01 0.03 0.03 0.05 0.05 0.07 0.08 0.08 0.08 0.07 0.06

GFSWCAN_prec_precacc24_162.txt.gz
Total_Precipitation_Accumulation
0.12 0.31 0.36 0.28 0.57 1.06 0.53 0.42 0.37 0.27 0.27 0.23 0.17 0.14 0.15 0.19 0.25 0.22 0.27 0.22 0.24 0.22 0.07 0.05 0.03 0.04 0.04 0.05 0.05 0.08 0.16 0.10 0.10 0.17 0.17 0.12 0.06 0.05 0.04 0.05 0.08 0.07 0.16 0.15 0.22 0.27 0.12 0.01 0.03 0.04 0.04 0.00 0.00 0.00
0.13 0.21 0.48 0.33 0.51 0.87 0.50 0.41 0.40 0.24 0.23 0.21 0.19 0.15 0.16 0.20 0.22 0.29 0.54 0.34 0.37 0.36 0.15 0.03 0.03 0.01 0.01 0.03 0.10 0.15 0.12 0.11 0.07 0.06 0.07 0.13 0.14 0.12 0.10 0.09 0.04 0.06 0.04 0.08 0.09 0.12 0.10 0.02 0.01 0.01 0.00 0.00 0.00 0.00
0.11 0.18 0.65 0.45 0.55 0.77 0.47 0.41 0.36 0.17 0.16 0.21 0.19 0.16 0.20 0.15 0.18 0.41 0.63 0.47 0.54 0.47 0.23 0.05 0.05 0.01 0.00 0.01 0.05 0.18 0.08 0.03 0.06 0.11 0.18 0.20 0.19 0.09 0.09 0.06 0.08 0.05 0.02 0.04 0.06 0.01 0.00 0.01 0.01 0.00 0.00 0.00 0.00 0.00
0.12 0.26 0.86 0.53 0.61 0.65 0.46 0.46 0.38 0.17 0.12 0.16 0.13 0.10 0.13 0.09 0.29 0.59 0.62 0.42 0.49 0.40 0.45 0.25 0.02 0.02 0.01 0.02 0.04 0.06 0.12 0.12 0.10 0.13 0.20 0.15 0.14 0.11 0.09 0.07 0.07 0.07 0.10 0.10 0.05 0.02 0.01 0.00 0.00 0.00 0.00 0.00 0.00 0.00
0.13 0.34 0.91 0.65 0.62 0.49 0.41 0.42 0.38 0.20 0.10 0.11 0.07 0.06 0.08 0.15 0.53 0.71 0.58 0.34 0.23 0.23 0.31 0.19 0.08 0.04 0.00 0.01 0.03 0.07 0.19 0.28 0.35 0.37 0.32 0.12 0.04 0.13 0.07 0.05 0.02 0.00 0.03 0.07 0.06 0.08 0.02 0.01 0.00 0.00 0.00 0.00 0.00 0.00
0.19 0.52 0.88 0.73 0.56 0.39 0.36 0.34 0.34 0.19 0.08 0.06 0.07 0.08 0.10 0.28 0.54 0.72 0.75 0.31 0.18 0.20 0.26 0.17 0.15 0.12 0.05 0.04 0.06 0.11 0.18 0.30 0.40 0.39 0.28 0.15 0.04 0.10 0.18 0.04 0.00 0.00 0.00 0.00 0.02 0.01 0.02 0.01 0.00 0.00 0.00 0.00 0.00 0.00
0.39 0.68 0.85 0.59 0.42 0.35 0.35 0.30 0.25 0.14 0.07 0.05 0.08 0.10 0.13 0.29 0.56 0.47 0.39 0.18 0.15 0.24 0.34 0.13 0.14 0.20 0.06 0.14 0.18 0.17 0.20 0.26 0.24 0.27 0.23 0.11 0.06 0.15 0.24 0.05 0.02 0.00 0.01 0.01 0.01 0.00 0.00 0.00 0.00 0.00 0.00 0.00 0.00 0.00
0.57 0.70 0.66 0.40 0.32 0.30 0.29 0.23 0.14 0.09 0.08 0.08 0.05 0.09 0.18 0.41 0.54 0.27 0.08 0.16 0.34 0.42 0.16 0.13 0.14 0.20 0.10 0.16 0.16 0.11 0.15 0.17 0.25 0.26 0.16 0.06 0.05 0.08 0.09 0.03 0.01 0.00 0.00 0.00 0.00 0.00 0.00 0.00 0.00 0.00 0.00 0.00 0.00 0.00
0.52 0.57 0.38 0.25 0.22 0.20 0.17 0.11 0.06 0.05 0.07 0.07 0.09 0.20 0.58 0.64 0.48 0.24 0.20 0.27 0.45 0.59 0.35 0.08 0.09 0.14 0.10 0.19 0.13 0.15 0.14 0.19 0.15 0.10 0.06 0.04 0.07 0.07 0.03 0.01 0.00 0.00 0.00 0.00 0.00 0.00 0.00 0.00 0.00 0.00 0.00 0.00 0.00 0.00
0.46 0.26 0.16 0.11 0.11 0.08 0.04 0.02 0.04 0.06 0.04 0.04 0.09 0.30 0.66 0.41 0.38 0.34 0.47 0.62 0.57 0.39 0.16 0.06 0.06 0.11 0.14 0.18 0.19 0.16 0.13 0.11 0.07 0.05 0.03 0.02 0.01 0.01 0.01 0.00 0.00 0.00 0.00 0.00 0.00 0.00 0.00 0.00 0.00 0.00 0.00 0.00 0.00 0.00
0.31 0.16 0.08 0.09 0.04 0.01 0.01 0.02 0.04 0.06 0.04 0.02 0.07 0.31 0.51 0.51 0.30 0.28 0.32 0.33 0.25 0.16 0.04 0.03 0.05 0.08 0.09 0.19 0.19 0.12 0.08 0.07 0.04 0.04 0.01 0.01 0.01 0.00 0.00 0.00 0.00 0.00 0.00 0.00 0.00 0.00 0.00 0.00 0.00 0.00 0.00 0.00 0.00 0.00
0.23 0.09 0.08 0.02 0.00 0.01 0.01 0.01 0.05 0.03 0.02 0.03 0.09 0.26 0.37 0.28 0.23 0.19 0.16 0.09 0.09 0.05 0.02 0.04 0.05 0.10 0.14 0.11 0.19 0.08 0.06 0.01 0.02 0.00 0.00 0.00 0.00 0.00 0.00 0.00 0.00 0.00 0.00 0.00 0.00 0.00 0.00 0.00 0.00 0.00 0.00 0.00 0.00 0.00
0.14 0.07 0.01 0.00 0.00 0.01 0.00 0.01 0.01 0.02 0.05 0.10 0.20 0.28 0.27 0.21 0.18 0.08 0.07 0.03 0.07 0.05 0.03 0.03 0.09 0.09 0.08 0.07 0.09 0.05 0.02 0.01 0.00 0.00 0.00 0.00 0.00 0.00 0.00 0.00 0.00 0.00 0.00 0.00 0.00 0.00 0.00 0.00 0.00 0.00 0.00 0.00 0.00 0.00
0.05 0.02 0.02 0.01 0.01 0.01 0.01 0.02 0.01 0.01 0.05 0.12 0.19 0.17 0.19 0.12 0.06 0.03 0.07 0.06 0.03 0.01 0.03 0.06 0.07 0.05 0.05 0.06 0.03 0.03 0.02 0.00 0.00 0.00 0.01 0.01 0.00 0.00 0.00 0.00 0.00 0.00 0.00 0.00 0.00 0.00 0.00 0.00 0.00 0.00 0.00 0.00 0.00 0.00
0.04 0.02 0.01 0.01 0.01 0.02 0.01 0.00 0.00 0.01 0.02 0.04 0.06 0.11 0.03 0.05 0.04 0.02 0.02 0.02 0.01 0.02 0.04 0.08 0.07 0.04 0.04 0.01 0.01 0.01 0.00 0.00 0.00 0.01 0.02 0.01 0.01 0.00 0.00 0.00 0.00 0.00 0.00 0.00 0.00 0.00 0.00 0.00 0.00 0.00 0.00 0.00 0.00 0.00
0.01 0.01 0.01 0.02 0.02 0.01 0.00 0.01 0.01 0.02 0.01 0.01 0.03 0.05 0.03 0.06 0.06 0.04 0.05 0.02 0.01 0.04 0.04 0.04 0.02 0.01 0.00 0.00 0.00 0.00 0.00 0.01 0.02 0.02 0.02 0.02 0.02 0.00 0.00 0.01 0.00 0.00 0.00 0.00 0.00 0.00 0.00 0.00 0.00 0.00 0.00 0.00 0.00 0.00
0.01 0.01 0.00 0.00 0.00 0.00 0.00 0.01 0.01 0.01 0.00 0.02 0.07 0.08 0.06 0.10 0.08 0.08 0.09 0.04 0.02 0.05 0.05 0.02 0.01 0.01 0.01 0.00 0.01 0.02 0.04 0.04 0.03 0.03 0.03 0.03 0.04 0.02 0.02 0.01 0.00 0.00 0.00 0.00 0.00 0.00 0.00 0.00 0.00 0.00 0.00 0.00 0.00 0.00
0.01 0.00 0.00 0.00 0.00 0.00 0.00 0.00 0.01 0.00 0.02 0.06 0.08 0.05 0.03 0.04 0.06 0.10 0.07 0.02 0.04 0.06 0.03 0.03 0.01 0.01 0.02 0.03 0.07 0.12 0.07 0.05 0.02 0.01 0.01 0.03 0.03 0.04 0.04 0.02 0.00 0.00 0.00 0.00 0.00 0.00 0.00 0.00 0.00 0.00 0.00 0.00 0.00 0.00
0.01 0.00 0.00 0.00 0.00 0.00 0.00 0.00 0.00 0.00 0.02 0.02 0.02 0.02 0.02 0.04 0.05 0.09 0.04 0.01 0.01 0.00 0.00 0.00 0.02 0.05 0.08 0.13 0.16 0.12 0.07 0.04 0.02 0.01 0.01 0.01 0.02 0.02 0.04 0.04 0.03 0.01 0.00 0.00 0.00 0.00 0.00 0.00 0.00 0.00 0.00 0.00 0.00 0.00
0.00 0.00 0.00 0.00 0.00 0.00 0.00 0.00 0.00 0.00 0.00 0.01 0.01 0.01 0.02 0.04 0.03 0.03 0.02 0.01 0.01 0.01 0.01 0.03 0.10 0.20 0.20 0.14 0.13 0.11 0.08 0.05 0.03 0.03 0.01 0.01 0.01 0.01 0.01 0.00 0.00 0.00 0.00 0.00 0.00 0.00 0.00 0.00 0.00 0.00 0.00 0.00 0.00 0.00
0.00 0.00 0.00 0.00 0.00 0.00 0.00 0.00 0.00 0.00 0.00 0.01 0.00 0.00 0.01 0.00 0.00 0.01 0.00 0.00 0.03 0.09 0.08 0.09 0.13 0.16 0.21 0.15 0.11 0.09 0.08 0.05 0.03 0.02 0.02 0.02 0.01 0.00 0.00 0.00 0.00 0.00 0.00 0.00 0.00 0.00 0.00 0.00 0.00 0.00 0.00 0.00 0.00 0.00
0.00 0.00 0.00 0.00 0.00 0.00 0.00 0.00 0.00 0.00 0.00 0.00 0.00 0.00 0.01 0.01 0.00 0.00 0.00 0.00 0.02 0.06 0.07 0.07 0.07 0.06 0.04 0.05 0.05 0.03 0.02 0.02 0.02 0.02 0.02 0.01 0.02 0.01 0.01 0.01 0.00 0.00 0.00 0.00 0.00 0.00 0.00 0.00 0.00 0.00 0.00 0.00 0.00 0.00
0.00 0.00 0.00 0.00 0.00 0.00 0.00 0.00 0.00 0.00 0.00 0.00 0.00 0.00 0.00 0.00 0.00 0.00 0.00 0.01 0.04 0.06 0.04 0.02 0.03 0.03 0.02 0.01 0.00 0.00 0.00 0.00 0.00 0.00 0.01 0.01 0.01 0.01 0.01 0.01 0.01 0.02 0.01 0.01 0.00 0.01 0.00 0.00 0.00 0.00 0.00 0.00 0.00 0.00
0.00 0.00 0.00 0.00 0.00 0.00 0.00 0.00 0.00 0.00 0.00 0.00 0.00 0.00 0.00 0.00 0.00 0.00 0.01 0.04 0.06 0.03 0.01 0.01 0.01 0.01 0.00 0.00 0.01 0.01 0.00 0.00 0.00 0.00 0.02 0.01 0.02 0.02 0.02 0.02 0.03 0.04 0.04 0.04 0.03 0.04 0.03 0.03 0.03 0.02 0.02 0.01 0.01 0.02
0.00 0.00 0.00 0.00 0.00 0.00 0.00 0.00 0.00 0.00 0.00 0.00 0.00 0.00 0.00 0.00 0.00 0.01 0.03 0.07 0.06 0.04 0.01 0.00 0.00 0.00 0.01 0.02 0.01 0.01 0.00 0.00 0.01 0.01 0.03 0.02 0.02 0.04 0.04 0.05 0.06 0.06 0.05 0.05 0.05 0.06 0.05 0.04 0.04 0.03 0.03 0.03 0.03 0.02
0.00 0.00 0.00 0.00 0.00 0.00 0.00 0.00 0.00 0.00 0.00 0.00 0.01 0.00 0.00 0.00 0.00 0.03 0.05 0.07 0.06 0.04 0.03 0.03 0.02 0.01 0.00 0.01 0.01 0.01 0.01 0.00 0.01 0.05 0.07 0.02 0.01 0.03 0.05 0.06 0.09 0.07 0.03 0.05 0.04 0.04 0.05 0.03 0.02 0.03 0.03 0.03 0.05 0.06
0.00 0.00 0.00 0.00 0.00 0.00 0.00 0.00 0.00 0.00 0.00 0.00 0.01 0.00 0.00 0.00 0.02 0.04 0.04 0.04 0.05 0.04 0.03 0.04 0.03 0.01 0.01 0.02 0.01 0.01 0.01 0.01 0.02 0.06 0.08 0.04 0.02 0.02 0.03 0.04 0.06 0.07 0.03 0.02 0.03 0.03 0.04 0.05 0.04 0.04 0.04 0.06 0.05 0.05
0.00 0.00 0.00 0.00 0.00 0.00 0.00 0.00 0.01 0.01 0.03 0.03 0.03 0.01 0.02 0.02 0.04 0.04 0.04 0.04 0.06 0.06 0.05 0.04 0.02 0.02 0.04 0.05 0.03 0.02 0.02 0.03 0.06 0.09 0.07 0.04 0.02 0.01 0.01 0.02 0.02 0.01 0.00 0.01 0.01 0.01 0.01 0.03 0.05 0.07 0.08 0.05 0.04 0.07
0.01 0.01 0.00 0.00 0.00 0.00 0.01 0.02 0.05 0.07 0.07 0.07 0.09 0.09 0.04 0.03 0.06 0.07 0.06 0.06 0.06 0.05 0.05 0.05 0.04 0.05 0.04 0.07 0.03 0.02 0.02 0.04 0.09 0.11 0.12 0.16 0.11 0.05 0.01 0.01 0.01 0.01 0.01 0.01 0.01 0.00 0.01 0.03 0.03 0.05 0.06 0.06 0.07 0.11
0.01 0.00 0.01 0.01 0.00 0.01 0.05 0.03 0.03 0.02 0.01 0.03 0.03 0.02 0.02 0.05 0.08 0.08 0.07 0.07 0.06 0.08 0.09 0.08 0.07 0.06 0.05 0.05 0.05 0.04 0.03 0.03 0.05 0.07 0.08 0.09 0.08 0.06 0.03 0.02 0.02 0.02 0.01 0.01 0.02 0.02 0.02 0.04 0.06 0.04 0.06 0.09 0.11 0.13
0.02 0.02 0.03 0.02 0.03 0.06 0.05 0.03 0.04 0.03 0.03 0.03 0.03 0.03 0.03 0.05 0.06 0.05 0.04 0.06 0.05 0.04 0.04 0.05 0.05 0.05 0.05 0.05 0.05 0.05 0.06 0.05 0.06 0.06 0.06 0.07 0.06 0.04 0.03 0.02 0.02 0.02 0.02 0.02 0.02 0.03 0.06 0.05 0.06 0.07 0.08 0.10 0.12 0.12
0.05 0.10 0.14 0.12 0.12 0.11 0.11 0.13 0.11 0.09 0.06 0.06 0.06 0.05 0.06 0.07 0.06 0.05 0.03 0.03 0.03 0.04 0.04 0.04 0.06 0.06 0.06 0.08 0.07 0.08 0.08 0.07 0.06 0.05 0.03 0.03 0.03 0.03 0.03 0.01 0.01 0.01 0.01 0.01 0.01 0.02 0.03 0.05 0.09 0.11 0.13 0.13 0.14 0.13
0.05 0.07 0.11 0.14 0.12 0.14 0.18 0.21 0.20 0.13 0.10 0.07 0.06 0.07 0.08 0.08 0.07 0.06 0.04 0.05 0.08 0.07 0.06 0.06 0.06 0.06 0.10 0.09 0.08 0.08 0.09 0.08 0.06 0.04 0.03 0.02 0.01 0.01 0.01 0.01 0.01 0.01 0.01 0.01 0.02 0.03 0.04 0.05 0.06 0.08 0.08 0.08 0.07 0.05

GFSWCAN_prec_precacc24_165.txt.gz
Total_Precipitation_Accumulation
0.12 0.31 0.34 0.26 0.50 1.06 0.54 0.43 0.37 0.27 0.28 0.23 0.16 0.13 0.15 0.24 0.39 0.31 0.22 0.16 0.26 0.23 0.07 0.05 0.04 0.04 0.05 0.05 0.05 0.09 0.20 0.13 0.10 0.18 0.17 0.11 0.05 0.05 0.04 0.06 0.10 0.10 0.20 0.16 0.23 0.27 0.12 0.01 0.03 0.08 0.11 0.08 0.00 0.00
0.12 0.20 0.44 0.25 0.45 0.87 0.51 0.42 0.41 0.26 0.25 0.22 0.18 0.15 0.18 0.26 0.34 0.44 0.54 0.29 0.39 0.40 0.13 0.02 0.01 0.01 0.01 0.03 0.11 0.16 0.15 0.12 0.07 0.06 0.07 0.13 0.14 0.14 0.12 0.10 0.06 0.10 0.05 0.08 0.09 0.12 0.11 0.08 0.04 0.02 0.01 0.00 0.00 0.00
0.10 0.17 0.57 0.30 0.47 0.77 0.48 0.42 0.38 0.25 0.25 0.25 0.19 0.17 0.25 0.26 0.33 0.53 0.62 0.50 0.58 0.48 0.20 0.03 0.04 0.02 0.00 0.01 0.05 0.18 0.09 0.04 0.06 0.12 0.20 0.24 0.22 0.14 0.13 0.08 0.14 0.09 0.05 0.06 0.08 0.04 0.04 0.08 0.05 0.01 0.00 0.00 0.00 0.00
0.11 0.24 0.76 0.41 0.57 0.65 0.47 0.47 0.41 0.20 0.16 0.26 0.19 0.16 0.22 0.20 0.43 0.66 0.66 0.52 0.52 0.41 0.42 0.22 0.02 0.02 0.01 0.02 0.04 0.06 0.12 0.12 0.10 0.14 0.23 0.18 0.15 0.13 0.10 0.09 0.10 0.11 0.19 0.27 0.16 0.05 0.03 0.02 0.02 0.01 0.00 0.00 0.00 0.00
0.12 0.31 0.78 0.57 0.60 0.50 0.42 0.46 0.42 0.22 0.12 0.20 0.17 0.14 0.18 0.27 0.65 0.80 0.64 0.40 0.30 0.25 0.30 0.17 0.08 0.04 0.00 0.01 0.03 0.07 0.19 0.28 0.35 0.38 0.33 0.13 0.05 0.14 0.08 0.05 0.02 0.01 0.04 0.09 0.07 0.10 0.04 0.01 0.01 0.00 0.00 0.00 0.00 0.00
0.17 0.41 0.74 0.68 0.54 0.38 0.38 0.47 0.41 0.20 0.11 0.20 0.19 0.16 0.19 0.39 0.65 0.81 0.81 0.30 0.24 0.25 0.27 0.17 0.15 0.11 0.05 0.04 0.06 0.11 0.18 0.30 0.41 0.40 0.28 0.15 0.04 0.11 0.19 0.04 0.00 0.00 0.01 0.01 0.03 0.02 0.03 0.06 0.07 0.03 0.00 0.00 0.00 0.00
0.35 0.52 0.78 0.59 0.39 0.33 0.43 0.45 0.33 0.18 0.18 0.24 0.21 0.16 0.19 0.34 0.59 0.50 0.39 0.16 0.17 0.26 0.34 0.12 0.14 0.19 0.06 0.15 0.19 0.18 0.22 0.27 0.26 0.28 0.24 0.11 0.07 0.18 0.28 0.05 0.02 0.00 0.01 0.01 0.05 0.04 0.01 0.00 0.00 0.00 0.00 0.00 0.00 0.00
0.50 0.62 0.71 0.45 0.34 0.41 0.48 0.37 0.26 0.22 0.24 0.19 0.14 0.13 0.23 0.47 0.58 0.31 0.08 0.16 0.34 0.41 0.16 0.13 0.14 0.22 0.10 0.16 0.16 0.12 0.16 0.18 0.27 0.29 0.19 0.07 0.07 0.13 0.14 0.03 0.01 0.00 0.00 0.00 0.00 0.00 0.00 0.00 0.00 0.00 0.00 0.00 0.00 0.00
0.73 0.81 0.51 0.35 0.37 0.39 0.39 0.31 0.23 0.22 0.19 0.16 0.16 0.30 0.72 0.76 0.54 0.30 0.21 0.27 0.46 0.58 0.34 0.08 0.09 0.15 0.10 0.18 0.13 0.16 0.15 0.22 0.20 0.17 0.08 0.06 0.12 0.12 0.03 0.01 0.00 0.00 0.00 0.00 0.00 0.00 0.00 0.00 0.00 0.00 0.00 0.00 0.00 0.00
0.74 0.50 0.36 0.32 0.32 0.33 0.29 0.18 0.15 0.13 0.11 0.11 0.15 0.37 0.76 0.46 0.38 0.35 0.47 0.65 0.62 0.48 0.17 0.06 0.06 0.12 0.14 0.18 0.19 0.20 0.20 0.17 0.11 0.06 0.06 0.10 0.04 0.02 0.01 0.00 0.00 0.00 0.00 0.00 0.00 0.00 0.00 0.00 0.00 0.00 0.00 0.00 0.00 0.00
0.43 0.31 0.24 0.24 0.19 0.13 0.08 0.06 0.05 0.07 0.05 0.02 0.07 0.32 0.52 0.53 0.31 0.28 0.32 0.35 0.28 0.17 0.04 0.02 0.05 0.09 0.11 0.23 0.24 0.21 0.19 0.18 0.10 0.08 0.04 0.06 0.02 0.00 0.00 0.00 0.00 0.00 0.00 0.00 0.00 0.00 0.00 0.00 0.00 0.00 0.00 0.00 0.00 0.00
0.21 0.13 0.12 0.06 0.04 0.03 0.02 0.01 0.05 0.03 0.02 0.03 0.09 0.29 0.39 0.29 0.23 0.20 0.18 0.10 0.09 0.05 0.02 0.03 0.05 0.10 0.13 0.12 0.26 0.24 0.23 0.11 0.10 0.06 0.03 0.02 0.01 0.00 0.00 0.00 0.00 0.00 0.00 0.00 0.00 0.00 0.00 0.00 0.00 0.00 0.00 0.00 0.00 0.00
0.13 0.07 0.01 0.00 0.00 0.00 0.00 0.01 0.01 0.02 0.05 0.10 0.20 0.28 0.28 0.22 0.20 0.09 0.09 0.03 0.08 0.06 0.04 0.03 0.09 0.09 0.08 0.07 0.10 0.09 0.08 0.03 0.01 0.01 0.00 0.01 0.00 0.00 0.00 0.00 0.00 0.00 0.00 0.00 0.00 0.00 0.00 0.00 0.00 0.00 0.00 0.00 0.00 0.00
0.04 0.01 0.00 0.00 0.00 0.01 0.01 0.02 0.01 0.01 0.05 0.12 0.19 0.17 0.20 0.15 0.06 0.03 0.07 0.07 0.04 0.03 0.04 0.07 0.08 0.06 0.06 0.07 0.04 0.06 0.03 0.01 0.01 0.00 0.02 0.02 0.00 0.00 0.00 0.00 0.00 0.00 0.00 0.00 0.00 0.00 0.00 0.00 0.00 0.00 0.00 0.00 0.00 0.00
0.04 0.02 0.01 0.01 0.01 0.02 0.01 0.00 0.00 0.01 0.02 0.04 0.07 0.13 0.04 0.06 0.04 0.02 0.01 0.02 0.07 0.10 0.05 0.16 0.16 0.11 0.09 0.05 0.05 0.03 0.01 0.00 0.00 0.01 0.03 0.01 0.01 0.00 0.00 0.00 0.00 0.00 0.00 0.00 0.00 0.00 0.00 0.00 0.00 0.00 0.00 0.00 0.00 0.00
0.01 0.02 0.03 0.02 0.02 0.01 0.00 0.01 0.01 0.02 0.01 0.01 0.03 0.06 0.04 0.08 0.07 0.04 0.05 0.03 0.06 0.16 0.08 0.08 0.10 0.05 0.02 0.03 0.02 0.01 0.00 0.01 0.02 0.02 0.02 0.02 0.02 0.00 0.01 0.01 0.00 0.00 0.00 0.00 0.00 0.00 0.00 0.00 0.00 0.00 0.00 0.00 0.00 0.00
0.01 0.02 0.01 0.00 0.00 0.00 0.00 0.01 0.03 0.02 0.01 0.02 0.07 0.05 0.04 0.13 0.13 0.09 0.11 0.08 0.10 0.22 0.12 0.04 0.04 0.02 0.01 0.01 0.01 0.02 0.04 0.05 0.04 0.03 0.03 0.03 0.04 0.02 0.03 0.01 0.00 0.00 0.00 0.00 0.00 0.00 0.00 0.00 0.00 0.00 0.00 0.00 0.00 0.00
0.01 0.00 0.00 0.00 0.00 0.00 0.00 0.00 0.01 0.00 0.02 0.05 0.10 0.06 0.02 0.05 0.08 0.11 0.09 0.06 0.11 0.18 0.11 0.12 0.02 0.02 0.03 0.05 0.07 0.10 0.06 0.05 0.03 0.01 0.01 0.03 0.04 0.04 0.05 0.04 0.01 0.00 0.00 0.00 0.00 0.00 0.00 0.00 0.00 0.00 0.00 0.00 0.00 0.00
0.01 0.00 0.00 0.00 0.00 0.01 0.02 0.00 0.01 0.01 0.03 0.03 0.03 0.02 0.03 0.04 0.06 0.12 0.07 0.02 0.06 0.10 0.02 0.00 0.02 0.03 0.05 0.09 0.13 0.12 0.07 0.04 0.02 0.01 0.01 0.02 0.03 0.03 0.05 0.06 0.04 0.02 0.01 0.00 0.00 0.00 0.00 0.00 0.00 0.00 0.00 0.00 0.00 0.00
0.00 0.00 0.00 0.00 0.00 0.00 0.00 0.00 0.00 0.01 0.01 0.01 0.02 0.01 0.02 0.04 0.03 0.05 0.04 0.01 0.01 0.01 0.01 0.03 0.08 0.15 0.16 0.14 0.14 0.11 0.08 0.06 0.05 0.04 0.02 0.02 0.02 0.02 0.01 0.01 0.01 0.01 0.00 0.00 0.00 0.00 0.01 0.00 0.00 0.00 0.00 0.00 0.01 0.01
0.00 0.00 0.00 0.00 0.00 0.00 0.00 0.00 0.01 0.00 0.00 0.01 0.01 0.01 0.01 0.00 0.01 0.01 0.01 0.00 0.04 0.11 0.08 0.09 0.13 0.17 0.21 0.16 0.11 0.09 0.08 0.05 0.03 0.03 0.03 0.03 0.02 0.01 0.00 0.00 0.00 0.00 0.01 0.00 0.01 0.00 0.00 0.00 0.00 0.00 0.00 0.00 0.00 0.00
0.00 0.00 0.00 0.00 0.00 0.00 0.00 0.00 0.00 0.00 0.01 0.01 0.01 0.01 0.03 0.02 0.00 0.00 0.00 0.00 0.03 0.08 0.09 0.07 0.07 0.06 0.05 0.05 0.05 0.03 0.02 0.02 0.02 0.02 0.02 0.02 0.02 0.02 0.02 0.01 0.01 0.01 0.00 0.00 0.00 0.00 0.00 0.00 0.00 0.00 0.00 0.00 0.00 0.00
0.00 0.00 0.00 0.00 0.00 0.00 0.00 0.00 0.00 0.01 0.00 0.01 0.01 0.01 0.01 0.00 0.00 0.00 0.00 0.01 0.04 0.07 0.06 0.03 0.04 0.03 0.02 0.01 0.00 0.00 0.00 0.00 0.00 0.00 0.01 0.01 0.01 0.01 0.02 0.01 0.01 0.02 0.02 0.02 0.02 0.03 0.02 0.01 0.00 0.00 0.00 0.00 0.00 0.00
0.00 0.00 0.00 0.00 0.00 0.00 0.00 0.00 0.00 0.00 0.00 0.00 0.00 0.00 0.00 0.00 0.00 0.00 0.01 0.03 0.06 0.03 0.01 0.01 0.01 0.01 0.00 0.00 0.01 0.00 0.00 0.00 0.00 0.00 0.02 0.02 0.02 0.02 0.02 0.02 0.03 0.04 0.05 0.05 0.04 0.06 0.04 0.04 0.04 0.03 0.02 0.02 0.02 0.02
0.00 0.00 0.00 0.00 0.00 0.00 0.00 0.00 0.00 0.00 0.00 0.00 0.00 0.00 0.00 0.00 0.00 0.00 0.01 0.04 0.05 0.04 0.01 0.00 0.00 0.00 0.01 0.01 0.01 0.01 0.00 0.00 0.01 0.01 0.02 0.02 0.02 0.06 0.06 0.06 0.06 0.06 0.05 0.05 0.05 0.05 0.05 0.04 0.04 0.03 0.03 0.03 0.03 0.03
0.00 0.00 0.00 0.00 0.00 0.00 0.00 0.00 0.00 0.00 0.00 0.00 0.00 0.00 0.00 0.00 0.00 0.01 0.04 0.07 0.06 0.04 0.04 0.04 0.02 0.01 0.00 0.01 0.02 0.01 0.00 0.00 0.01 0.04 0.04 0.02 0.01 0.03 0.05 0.07 0.09 0.06 0.03 0.05 0.05 0.04 0.04 0.03 0.02 0.02 0.03 0.05 0.06 0.05
0.00 0.00 0.00 0.00 0.00 0.00 0.00 0.01 0.00 0.00 0.00 0.00 0.01 0.00 0.00 0.00 0.01 0.03 0.04 0.05 0.06 0.04 0.03 0.04 0.02 0.02 0.01 0.02 0.01 0.01 0.01 0.01 0.02 0.06 0.07 0.04 0.02 0.02 0.02 0.04 0.05 0.05 0.03 0.03 0.03 0.03 0.03 0.03 0.03 0.04 0.04 0.09 0.06 0.05
0.00 0.00 0.00 0.00 0.00 0.00 0.00 0.00 0.00 0.01 0.01 0.01 0.01 0.01 0.01 0.01 0.04 0.04 0.05 0.04 0.05 0.06 0.04 0.03 0.02 0.02 0.03 0.03 0.02 0.01 0.02 0.04 0.06 0.08 0.06 0.05 0.02 0.01 0.01 0.02 0.02 0.01 0.01 0.01 0.01 0.01 0.02 0.02 0.04 0.06 0.09 0.05 0.04 0.07
0.00 0.01 0.00 0.00 0.00 0.00 0.00 0.01 0.03 0.04 0.04 0.06 0.07 0.06 0.04 0.03 0.06 0.06 0.05 0.05 0.04 0.04 0.05 0.05 0.04 0.04 0.04 0.03 0.01 0.01 0.02 0.04 0.10 0.10 0.09 0.15 0.11 0.05 0.01 0.01 0.01 0.01 0.01 0.01 0.01 0.00 0.02 0.03 0.04 0.05 0.06 0.05 0.07 0.10
0.00 0.00 0.00 0.01 0.00 0.01 0.05 0.04 0.06 0.03 0.01 0.03 0.03 0.02 0.02 0.04 0.07 0.07 0.06 0.07 0.07 0.09 0.09 0.07 0.06 0.07 0.06 0.05 0.03 0.03 0.02 0.03 0.05 0.06 0.07 0.07 0.07 0.06 0.03 0.01 0.01 0.01 0.01 0.01 0.01 0.01 0.02 0.04 0.07 0.04 0.06 0.09 0.11 0.12
0.01 0.02 0.04 0.03 0.04 0.08 0.08 0.03 0.04 0.03 0.03 0.03 0.03 0.04 0.04 0.05 0.06 0.05 0.04 0.05 0.04 0.04 0.05 0.05 0.05 0.05 0.05 0.05 0.06 0.05 0.06 0.05 0.05 0.05 0.05 0.06 0.06 0.04 0.03 0.02 0.01 0.01 0.01 0.01 0.01 0.01 0.03 0.04 0.05 0.07 0.07 0.08 0.10 0.11
0.05 0.10 0.13 0.10 0.09 0.12 0.12 0.14 0.13 0.09 0.06 0.06 0.06 0.05 0.07 0.07 0.06 0.05 0.03 0.04 0.05 0.05 0.05 0.05 0.06 0.05 0.06 0.08 0.06 0.06 0.06 0.06 0.05 0.04 0.03 0.03 0.03 0.03 0.03 0.02 0.01 0.01 0.01 0.01 0.01 0.01 0.02 0.03 0.06 0.09 0.11 0.12 0.13 0.12
0.05 0.07 0.10 0.13 0.11 0.14 0.19 0.21 0.21 0.14 0.08 0.06 0.06 0.06 0.07 0.08 0.07 0.06 0.04 0.06 0.09 0.08 0.08 0.07 0.06 0.06 0.09 0.09 0.07 0.07 0.07 0.06 0.05 0.04 0.03 0.02 0.01 0.01 0.01 0.01 0.01 0.01 0.01 0.01 0.02 0.03 0.04 0.04 0.06 0.07 0.07 0.07 0.07 0.05

GFSWCAN_prec_precacc24_171.txt.gz
Total_Precipitation_Accumulation
0.14 0.32 0.34 0.25 0.43 0.91 0.48 0.42 0.38 0.29 0.30 0.25 0.17 0.12 0.15 0.20 0.29 0.34 0.29 0.23 0.44 0.46 0.12 0.06 0.03 0.03 0.03 0.05 0.06 0.09 0.21 0.13 0.10 0.18 0.19 0.12 0.05 0.05 0.04 0.06 0.10 0.11 0.25 0.20 0.26 0.34 0.14 0.01 0.04 0.09 0.11 0.09 0.01 0.00
0.19 0.24 0.46 0.25 0.33 0.69 0.47 0.42 0.43 0.29 0.27 0.24 0.20 0.15 0.17 0.21 0.28 0.41 0.42 0.26 0.37 0.78 0.28 0.02 0.01 0.01 0.01 0.03 0.11 0.17 0.16 0.14 0.09 0.06 0.07 0.13 0.12 0.13 0.14 0.12 0.13 0.14 0.09 0.12 0.10 0.13 0.11 0.08 0.05 0.04 0.02 0.01 0.00 0.00
0.12 0.20 0.59 0.30 0.31 0.57 0.46 0.42 0.42 0.29 0.29 0.28 0.20 0.17 0.18 0.22 0.28 0.40 0.43 0.35 0.61 0.84 0.39 0.06 0.00 0.00 0.01 0.01 0.06 0.19 0.09 0.07 0.12 0.16 0.23 0.25 0.22 0.14 0.18 0.15 0.21 0.16 0.14 0.28 0.26 0.09 0.05 0.08 0.06 0.03 0.02 0.01 0.00 0.00
0.11 0.25 0.77 0.36 0.35 0.51 0.46 0.49 0.45 0.24 0.19 0.28 0.20 0.16 0.17 0.18 0.28 0.35 0.44 0.52 0.68 0.64 0.35 0.05 0.00 0.01 0.01 0.02 0.05 0.07 0.13 0.17 0.15 0.20 0.24 0.20 0.14 0.11 0.11 0.12 0.14 0.17 0.24 0.35 0.28 0.10 0.04 0.03 0.03 0.02 0.01 0.01 0.00 0.00
0.13 0.32 0.78 0.46 0.38 0.41 0.43 0.49 0.46 0.26 0.16 0.22 0.18 0.14 0.17 0.21 0.32 0.47 0.49 0.68 0.65 0.52 0.29 0.05 0.03 0.02 0.00 0.01 0.03 0.07 0.19 0.30 0.38 0.40 0.32 0.12 0.04 0.08 0.06 0.05 0.02 0.01 0.04 0.09 0.07 0.10 0.05 0.02 0.03 0.01 0.00 0.00 0.00 0.00
0.16 0.41 0.67 0.51 0.37 0.32 0.38 0.48 0.43 0.25 0.16 0.25 0.22 0.18 0.20 0.32 0.53 1.05 1.22 0.66 0.63 0.66 0.44 0.14 0.10 0.08 0.05 0.04 0.06 0.11 0.18 0.30 0.41 0.40 0.28 0.15 0.03 0.09 0.15 0.04 0.00 0.00 0.01 0.01 0.03 0.02 0.03 0.06 0.07 0.04 0.00 0.00 0.00 0.00
0.36 0.51 0.64 0.41 0.30 0.31 0.45 0.45 0.35 0.21 0.24 0.32 0.24 0.19 0.24 0.40 0.71 0.91 0.70 0.24 0.27 0.52 0.48 0.12 0.11 0.18 0.06 0.15 0.20 0.19 0.23 0.27 0.26 0.28 0.24 0.11 0.07 0.20 0.29 0.05 0.02 0.00 0.01 0.01 0.05 0.04 0.01 0.00 0.00 0.00 0.00 0.00 0.00 0.00
0.49 0.56 0.55 0.34 0.32 0.41 0.49 0.39 0.28 0.25 0.36 0.44 0.29 0.23 0.39 0.67 0.86 0.55 0.21 0.26 0.40 0.54 0.17 0.13 0.14 0.22 0.10 0.17 0.18 0.14 0.19 0.21 0.30 0.31 0.20 0.07 0.08 0.15 0.17 0.04 0.01 0.00 0.00 0.00 0.00 0.00 0.00 0.00 0.00 0.00 0.00 0.00 0.00 0.00
0.65 0.63 0.39 0.33 0.39 0.44 0.41 0.34 0.30 0.37 0.67 0.47 0.36 0.59 1.08 1.07 0.80 0.50 0.28 0.41 0.57 0.62 0.35 0.08 0.09 0.16 0.10 0.18 0.13 0.16 0.19 0.33 0.28 0.20 0.08 0.08 0.15 0.17 0.04 0.01 0.00 0.00 0.00 0.00 0.00 0.00 0.00 0.00 0.00 0.00 0.00 0.00 0.00 0.00
0.58 0.37 0.34 0.37 0.44 0.43 0.37 0.31 0.36 0.65 0.52 0.24 0.37 0.78 1.14 0.64 0.52 0.55 0.65 0.83 0.72 0.50 0.18 0.06 0.06 0.13 0.14 0.19 0.22 0.22 0.24 0.20 0.16 0.08 0.07 0.14 0.05 0.02 0.01 0.00 0.00 0.00 0.00 0.00 0.00 0.00 0.00 0.00 0.00 0.00 0.00 0.00 0.00 0.00
0.38 0.33 0.31 0.38 0.39 0.30 0.21 0.22 0.41 0.43 0.16 0.17 0.26 0.56 0.67 0.66 0.51 0.38 0.40 0.38 0.31 0.18 0.04 0.02 0.05 0.09 0.11 0.24 0.31 0.31 0.28 0.25 0.17 0.08 0.06 0.10 0.04 0.01 0.00 0.00 0.00 0.00 0.00 0.00 0.00 0.00 0.00 0.00 0.00 0.00 0.00 0.00 0.00 0.00
0.35 0.29 0.30 0.25 0.17 0.10 0.09 0.19 0.47 0.15 0.07 0.06 0.18 0.43 0.44 0.33 0.26 0.22 0.19 0.11 0.10 0.06 0.02 0.04 0.05 0.10 0.14 0.12 0.28 0.32 0.38 0.28 0.23 0.24 0.19 0.09 0.06 0.01 0.00 0.00 0.00 0.00 0.00 0.00 0.00 0.00 0.00 0.00 0.00 0.00 0.00 0.00 0.00 0.00
0.34 0.31 0.22 0.19 0.16 0.13 0.15 0.19 0.10 0.03 0.05 0.10 0.20 0.29 0.28 0.22 0.20 0.09 0.09 0.03 0.08 0.06 0.04 0.03 0.09 0.09 0.09 0.08 0.11 0.14 0.25 0.22 0.21 0.30 0.17 0.04 0.01 0.00 0.00 0.00 0.00 0.00 0.00 0.00 0.00 0.00 0.00 0.00 0.00 0.00 0.00 0.00 0.00 0.00
0.10 0.07 0.07 0.08 0.09 0.09 0.08 0.06 0.02 0.01 0.05 0.12 0.19 0.17 0.20 0.15 0.06 0.03 0.07 0.07 0.04 0.03 0.05 0.10 0.18 0.13 0.08 0.08 0.05 0.07 0.04 0.02 0.05 0.07 0.04 0.04 0.00 0.00 0.00 0.00 0.00 0.00 0.00 0.00 0.00 0.00 0.00 0.00 0.00 0.00 0.00 0.00 0.00 0.00
0.05 0.03 0.02 0.03 0.02 0.02 0.01 0.00 0.00 0.01 0.02 0.04 0.07 0.13 0.04 0.06 0.03 0.02 0.01 0.02 0.07 0.11 0.08 0.26 0.52 0.52 0.33 0.19 0.11 0.05 0.05 0.02 0.00 0.01 0.03 0.02 0.01 0.00 0.00 0.00 0.00 0.00 0.00 0.00 0.00 0.00 0.00 0.00 0.00 0.00 0.00 0.00 0.00 0.00
0.01 0.02 0.03 0.02 0.02 0.01 0.00 0.01 0.01 0.02 0.01 0.01 0.03 0.06 0.04 0.08 0.06 0.04 0.05 0.03 0.06 0.23 0.29 0.29 0.33 0.29 0.26 0.15 0.15 0.03 0.01 0.01 0.03 0.03 0.04 0.03 0.03 0.00 0.01 0.01 0.00 0.00 0.00 0.00 0.00 0.00 0.00 0.00 0.00 0.00 0.00 0.00 0.00 0.00
0.01 0.02 0.01 0.00 0.00 0.00 0.00 0.01 0.03 0.02 0.01 0.01 0.04 0.03 0.03 0.13 0.13 0.10 0.12 0.09 0.13 0.30 0.24 0.27 0.32 0.08 0.04 0.07 0.06 0.02 0.05 0.05 0.05 0.04 0.04 0.03 0.04 0.03 0.04 0.03 0.00 0.00 0.00 0.00 0.00 0.00 0.00 0.00 0.00 0.00 0.00 0.00 0.00 0.00
0.01 0.00 0.00 0.00 0.00 0.00 0.00 0.00 0.01 0.00 0.01 0.03 0.08 0.05 0.02 0.05 0.09 0.12 0.14 0.15 0.32 0.44 0.30 0.31 0.10 0.07 0.07 0.11 0.07 0.05 0.07 0.07 0.04 0.02 0.02 0.03 0.04 0.05 0.06 0.05 0.03 0.02 0.01 0.00 0.00 0.00 0.00 0.00 0.00 0.00 0.00 0.00 0.00 0.00
0.01 0.00 0.00 0.00 0.00 0.01 0.02 0.00 0.01 0.01 0.02 0.02 0.02 0.02 0.03 0.05 0.06 0.18 0.21 0.19 0.29 0.41 0.32 0.17 0.16 0.06 0.06 0.09 0.08 0.08 0.07 0.05 0.03 0.01 0.02 0.03 0.04 0.05 0.06 0.07 0.07 0.05 0.04 0.03 0.01 0.01 0.02 0.02 0.02 0.01 0.01 0.01 0.01 0.01
0.00 0.00 0.00 0.00 0.00 0.00 0.00 0.00 0.00 0.01 0.01 0.01 0.02 0.01 0.02 0.04 0.03 0.07 0.14 0.18 0.23 0.19 0.11 0.07 0.05 0.06 0.06 0.08 0.08 0.08 0.08 0.06 0.05 0.05 0.04 0.04 0.04 0.03 0.02 0.02 0.02 0.02 0.02 0.02 0.02 0.02 0.02 0.01 0.01 0.00 0.01 0.02 0.02 0.03
0.00 0.00 0.00 0.00 0.00 0.00 0.00 0.00 0.01 0.00 0.00 0.01 0.01 0.01 0.01 0.00 0.01 0.01 0.01 0.04 0.13 0.18 0.14 0.10 0.09 0.11 0.10 0.10 0.10 0.09 0.08 0.06 0.05 0.03 0.04 0.05 0.05 0.01 0.01 0.01 0.00 0.00 0.01 0.00 0.01 0.01 0.01 0.01 0.00 0.00 0.00 0.00 0.01 0.01
0.00 0.00 0.00 0.00 0.00 0.00 0.00 0.00 0.00 0.00 0.01 0.01 0.01 0.01 0.03 0.03 0.01 0.00 0.00 0.00 0.04 0.08 0.10 0.08 0.08 0.07 0.06 0.07 0.06 0.03 0.03 0.02 0.02 0.02 0.02 0.02 0.03 0.03 0.03 0.04 0.03 0.02 0.02 0.02 0.02 0.01 0.01 0.01 0.00 0.00 0.00 0.00 0.00 0.00
0.00 0.00 0.00 0.00 0.00 0.00 0.00 0.00 0.00 0.01 0.00 0.01 0.01 0.02 0.01 0.01 0.00 0.00 0.00 0.01 0.03 0.08 0.07 0.03 0.04 0.03 0.02 0.02 0.01 0.01 0.00 0.00 0.00 0.00 0.01 0.02 0.02 0.02 0.02 0.02 0.02 0.03 0.03 0.04 0.05 0.07 0.04 0.02 0.01 0.01 0.01 0.00 0.00 0.01
0.00 0.00 0.00 0.00 0.00 0.00 0.00 0.00 0.00 0.00 0.00 0.00 0.01 0.00 0.01 0.00 0.00 0.00 0.01 0.02 0.04 0.04 0.02 0.02 0.01 0.02 0.02 0.03 0.03 0.03 0.02 0.00 0.00 0.00 0.01 0.01 0.02 0.02 0.01 0.02 0.03 0.04 0.05 0.06 0.04 0.06 0.04 0.04 0.03 0.02 0.02 0.02 0.02 0.02
0.00 0.00 0.00 0.00 0.00 0.00 0.00 0.00 0.00 0.00 0.00 0.00 0.00 0.00 0.00 0.00 0.00 0.00 0.01 0.03 0.03 0.05 0.04 0.03 0.02 0.03 0.04 0.04 0.04 0.03 0.01 0.00 0.01 0.01 0.01 0.02 0.03 0.08 0.06 0.04 0.03 0.04 0.04 0.05 0.05 0.05 0.04 0.03 0.03 0.02 0.02 0.03 0.03 0.03
0.00 0.00 0.00 0.00 0.00 0.00 0.00 0.00 0.01 0.00 0.00 0.00 0.00 0.00 0.00 0.00 0.00 0.01 0.04 0.08 0.08 0.06 0.06 0.07 0.05 0.03 0.03 0.02 0.01 0.00 0.00 0.00 0.01 0.02 0.02 0.01 0.02 0.03 0.04 0.05 0.07 0.04 0.02 0.04 0.04 0.03 0.02 0.01 0.01 0.01 0.01 0.04 0.05 0.04
0.00 0.00 0.00 0.00 0.00 0.00 0.00 0.01 0.00 0.00 0.00 0.01 0.02 0.00 0.00 0.00 0.01 0.04 0.05 0.07 0.08 0.07 0.04 0.03 0.02 0.02 0.02 0.01 0.00 0.01 0.00 0.00 0.02 0.03 0.03 0.02 0.01 0.01 0.02 0.02 0.03 0.04 0.02 0.02 0.02 0.02 0.03 0.02 0.02 0.02 0.04 0.08 0.05 0.04
0.00 0.00 0.00 0.00 0.00 0.00 0.00 0.00 0.00 0.01 0.03 0.03 0.05 0.05 0.03 0.03 0.04 0.05 0.05 0.06 0.05 0.04 0.02 0.02 0.02 0.03 0.03 0.03 0.02 0.01 0.02 0.05 0.05 0.05 0.03 0.04 0.02 0.01 0.01 0.02 0.02 0.01 0.01 0.01 0.01 0.01 0.02 0.02 0.03 0.04 0.07 0.04 0.04 0.06
0.00 0.01 0.00 0.00 0.00 0.00 0.01 0.04 0.06 0.06 0.05 0.03 0.04 0.07 0.06 0.05 0.07 0.06 0.04 0.03 0.03 0.03 0.03 0.03 0.03 0.04 0.03 0.02 0.01 0.02 0.03 0.05 0.08 0.09 0.08 0.13 0.12 0.06 0.01 0.01 0.01 0.01 0.01 0.01 0.00 0.01 0.02 0.04 0.05 0.05 0.05 0.03 0.03 0.06
0.00 0.00 0.00 0.01 0.00 0.01 0.05 0.05 0.07 0.04 0.02 0.02 0.02 0.02 0.02 0.03 0.05 0.05 0.05 0.05 0.06 0.08 0.09 0.05 0.05 0.07 0.06 0.05 0.03 0.03 0.04 0.05 0.06 0.05 0.06 0.07 0.07 0.05 0.02 0.01 0.01 0.01 0.01 0.01 0.01 0.01 0.02 0.05 0.07 0.04 0.05 0.05 0.06 0.08
0.01 0.02 0.04 0.04 0.04 0.10 0.09 0.03 0.04 0.03 0.03 0.03 0.03 0.05 0.04 0.05 0.06 0.04 0.04 0.06 0.06 0.07 0.07 0.06 0.06 0.07 0.06 0.07 0.07 0.06 0.08 0.06 0.04 0.05 0.05 0.06 0.05 0.03 0.02 0.01 0.01 0.01 0.01 0.01 0.01 0.01 0.02 0.03 0.04 0.05 0.06 0.07 0.08 0.08
0.03 0.08 0.11 0.07 0.08 0.11 0.11 0.13 0.12 0.10 0.06 0.07 0.06 0.05 0.07 0.07 0.06 0.05 0.04 0.07 0.08 0.07 0.08 0.08 0.08 0.08 0.07 0.07 0.06 0.05 0.05 0.04 0.03 0.03 0.03 0.03 0.03 0.03 0.03 0.01 0.01 0.01 0.01 0.01 0.01 0.01 0.01 0.02 0.04 0.06 0.07 0.08 0.08 0.08
0.02 0.03 0.07 0.09 0.08 0.12 0.17 0.18 0.16 0.12 0.09 0.07 0.06 0.06 0.07 0.08 0.06 0.05 0.03 0.07 0.10 0.11 0.10 0.09 0.08 0.09 0.09 0.08 0.06 0.05 0.04 0.03 0.03 0.03 0.02 0.02 0.01 0.01 0.01 0.01 0.01 0.01 0.01 0.01 0.02 0.02 0.02 0.02 0.03 0.04 0.04 0.05 0.05 0.04

GFSWCAN_prec_precacc24_174.txt.gz
Total_Precipitation_Accumulation
0.13 0.32 0.36 0.27 0.44 0.91 0.47 0.40 0.36 0.29 0.30 0.25 0.17 0.12 0.14 0.19 0.26 0.30 0.27 0.23 0.43 0.52 0.16 0.06 0.04 0.05 0.05 0.06 0.07 0.09 0.21 0.13 0.11 0.20 0.32 0.19 0.07 0.04 0.04 0.05 0.10 0.10 0.23 0.20 0.24 0.34 0.14 0.01 0.04 0.09 0.11 0.10 0.02 0.01
0.22 0.27 0.48 0.28 0.35 0.69 0.44 0.40 0.42 0.29 0.27 0.24 0.19 0.14 0.14 0.19 0.23 0.36 0.40 0.26 0.36 0.68 0.27 0.02 0.01 0.01 0.02 0.04 0.14 0.18 0.17 0.14 0.09 0.06 0.07 0.12 0.13 0.13 0.14 0.11 0.13 0.15 0.11 0.13 0.10 0.13 0.11 0.08 0.05 0.04 0.02 0.01 0.00 0.00
0.15 0.26 0.68 0.35 0.33 0.56 0.43 0.40 0.41 0.29 0.29 0.28 0.19 0.16 0.16 0.19 0.25 0.36 0.42 0.32 0.53 0.68 0.32 0.06 0.00 0.00 0.01 0.02 0.07 0.21 0.11 0.07 0.14 0.19 0.24 0.26 0.23 0.15 0.18 0.15 0.21 0.18 0.20 0.37 0.45 0.24 0.10 0.09 0.07 0.03 0.02 0.01 0.00 0.00
0.11 0.25 0.81 0.45 0.39 0.49 0.43 0.44 0.43 0.24 0.18 0.27 0.20 0.15 0.16 0.19 0.29 0.35 0.43 0.51 0.60 0.56 0.30 0.03 0.00 0.00 0.00 0.02 0.04 0.08 0.13 0.16 0.14 0.21 0.28 0.22 0.17 0.12 0.11 0.13 0.15 0.17 0.25 0.39 0.32 0.11 0.04 0.03 0.03 0.02 0.01 0.01 0.00 0.00
0.13 0.33 0.79 0.47 0.40 0.40 0.40 0.46 0.43 0.25 0.15 0.22 0.17 0.14 0.18 0.22 0.32 0.46 0.44 0.59 0.58 0.50 0.29 0.05 0.01 0.00 0.00 0.00 0.01 0.07 0.21 0.30 0.32 0.34 0.31 0.13 0.04 0.08 0.05 0.05 0.02 0.01 0.04 0.09 0.07 0.10 0.05 0.02 0.03 0.01 0.00 0.00 0.00 0.00
0.16 0.41 0.67 0.51 0.37 0.31 0.37 0.47 0.41 0.25 0.17 0.25 0.22 0.19 0.22 0.30 0.46 0.88 1.05 0.59 0.55 0.69 0.62 0.19 0.03 0.03 0.04 0.04 0.06 0.10 0.19 0.31 0.41 0.39 0.28 0.15 0.03 0.09 0.14 0.03 0.00 0.00 0.01 0.01 0.03 0.02 0.03 0.06 0.07 0.04 0.00 0.00 0.00 0.00
0.36 0.51 0.65 0.41 0.30 0.31 0.44 0.45 0.36 0.23 0.25 0.34 0.26 0.20 0.23 0.31 0.50 0.73 0.60 0.20 0.20 0.51 0.73 0.28 0.08 0.11 0.06 0.15 0.20 0.19 0.23 0.27 0.26 0.28 0.24 0.11 0.06 0.17 0.28 0.04 0.01 0.00 0.01 0.01 0.05 0.04 0.01 0.00 0.00 0.00 0.00 0.00 0.00 0.00
0.50 0.56 0.56 0.33 0.30 0.41 0.50 0.40 0.30 0.27 0.38 0.46 0.31 0.24 0.38 0.59 0.73 0.50 0.20 0.26 0.46 0.61 0.33 0.22 0.12 0.19 0.10 0.17 0.18 0.14 0.20 0.21 0.30 0.31 0.20 0.07 0.08 0.15 0.17 0.04 0.01 0.00 0.00 0.00 0.00 0.00 0.00 0.00 0.00 0.00 0.00 0.00 0.00 0.00
0.65 0.64 0.38 0.31 0.39 0.45 0.41 0.34 0.30 0.36 0.68 0.49 0.39 0.61 1.08 1.03 0.73 0.47 0.28 0.43 0.80 0.96 0.53 0.14 0.09 0.15 0.10 0.18 0.13 0.17 0.21 0.36 0.29 0.21 0.09 0.09 0.16 0.18 0.04 0.01 0.00 0.00 0.00 0.00 0.00 0.00 0.00 0.00 0.00 0.00 0.00 0.00 0.00 0.00
0.58 0.36 0.32 0.38 0.45 0.44 0.37 0.31 0.35 0.64 0.53 0.31 0.48 0.96 1.17 0.59 0.49 0.58 0.78 0.98 0.97 0.78 0.30 0.07 0.06 0.13 0.14 0.19 0.22 0.22 0.24 0.22 0.19 0.08 0.08 0.19 0.07 0.02 0.01 0.00 0.00 0.00 0.00 0.00 0.00 0.00 0.00 0.00 0.00 0.00 0.00 0.00 0.00 0.00
0.37 0.30 0.31 0.38 0.39 0.30 0.21 0.23 0.43 0.46 0.24 0.34 0.41 0.55 0.61 0.65 0.58 0.51 0.58 0.54 0.42 0.26 0.07 0.02 0.05 0.09 0.11 0.24 0.31 0.31 0.30 0.28 0.19 0.08 0.07 0.11 0.04 0.01 0.00 0.00 0.00 0.00 0.00 0.00 0.00 0.00 0.00 0.00 0.00 0.00 0.00 0.00 0.00 0.00
0.31 0.27 0.30 0.26 0.18 0.11 0.09 0.19 0.51 0.25 0.17 0.14 0.22 0.59 0.55 0.48 0.42 0.32 0.27 0.13 0.11 0.06 0.02 0.04 0.05 0.10 0.14 0.12 0.28 0.33 0.39 0.34 0.28 0.26 0.23 0.09 0.06 0.01 0.00 0.00 0.00 0.00 0.00 0.00 0.00 0.00 0.00 0.00 0.00 0.00 0.00 0.00 0.00 0.00
0.33 0.31 0.23 0.20 0.16 0.13 0.16 0.23 0.18 0.13 0.10 0.15 0.35 0.54 0.33 0.31 0.27 0.11 0.10 0.04 0.08 0.06 0.04 0.03 0.10 0.09 0.09 0.08 0.12 0.14 0.25 0.24 0.28 0.41 0.20 0.04 0.01 0.01 0.01 0.01 0.02 0.01 0.00 0.00 0.00 0.00 0.00 0.00 0.00 0.00 0.00 0.00 0.00 0.00
0.11 0.09 0.09 0.10 0.13 0.16 0.17 0.13 0.12 0.13 0.17 0.23 0.32 0.21 0.20 0.15 0.06 0.03 0.07 0.07 0.04 0.03 0.05 0.10 0.18 0.13 0.08 0.08 0.06 0.08 0.04 0.02 0.07 0.11 0.06 0.04 0.03 0.02 0.01 0.01 0.00 0.00 0.00 0.00 0.00 0.00 0.00 0.00 0.00 0.00 0.00 0.00 0.00 0.00
0.06 0.07 0.10 0.13 0.12 0.13 0.11 0.08 0.06 0.06 0.05 0.07 0.07 0.13 0.03 0.05 0.03 0.01 0.01 0.02 0.07 0.11 0.08 0.27 0.56 0.56 0.40 0.24 0.13 0.06 0.06 0.03 0.01 0.01 0.03 0.02 0.02 0.00 0.00 0.00 0.00 0.00 0.00 0.00 0.00 0.00 0.00 0.00 0.00 0.00 0.00 0.00 0.00 0.00
0.03 0.04 0.06 0.06 0.06 0.05 0.02 0.01 0.01 0.02 0.01 0.01 0.02 0.06 0.04 0.08 0.06 0.04 0.04 0.02 0.06 0.23 0.29 0.30 0.36 0.36 0.39 0.27 0.26 0.05 0.01 0.01 0.03 0.03 0.04 0.03 0.03 0.01 0.01 0.02 0.01 0.00 0.00 0.00 0.00 0.00 0.00 0.00 0.00 0.00 0.00 0.00 0.00 0.00
0.02 0.03 0.03 0.02 0.02 0.01 0.00 0.01 0.03 0.02 0.01 0.01 0.04 0.03 0.03 0.13 0.13 0.09 0.10 0.09 0.13 0.30 0.25 0.28 0.34 0.11 0.07 0.12 0.10 0.04 0.05 0.05 0.04 0.04 0.03 0.03 0.04 0.03 0.04 0.03 0.01 0.00 0.00 0.00 0.00 0.00 0.00 0.00 0.00 0.00 0.00 0.00 0.00 0.00
0.01 0.00 0.00 0.00 0.00 0.00 0.00 0.00 0.01 0.00 0.01 0.02 0.08 0.04 0.02 0.04 0.08 0.12 0.13 0.16 0.34 0.46 0.31 0.32 0.13 0.13 0.12 0.13 0.06 0.05 0.06 0.06 0.04 0.02 0.02 0.03 0.04 0.05 0.06 0.06 0.04 0.03 0.02 0.01 0.00 0.00 0.00 0.00 0.00 0.00 0.00 0.00 0.00 0.00
0.01 0.00 0.00 0.00 0.00 0.01 0.02 0.00 0.01 0.01 0.02 0.02 0.02 0.02 0.03 0.04 0.06 0.18 0.22 0.25 0.37 0.49 0.47 0.29 0.23 0.09 0.05 0.08 0.06 0.06 0.06 0.04 0.06 0.05 0.03 0.03 0.05 0.05 0.07 0.08 0.08 0.06 0.05 0.04 0.02 0.01 0.02 0.02 0.02 0.01 0.01 0.01 0.02 0.02
0.00 0.00 0.00 0.00 0.00 0.00 0.00 0.00 0.00 0.01 0.01 0.01 0.02 0.01 0.02 0.03 0.03 0.08 0.16 0.27 0.37 0.38 0.29 0.20 0.12 0.06 0.04 0.06 0.05 0.05 0.05 0.04 0.05 0.05 0.05 0.06 0.05 0.03 0.03 0.02 0.03 0.03 0.02 0.02 0.02 0.03 0.02 0.01 0.01 0.01 0.01 0.02 0.02 0.03
0.00 0.00 0.00 0.00 0.00 0.00 0.00 0.00 0.01 0.00 0.00 0.01 0.01 0.01 0.01 0.00 0.01 0.01 0.02 0.07 0.21 0.27 0.24 0.19 0.14 0.13 0.08 0.06 0.06 0.06 0.06 0.05 0.04 0.03 0.03 0.05 0.06 0.02 0.02 0.01 0.01 0.01 0.01 0.01 0.01 0.02 0.01 0.01 0.01 0.00 0.00 0.01 0.01 0.01
0.00 0.00 0.00 0.00 0.00 0.00 0.00 0.00 0.00 0.00 0.01 0.01 0.01 0.01 0.03 0.03 0.01 0.00 0.00 0.00 0.05 0.12 0.14 0.13 0.13 0.12 0.11 0.12 0.11 0.06 0.05 0.03 0.02 0.02 0.02 0.02 0.03 0.03 0.04 0.05 0.03 0.03 0.02 0.02 0.03 0.02 0.01 0.01 0.00 0.00 0.00 0.00 0.00 0.00
0.00 0.00 0.00 0.00 0.00 0.00 0.00 0.00 0.00 0.01 0.01 0.01 0.01 0.02 0.02 0.02 0.00 0.00 0.00 0.01 0.02 0.08 0.08 0.06 0.07 0.06 0.05 0.06 0.05 0.05 0.04 0.03 0.02 0.01 0.02 0.02 0.03 0.03 0.03 0.03 0.03 0.03 0.04 0.05 0.06 0.07 0.04 0.03 0.01 0.01 0.01 0.00 0.00 0.01
0.00 0.00 0.00 0.00 0.00 0.00 0.00 0.00 0.00 0.00 0.00 0.00 0.01 0.00 0.01 0.01 0.01 0.00 0.01 0.02 0.04 0.04 0.03 0.03 0.02 0.03 0.05 0.06 0.07 0.08 0.07 0.03 0.02 0.02 0.02 0.01 0.01 0.02 0.01 0.02 0.02 0.03 0.05 0.07 0.04 0.06 0.04 0.04 0.03 0.02 0.02 0.01 0.02 0.03
0.00 0.00 0.00 0.00 0.00 0.00 0.00 0.00 0.00 0.00 0.00 0.00 0.00 0.00 0.00 0.00 0.00 0.01 0.02 0.03 0.04 0.07 0.07 0.04 0.02 0.04 0.06 0.08 0.09 0.09 0.06 0.02 0.00 0.01 0.02 0.01 0.03 0.08 0.05 0.03 0.02 0.02 0.02 0.03 0.04 0.04 0.04 0.03 0.02 0.01 0.01 0.02 0.03 0.03
0.00 0.00 0.00 0.00 0.00 0.00 0.00 0.00 0.01 0.01 0.00 0.00 0.00 0.00 0.00 0.00 0.00 0.02 0.04 0.08 0.09 0.07 0.07 0.08 0.06 0.05 0.05 0.04 0.04 0.03 0.02 0.00 0.01 0.02 0.02 0.01 0.02 0.02 0.03 0.04 0.06 0.02 0.01 0.02 0.03 0.02 0.02 0.01 0.01 0.01 0.01 0.04 0.04 0.03
0.00 0.00 0.00 0.00 0.00 0.00 0.00 0.01 0.00 0.00 0.01 0.02 0.03 0.02 0.01 0.00 0.01 0.04 0.05 0.08 0.09 0.08 0.05 0.04 0.03 0.03 0.03 0.03 0.02 0.01 0.01 0.01 0.02 0.02 0.02 0.01 0.02 0.02 0.01 0.02 0.02 0.03 0.02 0.01 0.02 0.02 0.02 0.02 0.02 0.02 0.04 0.08 0.05 0.03
0.00 0.00 0.00 0.00 0.00 0.00 0.00 0.00 0.01 0.02 0.04 0.04 0.06 0.06 0.05 0.04 0.06 0.06 0.07 0.07 0.06 0.05 0.02 0.02 0.03 0.03 0.03 0.03 0.02 0.02 0.03 0.05 0.05 0.04 0.03 0.04 0.02 0.01 0.01 0.01 0.01 0.01 0.00 0.01 0.01 0.01 0.02 0.02 0.03 0.04 0.07 0.04 0.03 0.05
0.00 0.01 0.00 0.00 0.00 0.00 0.02 0.05 0.07 0.07 0.05 0.04 0.04 0.07 0.07 0.06 0.07 0.06 0.04 0.03 0.03 0.04 0.03 0.03 0.03 0.04 0.03 0.03 0.02 0.03 0.04 0.06 0.07 0.08 0.08 0.13 0.12 0.07 0.02 0.01 0.01 0.01 0.01 0.01 0.01 0.01 0.02 0.03 0.04 0.05 0.05 0.03 0.03 0.04
0.00 0.00 0.00 0.00 0.00 0.01 0.05 0.05 0.07 0.04 0.02 0.02 0.01 0.01 0.02 0.03 0.05 0.05 0.05 0.05 0.06 0.08 0.08 0.05 0.05 0.07 0.06 0.06 0.04 0.03 0.05 0.05 0.06 0.06 0.07 0.07 0.07 0.05 0.02 0.01 0.01 0.01 0.01 0.01 0.01 0.01 0.02 0.04 0.06 0.04 0.04 0.04 0.04 0.05
0.00 0.02 0.04 0.04 0.04 0.10 0.09 0.03 0.04 0.03 0.04 0.04 0.04 0.05 0.05 0.05 0.06 0.04 0.04 0.06 0.06 0.07 0.08 0.07 0.07 0.08 0.08 0.08 0.08 0.07 0.08 0.06 0.05 0.05 0.05 0.06 0.05 0.03 0.02 0.02 0.01 0.01 0.01 0.01 0.01 0.01 0.02 0.02 0.03 0.04 0.05 0.06 0.06 0.07
0.02 0.06 0.09 0.06 0.07 0.10 0.09 0.11 0.11 0.09 0.07 0.07 0.06 0.06 0.07 0.07 0.06 0.04 0.04 0.07 0.09 0.08 0.09 0.09 0.09 0.09 0.09 0.08 0.07 0.06 0.04 0.04 0.03 0.03 0.03 0.03 0.03 0.03 0.03 0.01 0.01 0.01 0.01 0.01 0.01 0.01 0.01 0.02 0.03 0.04 0.06 0.06 0.06 0.06
0.01 0.01 0.03 0.06 0.06 0.10 0.15 0.15 0.13 0.11 0.08 0.07 0.06 0.06 0.07 0.08 0.06 0.04 0.03 0.07 0.11 0.11 0.11 0.09 0.09 0.09 0.09 0.07 0.06 0.04 0.03 0.03 0.03 0.02 0.02 0.02 0.02 0.01 0.01 0.01 0.01 0.01 0.01 0.01 0.01 0.01 0.02 0.02 0.02 0.03 0.03 0.03 0.04 0.03

GFSWCAN_prec_precacc24_180.txt.gz
Total_Precipitation_Accumulation
0.11 0.11 0.11 0.09 0.17 0.28 0.23 0.25 0.29 0.25 0.28 0.24 0.17 0.12 0.14 0.18 0.23 0.28 0.25 0.21 0.41 0.47 0.15 0.06 0.04 0.04 0.06 0.07 0.10 0.13 0.20 0.11 0.12 0.23 0.28 0.19 0.13 0.08 0.05 0.05 0.10 0.08 0.16 0.14 0.13 0.22 0.12 0.01 0.04 0.10 0.13 0.11 0.03 0.02
0.19 0.14 0.11 0.14 0.19 0.27 0.22 0.28 0.35 0.27 0.27 0.24 0.19 0.14 0.14 0.18 0.20 0.33 0.36 0.23 0.33 0.62 0.24 0.01 0.01 0.01 0.01 0.03 0.11 0.15 0.18 0.18 0.17 0.13 0.10 0.13 0.13 0.14 0.13 0.10 0.13 0.13 0.10 0.13 0.10 0.12 0.12 0.08 0.05 0.05 0.03 0.01 0.01 0.01
0.13 0.16 0.21 0.22 0.25 0.36 0.27 0.30 0.36 0.27 0.28 0.28 0.19 0.16 0.14 0.17 0.20 0.31 0.39 0.29 0.40 0.56 0.29 0.06 0.00 0.00 0.01 0.01 0.05 0.16 0.11 0.15 0.27 0.34 0.45 0.39 0.27 0.16 0.19 0.15 0.21 0.18 0.23 0.41 0.48 0.25 0.12 0.10 0.07 0.04 0.03 0.02 0.01 0.01
0.11 0.13 0.45 0.33 0.35 0.43 0.39 0.40 0.41 0.23 0.18 0.27 0.19 0.14 0.15 0.18 0.23 0.27 0.38 0.48 0.45 0.35 0.19 0.03 0.00 0.00 0.00 0.00 0.02 0.04 0.06 0.16 0.23 0.35 0.46 0.47 0.31 0.16 0.12 0.14 0.16 0.18 0.27 0.40 0.33 0.11 0.05 0.03 0.03 0.03 0.03 0.03 0.02 0.01
0.09 0.18 0.57 0.38 0.43 0.49 0.47 0.51 0.44 0.24 0.14 0.21 0.16 0.14 0.17 0.21 0.29 0.40 0.39 0.57 0.56 0.41 0.19 0.03 0.00 0.00 0.00 0.00 0.00 0.02 0.09 0.17 0.32 0.44 0.43 0.24 0.10 0.11 0.07 0.06 0.03 0.01 0.04 0.09 0.07 0.10 0.05 0.02 0.03 0.01 0.00 0.00 0.00 0.00
0.13 0.33 0.59 0.49 0.39 0.39 0.50 0.62 0.49 0.25 0.16 0.24 0.22 0.18 0.20 0.28 0.43 0.78 0.88 0.53 0.54 0.63 0.49 0.13 0.01 0.00 0.01 0.02 0.01 0.03 0.05 0.15 0.36 0.42 0.32 0.21 0.09 0.15 0.16 0.04 0.00 0.00 0.01 0.01 0.03 0.02 0.03 0.06 0.07 0.04 0.00 0.00 0.00 0.00
0.37 0.52 0.66 0.42 0.31 0.31 0.45 0.53 0.44 0.27 0.24 0.33 0.25 0.18 0.21 0.31 0.44 0.60 0.52 0.17 0.15 0.36 0.48 0.21 0.04 0.01 0.00 0.05 0.06 0.07 0.14 0.24 0.23 0.31 0.29 0.13 0.05 0.13 0.21 0.03 0.01 0.00 0.01 0.01 0.05 0.04 0.01 0.00 0.00 0.00 0.00 0.00 0.00 0.00
0.51 0.58 0.57 0.34 0.31 0.41 0.47 0.42 0.32 0.28 0.35 0.45 0.32 0.25 0.37 0.52 0.58 0.39 0.17 0.18 0.29 0.38 0.23 0.15 0.05 0.04 0.02 0.06 0.11 0.12 0.20 0.29 0.40 0.35 0.21 0.06 0.08 0.14 0.16 0.03 0.01 0.00 0.00 0.00 0.00 0.00 0.00 0.00 0.00 0.00 0.00 0.00 0.00 0.00
0.65 0.64 0.39 0.31 0.39 0.44 0.40 0.35 0.32 0.38 0.70 0.54 0.43 0.56 0.83 0.81 0.53 0.31 0.14 0.23 0.57 1.06 0.73 0.19 0.04 0.07 0.06 0.13 0.14 0.25 0.32 0.48 0.35 0.23 0.09 0.10 0.16 0.18 0.04 0.01 0.00 0.00 0.00 0.00 0.00 0.00 0.00 0.00 0.00 0.00 0.00 0.00 0.00 0.00
0.58 0.36 0.31 0.34 0.41 0.43 0.38 0.32 0.39 0.69 0.62 0.40 0.48 0.82 0.93 0.39 0.23 0.33 0.48 0.68 0.69 0.63 0.38 0.18 0.10 0.14 0.12 0.20 0.27 0.28 0.31 0.26 0.22 0.09 0.09 0.22 0.07 0.02 0.01 0.00 0.00 0.00 0.00 0.00 0.00 0.00 0.00 0.00 0.00 0.00 0.00 0.00 0.00 0.00
0.31 0.24 0.25 0.30 0.38 0.31 0.24 0.25 0.46 0.50 0.33 0.43 0.45 0.38 0.36 0.37 0.43 0.45 0.63 0.67 0.41 0.27 0.09 0.02 0.02 0.08 0.12 0.37 0.44 0.34 0.32 0.29 0.22 0.09 0.08 0.12 0.04 0.01 0.00 0.00 0.00 0.00 0.00 0.00 0.00 0.00 0.00 0.00 0.00 0.00 0.00 0.00 0.00 0.00
0.23 0.22 0.24 0.24 0.19 0.15 0.13 0.22 0.50 0.26 0.18 0.14 0.21 0.54 0.67 0.70 0.44 0.38 0.35 0.25 0.27 0.12 0.03 0.02 0.02 0.04 0.11 0.13 0.34 0.40 0.42 0.36 0.30 0.29 0.29 0.10 0.06 0.01 0.00 0.00 0.00 0.00 0.00 0.00 0.00 0.00 0.00 0.00 0.00 0.00 0.00 0.00 0.00 0.00
0.26 0.27 0.23 0.20 0.17 0.16 0.19 0.26 0.21 0.13 0.08 0.13 0.35 0.81 0.78 0.42 0.35 0.16 0.15 0.09 0.11 0.08 0.04 0.02 0.06 0.07 0.10 0.11 0.17 0.19 0.28 0.25 0.29 0.43 0.21 0.04 0.01 0.02 0.03 0.03 0.05 0.08 0.13 0.14 0.11 0.06 0.02 0.00 0.00 0.00 0.00 0.00 0.00 0.00
0.11 0.09 0.10 0.11 0.13 0.19 0.20 0.16 0.16 0.17 0.20 0.33 0.40 0.39 0.34 0.21 0.12 0.06 0.08 0.08 0.05 0.04 0.05 0.11 0.20 0.14 0.10 0.11 0.10 0.10 0.05 0.03 0.09 0.12 0.06 0.04 0.03 0.03 0.03 0.03 0.07 0.12 0.12 0.07 0.02 0.00 0.00 0.00 0.00 0.00 0.00 0.00 0.00 0.00
0.06 0.08 0.12 0.15 0.13 0.16 0.15 0.13 0.12 0.13 0.18 0.37 0.42 0.29 0.06 0.05 0.04 0.04 0.01 0.02 0.08 0.11 0.08 0.28 0.59 0.58 0.43 0.27 0.14 0.07 0.07 0.04 0.01 0.01 0.03 0.02 0.01 0.01 0.01 0.02 0.05 0.08 0.02 0.00 0.00 0.00 0.00 0.00 0.00 0.00 0.00 0.00 0.00 0.00
0.06 0.13 0.16 0.12 0.11 0.11 0.11 0.11 0.15 0.20 0.20 0.17 0.24 0.20 0.05 0.07 0.05 0.02 0.02 0.01 0.06 0.23 0.31 0.33 0.39 0.42 0.47 0.34 0.36 0.08 0.01 0.01 0.03 0.02 0.02 0.01 0.01 0.01 0.02 0.03 0.04 0.04 0.00 0.00 0.00 0.00 0.00 0.00 0.00 0.00 0.00 0.00 0.00 0.00
0.08 0.11 0.13 0.10 0.08 0.07 0.09 0.16 0.24 0.19 0.14 0.12 0.06 0.06 0.04 0.12 0.10 0.05 0.06 0.08 0.13 0.31 0.27 0.31 0.37 0.12 0.09 0.17 0.13 0.04 0.04 0.04 0.02 0.02 0.01 0.01 0.01 0.03 0.06 0.07 0.05 0.01 0.00 0.00 0.00 0.00 0.00 0.00 0.00 0.00 0.00 0.00 0.00 0.00
0.07 0.04 0.07 0.06 0.11 0.19 0.26 0.20 0.20 0.14 0.05 0.03 0.08 0.03 0.01 0.02 0.05 0.07 0.08 0.15 0.34 0.48 0.33 0.36 0.16 0.17 0.14 0.14 0.06 0.04 0.04 0.04 0.03 0.02 0.03 0.03 0.03 0.06 0.09 0.09 0.07 0.06 0.05 0.04 0.03 0.01 0.00 0.00 0.00 0.01 0.01 0.01 0.00 0.00
0.02 0.03 0.06 0.08 0.12 0.16 0.21 0.19 0.17 0.12 0.04 0.02 0.02 0.01 0.02 0.03 0.04 0.15 0.21 0.25 0.38 0.55 0.60 0.42 0.30 0.12 0.05 0.06 0.05 0.03 0.03 0.03 0.06 0.08 0.08 0.08 0.08 0.08 0.10 0.11 0.11 0.10 0.08 0.06 0.03 0.02 0.02 0.03 0.02 0.02 0.02 0.02 0.02 0.02
0.00 0.00 0.00 0.00 0.00 0.00 0.01 0.01 0.01 0.01 0.01 0.01 0.02 0.01 0.01 0.02 0.02 0.08 0.17 0.30 0.43 0.52 0.46 0.32 0.16 0.07 0.05 0.05 0.05 0.04 0.04 0.05 0.07 0.10 0.12 0.13 0.11 0.07 0.07 0.05 0.05 0.05 0.04 0.04 0.03 0.03 0.03 0.02 0.01 0.01 0.01 0.02 0.03 0.04
0.00 0.00 0.00 0.00 0.00 0.00 0.00 0.00 0.01 0.00 0.00 0.01 0.01 0.01 0.01 0.01 0.01 0.02 0.03 0.11 0.31 0.36 0.33 0.28 0.24 0.25 0.20 0.17 0.17 0.14 0.13 0.11 0.11 0.09 0.09 0.11 0.11 0.05 0.05 0.05 0.03 0.02 0.02 0.02 0.02 0.03 0.02 0.02 0.02 0.01 0.00 0.01 0.01 0.01
0.00 0.00 0.00 0.00 0.00 0.00 0.00 0.00 0.00 0.00 0.01 0.01 0.01 0.01 0.03 0.03 0.01 0.01 0.01 0.01 0.09 0.17 0.22 0.22 0.24 0.23 0.23 0.25 0.26 0.22 0.17 0.12 0.09 0.07 0.07 0.06 0.06 0.07 0.07 0.09 0.05 0.04 0.03 0.03 0.04 0.03 0.02 0.01 0.01 0.00 0.00 0.01 0.00 0.00
0.00 0.00 0.00 0.00 0.00 0.00 0.00 0.00 0.00 0.01 0.01 0.02 0.02 0.03 0.04 0.09 0.10 0.06 0.03 0.03 0.05 0.11 0.13 0.12 0.13 0.14 0.15 0.18 0.19 0.19 0.17 0.14 0.12 0.11 0.09 0.08 0.07 0.06 0.05 0.05 0.04 0.03 0.04 0.05 0.06 0.07 0.05 0.03 0.01 0.01 0.01 0.01 0.01 0.01
0.00 0.00 0.00 0.00 0.00 0.00 0.00 0.00 0.00 0.00 0.00 0.00 0.02 0.01 0.01 0.02 0.03 0.03 0.03 0.03 0.06 0.07 0.08 0.08 0.07 0.08 0.12 0.15 0.16 0.18 0.18 0.14 0.11 0.10 0.11 0.07 0.05 0.05 0.02 0.02 0.02 0.02 0.03 0.05 0.03 0.05 0.03 0.04 0.02 0.01 0.01 0.01 0.01 0.02
0.00 0.00 0.00 0.00 0.00 0.00 0.00 0.00 0.00 0.00 0.00 0.00 0.00 0.00 0.01 0.01 0.01 0.02 0.03 0.04 0.05 0.08 0.09 0.07 0.05 0.07 0.10 0.14 0.18 0.19 0.16 0.11 0.07 0.07 0.08 0.05 0.05 0.09 0.06 0.03 0.01 0.01 0.00 0.01 0.01 0.02 0.02 0.01 0.01 0.01 0.01 0.02 0.02 0.02
0.00 0.00 0.00 0.00 0.00 0.00 0.00 0.00 0.02 0.02 0.01 0.00 0.01 0.00 0.01 0.02 0.02 0.03 0.05 0.09 0.10 0.09 0.08 0.10 0.08 0.07 0.08 0.08 0.09 0.10 0.10 0.07 0.07 0.07 0.06 0.05 0.04 0.04 0.04 0.04 0.05 0.02 0.01 0.01 0.02 0.01 0.01 0.01 0.01 0.01 0.01 0.04 0.04 0.02
0.00 0.00 0.00 0.00 0.00 0.00 0.00 0.01 0.00 0.01 0.02 0.04 0.04 0.03 0.03 0.05 0.05 0.06 0.06 0.09 0.11 0.10 0.07 0.06 0.05 0.05 0.05 0.06 0.06 0.06 0.06 0.05 0.06 0.07 0.06 0.05 0.06 0.05 0.03 0.03 0.03 0.02 0.01 0.01 0.01 0.01 0.02 0.02 0.02 0.02 0.04 0.08 0.04 0.01
0.00 0.00 0.00 0.00 0.00 0.00 0.01 0.01 0.01 0.03 0.05 0.05 0.07 0.07 0.06 0.07 0.08 0.08 0.08 0.09 0.08 0.06 0.04 0.04 0.05 0.06 0.06 0.07 0.07 0.06 0.07 0.07 0.04 0.04 0.04 0.07 0.06 0.04 0.03 0.02 0.01 0.00 0.00 0.01 0.01 0.01 0.01 0.01 0.02 0.04 0.07 0.03 0.01 0.02
0.00 0.01 0.00 0.00 0.00 0.00 0.02 0.06 0.08 0.07 0.05 0.03 0.04 0.07 0.07 0.07 0.08 0.06 0.04 0.03 0.03 0.05 0.05 0.04 0.04 0.04 0.04 0.04 0.04 0.05 0.07 0.08 0.09 0.09 0.09 0.14 0.14 0.09 0.03 0.01 0.01 0.01 0.01 0.01 0.01 0.02 0.02 0.02 0.03 0.03 0.04 0.02 0.02 0.02
0.00 0.00 0.00 0.00 0.00 0.01 0.05 0.05 0.07 0.03 0.01 0.01 0.01 0.01 0.02 0.03 0.04 0.04 0.05 0.05 0.07 0.09 0.09 0.06 0.06 0.08 0.07 0.06 0.04 0.04 0.05 0.06 0.07 0.07 0.08 0.08 0.08 0.06 0.03 0.01 0.01 0.01 0.01 0.01 0.01 0.02 0.02 0.03 0.04 0.02 0.02 0.03 0.02 0.02
0.00 0.01 0.03 0.04 0.04 0.10 0.09 0.02 0.02 0.02 0.04 0.04 0.04 0.05 0.04 0.04 0.05 0.03 0.04 0.06 0.07 0.07 0.08 0.07 0.08 0.10 0.09 0.09 0.09 0.08 0.08 0.07 0.05 0.06 0.07 0.08 0.07 0.05 0.03 0.02 0.02 0.02 0.01 0.01 0.01 0.01 0.01 0.01 0.01 0.01 0.02 0.03 0.03 0.03
0.01 0.02 0.03 0.02 0.05 0.07 0.03 0.06 0.07 0.07 0.06 0.07 0.06 0.05 0.06 0.06 0.05 0.03 0.03 0.07 0.09 0.08 0.09 0.09 0.09 0.10 0.10 0.09 0.08 0.07 0.05 0.05 0.04 0.04 0.04 0.05 0.05 0.04 0.04 0.02 0.02 0.01 0.01 0.01 0.01 0.01 0.01 0.01 0.01 0.01 0.02 0.02 0.03 0.03
0.00 0.01 0.01 0.02 0.02 0.06 0.10 0.07 0.07 0.09 0.08 0.07 0.05 0.05 0.06 0.07 0.05 0.03 0.03 0.07 0.10 0.11 0.11 0.09 0.09 0.09 0.08 0.07 0.05 0.04 0.03 0.04 0.04 0.03 0.03 0.03 0.03 0.02 0.01 0.02 0.01 0.01 0.01 0.01 0.01 0.01 0.01 0.00 0.01 0.01 0.01 0.01 0.01 0.01

GFSWCAN_prec_precacc24_183.txt.gz
Total_Precipitation_Accumulation
0.11 0.10 0.10 0.07 0.07 0.08 0.16 0.16 0.11 0.07 0.10 0.20 0.17 0.12 0.14 0.18 0.22 0.27 0.22 0.18 0.38 0.47 0.15 0.06 0.04 0.04 0.06 0.07 0.11 0.15 0.19 0.13 0.15 0.26 0.32 0.21 0.13 0.09 0.07 0.04 0.10 0.10 0.16 0.13 0.12 0.19 0.09 0.01 0.04 0.11 0.12 0.11 0.03 0.03
0.18 0.13 0.11 0.10 0.07 0.07 0.10 0.17 0.19 0.14 0.14 0.21 0.19 0.14 0.14 0.18 0.20 0.31 0.32 0.20 0.31 0.60 0.23 0.01 0.01 0.01 0.01 0.03 0.10 0.13 0.18 0.16 0.21 0.19 0.19 0.21 0.15 0.14 0.13 0.10 0.13 0.12 0.09 0.10 0.07 0.09 0.09 0.08 0.05 0.05 0.03 0.01 0.01 0.01
0.14 0.17 0.18 0.14 0.11 0.09 0.09 0.17 0.21 0.16 0.24 0.27 0.19 0.16 0.14 0.17 0.20 0.29 0.35 0.25 0.36 0.55 0.29 0.06 0.00 0.00 0.01 0.01 0.04 0.14 0.11 0.15 0.27 0.36 0.44 0.44 0.31 0.18 0.22 0.17 0.21 0.18 0.23 0.41 0.48 0.25 0.12 0.10 0.07 0.04 0.03 0.02 0.01 0.01
0.15 0.12 0.16 0.22 0.19 0.15 0.14 0.20 0.26 0.15 0.16 0.26 0.19 0.14 0.14 0.18 0.22 0.25 0.36 0.44 0.42 0.34 0.18 0.02 0.00 0.00 0.00 0.00 0.02 0.03 0.06 0.14 0.23 0.36 0.51 0.53 0.31 0.15 0.14 0.16 0.17 0.18 0.26 0.39 0.34 0.11 0.05 0.03 0.03 0.03 0.03 0.03 0.02 0.01
0.18 0.13 0.14 0.21 0.23 0.26 0.24 0.32 0.33 0.21 0.14 0.21 0.16 0.13 0.15 0.19 0.27 0.36 0.34 0.52 0.53 0.41 0.19 0.03 0.00 0.00 0.00 0.00 0.00 0.02 0.07 0.13 0.26 0.36 0.39 0.24 0.10 0.11 0.08 0.06 0.03 0.01 0.04 0.10 0.07 0.08 0.05 0.02 0.03 0.01 0.00 0.00 0.00 0.00
0.10 0.14 0.26 0.29 0.19 0.24 0.34 0.52 0.44 0.25 0.16 0.24 0.20 0.16 0.18 0.26 0.40 0.73 0.80 0.49 0.51 0.63 0.47 0.14 0.00 0.00 0.01 0.01 0.00 0.00 0.02 0.10 0.28 0.33 0.26 0.19 0.10 0.19 0.21 0.07 0.01 0.00 0.01 0.01 0.03 0.01 0.03 0.06 0.07 0.04 0.00 0.00 0.00 0.00
0.15 0.20 0.45 0.29 0.22 0.22 0.35 0.48 0.48 0.38 0.31 0.33 0.24 0.17 0.20 0.30 0.41 0.58 0.49 0.18 0.14 0.38 0.47 0.21 0.03 0.00 0.00 0.03 0.04 0.04 0.09 0.15 0.17 0.19 0.18 0.09 0.05 0.16 0.21 0.04 0.00 0.00 0.01 0.01 0.05 0.04 0.01 0.00 0.00 0.00 0.00 0.00 0.00 0.00
0.37 0.48 0.53 0.31 0.30 0.41 0.47 0.42 0.33 0.32 0.47 0.46 0.31 0.24 0.36 0.51 0.57 0.39 0.17 0.17 0.25 0.33 0.23 0.15 0.04 0.04 0.01 0.02 0.08 0.08 0.13 0.21 0.33 0.32 0.23 0.08 0.09 0.17 0.16 0.01 0.00 0.00 0.00 0.00 0.00 0.00 0.00 0.00 0.00 0.00 0.00 0.00 0.00 0.00
0.67 0.65 0.39 0.31 0.39 0.44 0.41 0.36 0.32 0.38 0.69 0.54 0.43 0.53 0.75 0.72 0.50 0.31 0.14 0.24 0.58 0.96 0.64 0.20 0.03 0.04 0.05 0.06 0.12 0.19 0.27 0.44 0.37 0.29 0.12 0.14 0.17 0.18 0.02 0.00 0.00 0.00 0.00 0.00 0.00 0.00 0.00 0.00 0.00 0.00 0.00 0.00 0.00 0.00
0.59 0.36 0.31 0.34 0.41 0.43 0.39 0.32 0.38 0.68 0.62 0.41 0.48 0.77 0.82 0.36 0.22 0.33 0.47 0.65 0.62 0.56 0.34 0.17 0.09 0.11 0.07 0.15 0.26 0.29 0.40 0.36 0.30 0.11 0.10 0.26 0.07 0.02 0.01 0.00 0.00 0.00 0.00 0.00 0.00 0.00 0.00 0.00 0.00 0.00 0.00 0.00 0.00 0.00
0.31 0.24 0.25 0.30 0.38 0.33 0.26 0.25 0.46 0.51 0.34 0.45 0.45 0.38 0.36 0.31 0.41 0.42 0.55 0.57 0.36 0.22 0.08 0.01 0.01 0.06 0.09 0.29 0.47 0.46 0.42 0.34 0.25 0.11 0.10 0.13 0.04 0.01 0.00 0.00 0.00 0.00 0.00 0.00 0.00 0.00 0.00 0.00 0.00 0.00 0.00 0.00 0.00 0.00
0.23 0.22 0.23 0.24 0.20 0.16 0.15 0.23 0.52 0.28 0.19 0.14 0.21 0.54 0.63 0.62 0.44 0.32 0.30 0.23 0.26 0.09 0.02 0.01 0.01 0.01 0.01 0.08 0.34 0.59 0.56 0.40 0.32 0.33 0.32 0.11 0.06 0.01 0.00 0.00 0.00 0.00 0.00 0.00 0.00 0.00 0.00 0.00 0.00 0.00 0.00 0.00 0.00 0.00
0.24 0.25 0.23 0.21 0.19 0.17 0.20 0.27 0.21 0.16 0.11 0.13 0.29 0.75 0.74 0.35 0.35 0.15 0.13 0.09 0.10 0.09 0.07 0.04 0.04 0.02 0.05 0.10 0.21 0.26 0.31 0.28 0.30 0.44 0.22 0.04 0.01 0.02 0.03 0.03 0.05 0.08 0.13 0.15 0.13 0.08 0.03 0.01 0.00 0.00 0.00 0.00 0.00 0.00
0.08 0.09 0.10 0.12 0.15 0.19 0.20 0.16 0.16 0.20 0.24 0.31 0.36 0.36 0.33 0.27 0.10 0.06 0.07 0.09 0.08 0.06 0.06 0.14 0.21 0.15 0.11 0.14 0.15 0.15 0.08 0.04 0.10 0.13 0.06 0.05 0.04 0.03 0.03 0.03 0.07 0.13 0.16 0.13 0.07 0.02 0.00 0.00 0.00 0.00 0.00 0.00 0.00 0.01
0.06 0.08 0.12 0.15 0.14 0.16 0.16 0.14 0.12 0.15 0.19 0.37 0.43 0.28 0.07 0.06 0.06 0.11 0.07 0.04 0.09 0.13 0.10 0.37 0.70 0.66 0.50 0.35 0.16 0.10 0.10 0.05 0.01 0.01 0.04 0.03 0.01 0.01 0.01 0.02 0.05 0.09 0.07 0.02 0.00 0.00 0.00 0.00 0.00 0.00 0.00 0.00 0.00 0.00
0.06 0.14 0.16 0.12 0.11 0.11 0.12 0.12 0.17 0.24 0.22 0.18 0.24 0.24 0.14 0.14 0.08 0.04 0.02 0.02 0.07 0.24 0.33 0.36 0.46 0.46 0.51 0.36 0.38 0.08 0.02 0.01 0.03 0.05 0.05 0.01 0.01 0.01 0.02 0.03 0.04 0.04 0.01 0.00 0.00 0.00 0.00 0.00 0.00 0.00 0.00 0.00 0.00 0.00
0.08 0.12 0.13 0.10 0.09 0.10 0.12 0.18 0.26 0.21 0.15 0.14 0.07 0.08 0.13 0.21 0.16 0.07 0.06 0.08 0.15 0.33 0.29 0.36 0.41 0.15 0.12 0.21 0.16 0.07 0.06 0.06 0.06 0.04 0.01 0.01 0.01 0.02 0.05 0.07 0.06 0.03 0.01 0.00 0.00 0.00 0.00 0.00 0.00 0.00 0.00 0.00 0.00 0.00
0.09 0.05 0.08 0.06 0.11 0.22 0.33 0.22 0.26 0.19 0.07 0.03 0.09 0.06 0.05 0.04 0.04 0.05 0.08 0.15 0.36 0.51 0.38 0.43 0.21 0.21 0.16 0.15 0.08 0.10 0.09 0.05 0.02 0.02 0.02 0.02 0.02 0.05 0.07 0.10 0.10 0.09 0.08 0.06 0.04 0.01 0.00 0.00 0.01 0.01 0.01 0.01 0.00 0.00
0.09 0.13 0.16 0.14 0.17 0.22 0.32 0.27 0.21 0.19 0.10 0.07 0.04 0.02 0.02 0.02 0.03 0.12 0.20 0.25 0.39 0.56 0.62 0.45 0.33 0.14 0.07 0.09 0.06 0.03 0.03 0.03 0.05 0.08 0.08 0.08 0.07 0.08 0.10 0.12 0.14 0.14 0.11 0.09 0.05 0.02 0.03 0.03 0.02 0.02 0.02 0.02 0.02 0.03
0.01 0.05 0.12 0.15 0.12 0.16 0.20 0.14 0.12 0.10 0.06 0.03 0.01 0.01 0.01 0.01 0.01 0.07 0.16 0.30 0.44 0.56 0.52 0.38 0.19 0.10 0.05 0.05 0.05 0.04 0.04 0.05 0.08 0.11 0.14 0.16 0.14 0.11 0.11 0.09 0.09 0.09 0.08 0.07 0.04 0.04 0.03 0.02 0.01 0.01 0.01 0.02 0.03 0.04
0.00 0.00 0.00 0.03 0.07 0.06 0.05 0.02 0.03 0.03 0.02 0.02 0.01 0.01 0.01 0.01 0.01 0.02 0.03 0.12 0.39 0.45 0.40 0.31 0.25 0.25 0.20 0.17 0.17 0.15 0.14 0.12 0.15 0.13 0.14 0.17 0.19 0.12 0.12 0.10 0.07 0.06 0.05 0.05 0.04 0.04 0.02 0.02 0.02 0.01 0.01 0.01 0.01 0.01
0.00 0.00 0.00 0.00 0.02 0.02 0.01 0.00 0.01 0.02 0.02 0.03 0.03 0.03 0.06 0.04 0.02 0.03 0.04 0.09 0.16 0.19 0.23 0.24 0.26 0.24 0.24 0.25 0.28 0.25 0.20 0.15 0.13 0.12 0.13 0.13 0.16 0.15 0.15 0.15 0.09 0.08 0.07 0.06 0.06 0.05 0.03 0.01 0.01 0.01 0.01 0.01 0.00 0.00
0.00 0.00 0.00 0.00 0.00 0.00 0.00 0.00 0.01 0.02 0.03 0.05 0.05 0.07 0.08 0.13 0.12 0.10 0.10 0.06 0.06 0.12 0.14 0.14 0.15 0.15 0.16 0.20 0.22 0.23 0.21 0.19 0.17 0.16 0.15 0.13 0.12 0.11 0.09 0.09 0.07 0.05 0.05 0.07 0.07 0.08 0.04 0.03 0.01 0.01 0.01 0.01 0.01 0.01
0.00 0.00 0.00 0.00 0.00 0.00 0.00 0.00 0.00 0.01 0.02 0.02 0.04 0.03 0.04 0.04 0.03 0.05 0.06 0.04 0.06 0.07 0.08 0.08 0.07 0.08 0.13 0.17 0.18 0.21 0.22 0.19 0.16 0.15 0.15 0.11 0.08 0.08 0.05 0.04 0.03 0.03 0.03 0.05 0.02 0.03 0.02 0.03 0.02 0.01 0.01 0.01 0.01 0.02
0.00 0.00 0.00 0.00 0.00 0.00 0.00 0.00 0.00 0.00 0.01 0.01 0.01 0.01 0.03 0.01 0.04 0.05 0.04 0.04 0.05 0.09 0.10 0.08 0.05 0.07 0.11 0.15 0.20 0.21 0.19 0.14 0.12 0.11 0.13 0.09 0.08 0.12 0.09 0.05 0.03 0.02 0.01 0.01 0.01 0.01 0.01 0.00 0.01 0.00 0.01 0.01 0.02 0.02
0.00 0.00 0.00 0.00 0.00 0.00 0.00 0.00 0.02 0.03 0.01 0.00 0.02 0.01 0.02 0.04 0.04 0.05 0.06 0.10 0.10 0.09 0.09 0.10 0.09 0.08 0.09 0.09 0.10 0.11 0.11 0.09 0.09 0.09 0.09 0.08 0.07 0.06 0.06 0.06 0.07 0.03 0.01 0.01 0.01 0.01 0.01 0.00 0.00 0.00 0.01 0.03 0.04 0.01
0.00 0.00 0.00 0.00 0.00 0.00 0.00 0.01 0.00 0.01 0.02 0.04 0.05 0.03 0.04 0.06 0.06 0.07 0.07 0.09 0.11 0.10 0.07 0.06 0.06 0.06 0.06 0.07 0.07 0.07 0.07 0.06 0.07 0.08 0.08 0.08 0.08 0.07 0.06 0.06 0.05 0.05 0.02 0.01 0.02 0.02 0.02 0.01 0.01 0.01 0.03 0.07 0.03 0.01
0.00 0.00 0.00 0.00 0.00 0.00 0.01 0.01 0.01 0.03 0.06 0.05 0.07 0.07 0.07 0.08 0.10 0.08 0.08 0.08 0.07 0.06 0.04 0.04 0.05 0.06 0.07 0.07 0.08 0.08 0.08 0.08 0.05 0.04 0.05 0.08 0.08 0.07 0.06 0.04 0.03 0.02 0.02 0.01 0.01 0.01 0.01 0.01 0.02 0.03 0.05 0.03 0.01 0.01
0.00 0.01 0.00 0.00 0.00 0.00 0.03 0.06 0.08 0.07 0.05 0.03 0.04 0.07 0.08 0.07 0.08 0.06 0.04 0.03 0.03 0.05 0.05 0.04 0.05 0.05 0.05 0.04 0.04 0.05 0.07 0.09 0.10 0.10 0.10 0.14 0.13 0.10 0.05 0.03 0.03 0.03 0.02 0.02 0.01 0.02 0.02 0.01 0.02 0.02 0.03 0.02 0.02 0.01
0.00 0.00 0.00 0.00 0.00 0.00 0.05 0.05 0.07 0.03 0.01 0.01 0.01 0.02 0.02 0.03 0.04 0.04 0.04 0.05 0.06 0.08 0.09 0.07 0.06 0.08 0.07 0.06 0.05 0.04 0.05 0.07 0.07 0.08 0.09 0.10 0.08 0.07 0.04 0.02 0.02 0.03 0.02 0.02 0.01 0.02 0.02 0.02 0.03 0.01 0.02 0.02 0.01 0.01
0.00 0.01 0.02 0.03 0.03 0.09 0.07 0.01 0.01 0.02 0.04 0.04 0.04 0.05 0.04 0.04 0.04 0.03 0.04 0.05 0.06 0.07 0.08 0.07 0.08 0.10 0.10 0.10 0.09 0.09 0.09 0.07 0.06 0.07 0.08 0.09 0.08 0.05 0.04 0.03 0.03 0.03 0.02 0.01 0.01 0.01 0.01 0.01 0.01 0.01 0.01 0.01 0.01 0.02
0.00 0.01 0.02 0.01 0.02 0.05 0.01 0.03 0.04 0.06 0.05 0.06 0.05 0.04 0.05 0.06 0.04 0.03 0.03 0.06 0.08 0.08 0.09 0.09 0.09 0.09 0.10 0.09 0.08 0.07 0.05 0.05 0.04 0.05 0.05 0.06 0.06 0.05 0.04 0.03 0.02 0.02 0.02 0.01 0.01 0.00 0.00 0.00 0.00 0.00 0.01 0.01 0.01 0.02
0.00 0.00 0.01 0.01 0.01 0.04 0.06 0.03 0.05 0.08 0.07 0.06 0.04 0.04 0.04 0.05 0.03 0.02 0.03 0.06 0.09 0.10 0.10 0.09 0.09 0.09 0.08 0.06 0.05 0.04 0.03 0.04 0.04 0.04 0.04 0.04 0.04 0.03 0.02 0.02 0.02 0.01 0.01 0.01 0.00 0.00 0.00 0.00 0.00 0.00 0.00 0.00 0.01 0.01

GFSWCAN_prec_precacc24_186.txt.gz
Total_Precipitation_Accumulation
0.15 0.12 0.10 0.06 0.05 0.06 0.04 0.04 0.05 0.04 0.04 0.04 0.02 0.01 0.03 0.09 0.19 0.23 0.16 0.17 0.39 0.47 0.14 0.06 0.04 0.04 0.07 0.09 0.13 0.15 0.19 0.15 0.19 0.28 0.32 0.23 0.15 0.09 0.07 0.03 0.07 0.12 0.23 0.22 0.24 0.26 0.11 0.02 0.02 0.08 0.11 0.11 0.03 0.03
0.18 0.13 0.10 0.10 0.06 0.06 0.06 0.05 0.06 0.06 0.05 0.03 0.02 0.02 0.04 0.10 0.18 0.28 0.25 0.18 0.29 0.59 0.23 0.01 0.01 0.01 0.01 0.03 0.10 0.12 0.16 0.18 0.27 0.28 0.27 0.27 0.22 0.17 0.15 0.11 0.12 0.14 0.12 0.11 0.08 0.09 0.04 0.07 0.05 0.05 0.03 0.01 0.01 0.01
0.14 0.17 0.17 0.13 0.10 0.08 0.06 0.07 0.09 0.12 0.14 0.08 0.03 0.03 0.07 0.13 0.19 0.28 0.30 0.22 0.35 0.54 0.29 0.06 0.00 0.00 0.01 0.01 0.04 0.13 0.10 0.15 0.26 0.37 0.43 0.43 0.28 0.17 0.21 0.18 0.21 0.17 0.22 0.42 0.47 0.25 0.12 0.09 0.06 0.04 0.03 0.02 0.01 0.01
0.15 0.12 0.16 0.21 0.17 0.13 0.10 0.09 0.10 0.08 0.07 0.13 0.08 0.08 0.12 0.16 0.21 0.23 0.31 0.39 0.39 0.34 0.18 0.02 0.00 0.00 0.00 0.00 0.02 0.03 0.05 0.14 0.22 0.35 0.50 0.51 0.31 0.14 0.11 0.14 0.15 0.16 0.24 0.40 0.35 0.10 0.04 0.03 0.03 0.03 0.03 0.03 0.02 0.01
0.18 0.13 0.10 0.13 0.19 0.22 0.18 0.18 0.12 0.09 0.06 0.12 0.12 0.11 0.14 0.17 0.24 0.33 0.28 0.45 0.48 0.40 0.19 0.04 0.00 0.00 0.00 0.00 0.00 0.02 0.07 0.13 0.23 0.33 0.37 0.23 0.09 0.10 0.06 0.05 0.03 0.01 0.03 0.08 0.04 0.03 0.05 0.02 0.04 0.01 0.00 0.00 0.00 0.00
0.12 0.14 0.08 0.07 0.10 0.16 0.25 0.36 0.24 0.11 0.11 0.20 0.18 0.14 0.15 0.23 0.36 0.66 0.68 0.45 0.47 0.61 0.49 0.14 0.00 0.00 0.00 0.00 0.00 0.00 0.01 0.08 0.23 0.32 0.25 0.18 0.10 0.18 0.19 0.06 0.01 0.00 0.01 0.02 0.01 0.00 0.02 0.05 0.08 0.04 0.00 0.00 0.00 0.00
0.09 0.12 0.12 0.06 0.06 0.08 0.19 0.29 0.30 0.30 0.27 0.31 0.21 0.15 0.16 0.27 0.37 0.53 0.44 0.20 0.14 0.39 0.49 0.22 0.02 0.00 0.00 0.02 0.03 0.02 0.06 0.12 0.16 0.19 0.15 0.07 0.05 0.17 0.17 0.04 0.00 0.00 0.00 0.00 0.04 0.04 0.01 0.00 0.00 0.00 0.00 0.00 0.00 0.00
0.10 0.19 0.22 0.17 0.10 0.21 0.27 0.22 0.23 0.33 0.47 0.44 0.29 0.21 0.31 0.45 0.54 0.37 0.16 0.17 0.24 0.36 0.26 0.15 0.03 0.02 0.00 0.02 0.10 0.13 0.15 0.20 0.27 0.21 0.13 0.06 0.08 0.19 0.16 0.00 0.00 0.00 0.00 0.00 0.00 0.00 0.00 0.00 0.00 0.00 0.00 0.00 0.00 0.00
0.43 0.37 0.18 0.17 0.28 0.33 0.30 0.30 0.30 0.39 0.71 0.53 0.40 0.50 0.70 0.68 0.48 0.30 0.12 0.22 0.54 0.94 0.62 0.20 0.03 0.03 0.07 0.11 0.16 0.19 0.30 0.40 0.28 0.22 0.09 0.15 0.16 0.20 0.03 0.00 0.00 0.00 0.00 0.00 0.00 0.00 0.00 0.00 0.00 0.00 0.00 0.00 0.00 0.01
0.53 0.30 0.25 0.29 0.38 0.41 0.38 0.34 0.39 0.68 0.62 0.41 0.47 0.76 0.78 0.34 0.22 0.33 0.45 0.57 0.56 0.51 0.33 0.16 0.07 0.07 0.08 0.14 0.24 0.35 0.50 0.35 0.32 0.12 0.12 0.30 0.09 0.01 0.01 0.00 0.00 0.00 0.00 0.00 0.00 0.00 0.00 0.00 0.00 0.00 0.00 0.01 0.00 0.00
0.32 0.24 0.25 0.30 0.38 0.33 0.26 0.26 0.46 0.51 0.35 0.47 0.46 0.38 0.37 0.29 0.41 0.42 0.53 0.54 0.35 0.22 0.08 0.01 0.00 0.03 0.06 0.20 0.32 0.37 0.39 0.40 0.35 0.17 0.16 0.14 0.04 0.01 0.00 0.00 0.00 0.00 0.00 0.00 0.00 0.00 0.00 0.00 0.00 0.00 0.01 0.01 0.00 0.00
0.23 0.22 0.23 0.25 0.20 0.17 0.16 0.24 0.52 0.28 0.20 0.16 0.24 0.60 0.64 0.60 0.45 0.30 0.26 0.22 0.26 0.09 0.01 0.02 0.01 0.00 0.01 0.04 0.23 0.55 0.57 0.48 0.39 0.42 0.38 0.11 0.06 0.03 0.01 0.01 0.00 0.00 0.00 0.00 0.00 0.00 0.00 0.00 0.00 0.00 0.00 0.00 0.00 0.00
0.24 0.25 0.23 0.22 0.19 0.18 0.20 0.27 0.21 0.17 0.14 0.17 0.31 0.75 0.72 0.33 0.32 0.16 0.10 0.07 0.06 0.07 0.06 0.06 0.10 0.09 0.08 0.10 0.18 0.25 0.43 0.35 0.33 0.47 0.22 0.04 0.04 0.02 0.03 0.03 0.05 0.08 0.13 0.15 0.14 0.10 0.05 0.03 0.02 0.02 0.02 0.01 0.00 0.00
0.08 0.08 0.11 0.12 0.15 0.19 0.20 0.16 0.16 0.22 0.31 0.35 0.34 0.33 0.31 0.25 0.10 0.06 0.04 0.07 0.10 0.08 0.09 0.18 0.26 0.19 0.14 0.17 0.18 0.17 0.09 0.06 0.11 0.13 0.06 0.06 0.06 0.03 0.03 0.03 0.07 0.13 0.16 0.14 0.10 0.07 0.06 0.03 0.01 0.00 0.01 0.01 0.01 0.02
0.05 0.07 0.12 0.15 0.15 0.16 0.16 0.14 0.12 0.16 0.24 0.39 0.44 0.25 0.07 0.06 0.07 0.13 0.11 0.08 0.13 0.19 0.18 0.40 0.67 0.67 0.55 0.41 0.18 0.12 0.12 0.05 0.01 0.01 0.08 0.09 0.01 0.01 0.01 0.02 0.05 0.09 0.07 0.03 0.02 0.02 0.00 0.00 0.00 0.00 0.01 0.00 0.00 0.00
0.06 0.13 0.15 0.11 0.10 0.11 0.12 0.12 0.17 0.27 0.26 0.19 0.25 0.22 0.15 0.14 0.12 0.16 0.16 0.09 0.10 0.24 0.34 0.42 0.56 0.51 0.58 0.41 0.41 0.09 0.02 0.01 0.05 0.12 0.14 0.03 0.01 0.01 0.02 0.02 0.04 0.05 0.02 0.01 0.00 0.00 0.00 0.00 0.00 0.00 0.00 0.00 0.00 0.00
0.08 0.11 0.13 0.11 0.11 0.12 0.14 0.20 0.26 0.23 0.15 0.14 0.06 0.08 0.12 0.17 0.17 0.12 0.11 0.10 0.17 0.32 0.27 0.41 0.47 0.17 0.16 0.25 0.19 0.09 0.08 0.10 0.11 0.08 0.02 0.01 0.01 0.02 0.04 0.07 0.06 0.03 0.03 0.03 0.01 0.00 0.01 0.00 0.00 0.00 0.00 0.00 0.00 0.00
0.08 0.05 0.08 0.06 0.12 0.25 0.36 0.25 0.26 0.20 0.08 0.02 0.06 0.06 0.06 0.05 0.05 0.04 0.08 0.17 0.38 0.49 0.39 0.47 0.28 0.26 0.20 0.16 0.11 0.15 0.12 0.06 0.03 0.02 0.02 0.02 0.02 0.04 0.06 0.08 0.10 0.10 0.10 0.09 0.07 0.04 0.04 0.03 0.02 0.02 0.02 0.01 0.01 0.01
0.10 0.16 0.21 0.15 0.19 0.24 0.35 0.31 0.22 0.20 0.10 0.08 0.04 0.03 0.02 0.01 0.02 0.10 0.20 0.25 0.41 0.58 0.63 0.47 0.37 0.15 0.10 0.12 0.07 0.03 0.03 0.03 0.05 0.08 0.08 0.08 0.07 0.08 0.09 0.11 0.14 0.15 0.15 0.14 0.10 0.07 0.07 0.06 0.05 0.03 0.03 0.02 0.03 0.03
0.06 0.17 0.28 0.27 0.15 0.19 0.24 0.19 0.15 0.12 0.06 0.03 0.02 0.01 0.02 0.01 0.00 0.05 0.16 0.29 0.45 0.58 0.55 0.41 0.22 0.13 0.06 0.05 0.05 0.04 0.04 0.05 0.08 0.11 0.15 0.18 0.15 0.11 0.12 0.12 0.13 0.13 0.13 0.12 0.10 0.08 0.06 0.04 0.03 0.02 0.02 0.03 0.03 0.04
0.01 0.01 0.04 0.19 0.20 0.14 0.18 0.17 0.11 0.08 0.06 0.04 0.03 0.03 0.02 0.01 0.01 0.02 0.03 0.12 0.42 0.51 0.47 0.37 0.28 0.26 0.21 0.17 0.17 0.15 0.14 0.13 0.16 0.15 0.17 0.21 0.20 0.14 0.16 0.16 0.13 0.13 0.11 0.11 0.10 0.09 0.05 0.05 0.04 0.02 0.02 0.01 0.01 0.01
0.01 0.00 0.02 0.02 0.07 0.08 0.05 0.03 0.02 0.04 0.04 0.04 0.04 0.06 0.07 0.07 0.05 0.05 0.06 0.14 0.24 0.23 0.23 0.25 0.27 0.24 0.24 0.26 0.28 0.26 0.21 0.16 0.14 0.13 0.15 0.16 0.19 0.20 0.20 0.22 0.17 0.16 0.13 0.11 0.10 0.08 0.06 0.04 0.02 0.01 0.01 0.01 0.00 0.00
0.00 0.00 0.04 0.04 0.03 0.01 0.01 0.00 0.01 0.03 0.06 0.06 0.07 0.10 0.13 0.20 0.16 0.10 0.13 0.09 0.08 0.12 0.15 0.15 0.15 0.16 0.17 0.20 0.23 0.23 0.22 0.22 0.21 0.19 0.18 0.17 0.17 0.17 0.15 0.16 0.13 0.10 0.09 0.10 0.10 0.10 0.06 0.03 0.01 0.01 0.01 0.01 0.01 0.02
0.00 0.00 0.00 0.00 0.00 0.00 0.00 0.00 0.00 0.03 0.03 0.03 0.06 0.05 0.07 0.07 0.04 0.06 0.10 0.06 0.06 0.08 0.08 0.08 0.07 0.09 0.14 0.18 0.19 0.22 0.24 0.22 0.20 0.19 0.20 0.16 0.13 0.14 0.10 0.09 0.08 0.07 0.06 0.06 0.03 0.03 0.02 0.01 0.01 0.01 0.01 0.01 0.01 0.01
0.00 0.00 0.00 0.00 0.00 0.00 0.00 0.00 0.00 0.01 0.01 0.01 0.01 0.01 0.04 0.02 0.05 0.07 0.07 0.06 0.06 0.09 0.10 0.08 0.06 0.07 0.12 0.16 0.21 0.22 0.20 0.16 0.16 0.15 0.17 0.13 0.13 0.16 0.12 0.08 0.06 0.05 0.05 0.04 0.03 0.02 0.01 0.01 0.00 0.00 0.01 0.01 0.02 0.02
0.00 0.00 0.00 0.00 0.00 0.00 0.00 0.00 0.02 0.03 0.01 0.01 0.02 0.01 0.02 0.05 0.04 0.07 0.07 0.10 0.10 0.09 0.08 0.10 0.09 0.08 0.10 0.09 0.11 0.12 0.12 0.10 0.12 0.12 0.11 0.11 0.10 0.11 0.08 0.07 0.06 0.05 0.04 0.04 0.04 0.02 0.01 0.01 0.00 0.00 0.01 0.03 0.03 0.01
0.00 0.00 0.00 0.00 0.00 0.00 0.00 0.00 0.00 0.01 0.02 0.04 0.05 0.03 0.04 0.06 0.08 0.08 0.07 0.09 0.10 0.09 0.07 0.06 0.06 0.06 0.07 0.07 0.07 0.07 0.07 0.06 0.08 0.10 0.10 0.10 0.10 0.10 0.09 0.09 0.07 0.08 0.05 0.04 0.04 0.05 0.04 0.03 0.02 0.01 0.02 0.05 0.02 0.01
0.00 0.00 0.00 0.00 0.00 0.00 0.01 0.01 0.01 0.03 0.05 0.05 0.07 0.07 0.07 0.09 0.11 0.08 0.08 0.08 0.06 0.05 0.04 0.04 0.05 0.06 0.07 0.07 0.08 0.08 0.09 0.09 0.07 0.05 0.06 0.08 0.09 0.09 0.08 0.07 0.05 0.04 0.04 0.04 0.04 0.03 0.03 0.02 0.02 0.02 0.03 0.01 0.01 0.01
0.00 0.00 0.00 0.00 0.00 0.00 0.03 0.06 0.08 0.07 0.05 0.03 0.03 0.06 0.08 0.07 0.08 0.05 0.04 0.03 0.03 0.04 0.05 0.04 0.08 0.05 0.07 0.06 0.05 0.05 0.08 0.09 0.10 0.12 0.13 0.15 0.10 0.10 0.07 0.05 0.05 0.04 0.03 0.03 0.03 0.03 0.02 0.02 0.02 0.02 0.02 0.01 0.01 0.01
0.00 0.00 0.00 0.00 0.00 0.00 0.03 0.04 0.07 0.04 0.01 0.01 0.01 0.01 0.02 0.03 0.03 0.03 0.04 0.04 0.05 0.07 0.09 0.07 0.06 0.08 0.08 0.06 0.08 0.05 0.05 0.07 0.08 0.09 0.11 0.13 0.10 0.08 0.05 0.03 0.03 0.03 0.03 0.02 0.01 0.02 0.02 0.01 0.02 0.01 0.01 0.01 0.01 0.01
0.00 0.00 0.01 0.02 0.02 0.06 0.05 0.01 0.01 0.01 0.03 0.03 0.04 0.05 0.04 0.05 0.04 0.02 0.03 0.05 0.06 0.06 0.06 0.07 0.08 0.09 0.09 0.09 0.09 0.09 0.10 0.06 0.06 0.07 0.09 0.10 0.08 0.06 0.04 0.03 0.03 0.03 0.02 0.01 0.01 0.01 0.01 0.00 0.00 0.00 0.00 0.00 0.00 0.01
0.00 0.00 0.00 0.00 0.00 0.02 0.01 0.02 0.02 0.05 0.05 0.05 0.05 0.03 0.04 0.04 0.04 0.03 0.03 0.05 0.07 0.07 0.08 0.08 0.08 0.09 0.09 0.09 0.08 0.07 0.05 0.05 0.04 0.05 0.06 0.07 0.06 0.05 0.05 0.03 0.03 0.02 0.02 0.01 0.01 0.00 0.00 0.00 0.00 0.00 0.00 0.00 0.00 0.00
0.00 0.00 0.00 0.00 0.00 0.01 0.02 0.01 0.02 0.07 0.07 0.06 0.04 0.03 0.03 0.03 0.02 0.02 0.02 0.04 0.07 0.09 0.09 0.08 0.08 0.09 0.08 0.06 0.04 0.04 0.04 0.04 0.04 0.04 0.04 0.04 0.04 0.04 0.03 0.03 0.02 0.01 0.01 0.01 0.01 0.00 0.00 0.00 0.00 0.00 0.00 0.00 0.00 0.00

GFSWCAN_prec_precacc24_189.txt.gz
Total_Precipitation_Accumulation
0.44 0.36 0.27 0.15 0.08 0.05 0.03 0.03 0.03 0.03 0.03 0.03 0.02 0.00 0.00 0.01 0.03 0.12 0.12 0.12 0.31 0.43 0.12 0.05 0.03 0.03 0.06 0.09 0.13 0.14 0.15 0.13 0.21 0.32 0.38 0.25 0.17 0.11 0.07 0.03 0.06 0.11 0.21 0.23 0.27 0.32 0.16 0.05 0.05 0.08 0.12 0.13 0.07 0.04
0.44 0.30 0.17 0.11 0.05 0.04 0.05 0.04 0.04 0.04 0.03 0.03 0.02 0.01 0.01 0.01 0.04 0.12 0.12 0.11 0.21 0.53 0.22 0.01 0.01 0.00 0.01 0.03 0.09 0.11 0.14 0.18 0.33 0.36 0.36 0.37 0.30 0.20 0.18 0.15 0.13 0.17 0.19 0.23 0.16 0.13 0.07 0.09 0.07 0.05 0.02 0.01 0.01 0.01
0.24 0.22 0.18 0.12 0.09 0.06 0.05 0.06 0.05 0.04 0.04 0.03 0.02 0.01 0.01 0.02 0.04 0.13 0.14 0.10 0.30 0.53 0.29 0.06 0.00 0.00 0.01 0.01 0.04 0.13 0.09 0.13 0.26 0.37 0.42 0.42 0.26 0.13 0.19 0.18 0.18 0.15 0.21 0.46 0.47 0.23 0.08 0.02 0.03 0.04 0.03 0.02 0.01 0.01
0.16 0.11 0.14 0.19 0.17 0.12 0.09 0.07 0.07 0.04 0.03 0.02 0.02 0.02 0.02 0.04 0.07 0.13 0.19 0.26 0.35 0.33 0.18 0.02 0.00 0.00 0.00 0.00 0.02 0.03 0.05 0.14 0.22 0.34 0.49 0.48 0.30 0.13 0.09 0.12 0.12 0.12 0.14 0.23 0.26 0.07 0.03 0.01 0.02 0.02 0.03 0.04 0.02 0.01
0.17 0.12 0.09 0.13 0.18 0.21 0.17 0.14 0.08 0.06 0.04 0.02 0.02 0.03 0.04 0.05 0.12 0.23 0.21 0.39 0.42 0.37 0.20 0.04 0.00 0.00 0.00 0.00 0.00 0.02 0.07 0.13 0.22 0.32 0.36 0.22 0.08 0.09 0.06 0.05 0.03 0.01 0.02 0.06 0.04 0.02 0.06 0.02 0.03 0.02 0.01 0.01 0.00 0.00
0.12 0.14 0.08 0.07 0.09 0.15 0.23 0.24 0.17 0.10 0.07 0.05 0.05 0.05 0.05 0.11 0.25 0.56 0.59 0.42 0.41 0.57 0.49 0.14 0.00 0.00 0.00 0.00 0.00 0.00 0.01 0.07 0.22 0.32 0.25 0.19 0.10 0.18 0.19 0.06 0.01 0.00 0.01 0.01 0.01 0.00 0.01 0.00 0.01 0.01 0.01 0.00 0.00 0.00
0.08 0.12 0.11 0.05 0.05 0.07 0.11 0.14 0.21 0.25 0.16 0.11 0.08 0.08 0.10 0.21 0.33 0.50 0.40 0.20 0.13 0.39 0.51 0.22 0.02 0.00 0.00 0.00 0.02 0.02 0.04 0.11 0.14 0.20 0.15 0.07 0.05 0.17 0.14 0.04 0.00 0.00 0.00 0.00 0.00 0.00 0.00 0.00 0.00 0.00 0.00 0.00 0.00 0.00
0.07 0.13 0.17 0.14 0.07 0.09 0.08 0.08 0.11 0.21 0.31 0.32 0.21 0.17 0.27 0.39 0.49 0.34 0.16 0.17 0.24 0.36 0.27 0.16 0.03 0.00 0.00 0.02 0.11 0.14 0.17 0.21 0.25 0.18 0.11 0.06 0.08 0.18 0.12 0.00 0.00 0.00 0.00 0.00 0.00 0.00 0.00 0.00 0.00 0.00 0.00 0.00 0.00 0.00
0.07 0.10 0.15 0.19 0.20 0.17 0.10 0.11 0.13 0.22 0.60 0.44 0.32 0.40 0.56 0.57 0.42 0.23 0.11 0.22 0.54 0.95 0.63 0.20 0.03 0.02 0.07 0.14 0.20 0.25 0.36 0.42 0.27 0.16 0.07 0.13 0.13 0.16 0.02 0.00 0.00 0.00 0.00 0.01 0.01 0.00 0.00 0.00 0.00 0.00 0.00 0.00 0.00 0.01
0.10 0.05 0.09 0.17 0.28 0.23 0.16 0.20 0.28 0.61 0.55 0.34 0.41 0.68 0.69 0.30 0.21 0.32 0.45 0.54 0.52 0.43 0.32 0.15 0.06 0.05 0.08 0.15 0.25 0.32 0.46 0.39 0.34 0.12 0.10 0.24 0.06 0.00 0.00 0.00 0.00 0.00 0.00 0.00 0.00 0.00 0.00 0.00 0.00 0.00 0.01 0.01 0.02 0.01
0.12 0.07 0.09 0.16 0.25 0.23 0.20 0.23 0.46 0.51 0.35 0.47 0.46 0.37 0.38 0.28 0.41 0.43 0.54 0.53 0.31 0.21 0.08 0.01 0.00 0.02 0.04 0.16 0.28 0.29 0.29 0.34 0.37 0.18 0.22 0.21 0.05 0.03 0.06 0.07 0.06 0.06 0.03 0.01 0.00 0.00 0.00 0.00 0.00 0.00 0.01 0.01 0.01 0.00
0.19 0.18 0.19 0.20 0.17 0.16 0.17 0.26 0.52 0.28 0.20 0.16 0.26 0.62 0.65 0.61 0.46 0.30 0.24 0.21 0.26 0.09 0.01 0.03 0.01 0.01 0.02 0.03 0.16 0.39 0.39 0.38 0.31 0.48 0.59 0.15 0.09 0.12 0.08 0.10 0.03 0.01 0.00 0.00 0.00 0.00 0.00 0.00 0.00 0.00 0.00 0.00 0.00 0.00
0.24 0.25 0.23 0.22 0.19 0.19 0.21 0.27 0.22 0.18 0.16 0.19 0.33 0.76 0.71 0.33 0.31 0.16 0.08 0.07 0.06 0.07 0.08 0.09 0.14 0.13 0.11 0.12 0.17 0.21 0.37 0.35 0.35 0.50 0.24 0.04 0.10 0.06 0.03 0.03 0.05 0.08 0.13 0.15 0.14 0.10 0.05 0.03 0.03 0.03 0.03 0.03 0.04 0.03
0.08 0.08 0.11 0.12 0.15 0.20 0.20 0.16 0.17 0.22 0.33 0.38 0.35 0.32 0.31 0.22 0.10 0.06 0.05 0.07 0.10 0.08 0.11 0.21 0.39 0.31 0.22 0.22 0.21 0.16 0.10 0.09 0.13 0.14 0.07 0.10 0.09 0.04 0.03 0.03 0.07 0.13 0.16 0.14 0.10 0.08 0.08 0.07 0.04 0.03 0.03 0.04 0.05 0.07
0.05 0.07 0.11 0.15 0.15 0.16 0.16 0.14 0.12 0.17 0.27 0.41 0.45 0.23 0.07 0.05 0.08 0.15 0.12 0.12 0.12 0.22 0.32 0.44 0.65 0.62 0.53 0.41 0.18 0.13 0.14 0.06 0.01 0.02 0.13 0.15 0.04 0.01 0.01 0.02 0.05 0.09 0.07 0.03 0.02 0.03 0.02 0.00 0.00 0.01 0.02 0.03 0.02 0.01
0.06 0.12 0.14 0.10 0.10 0.11 0.12 0.12 0.17 0.29 0.27 0.21 0.25 0.21 0.14 0.13 0.13 0.17 0.20 0.15 0.09 0.24 0.44 0.61 0.66 0.58 0.58 0.39 0.43 0.11 0.04 0.02 0.09 0.19 0.21 0.14 0.04 0.01 0.01 0.02 0.04 0.05 0.02 0.02 0.02 0.01 0.00 0.00 0.00 0.01 0.00 0.00 0.00 0.00
0.07 0.10 0.11 0.11 0.11 0.13 0.14 0.21 0.25 0.23 0.16 0.13 0.05 0.08 0.11 0.14 0.12 0.11 0.08 0.08 0.15 0.22 0.22 0.41 0.50 0.24 0.21 0.28 0.21 0.14 0.16 0.18 0.19 0.13 0.04 0.01 0.01 0.01 0.04 0.06 0.06 0.04 0.03 0.03 0.02 0.02 0.02 0.02 0.02 0.02 0.02 0.01 0.00 0.00
0.08 0.05 0.08 0.06 0.12 0.25 0.37 0.27 0.27 0.20 0.08 0.02 0.04 0.05 0.07 0.05 0.03 0.03 0.06 0.14 0.32 0.38 0.33 0.40 0.29 0.29 0.25 0.21 0.17 0.28 0.20 0.09 0.04 0.02 0.02 0.02 0.02 0.04 0.05 0.07 0.09 0.10 0.11 0.10 0.08 0.06 0.06 0.06 0.05 0.06 0.05 0.04 0.02 0.02
0.11 0.17 0.21 0.15 0.19 0.24 0.35 0.32 0.22 0.20 0.10 0.07 0.04 0.03 0.02 0.01 0.01 0.07 0.16 0.24 0.36 0.49 0.63 0.48 0.37 0.16 0.12 0.12 0.06 0.02 0.02 0.02 0.05 0.08 0.08 0.07 0.07 0.07 0.08 0.10 0.13 0.16 0.16 0.16 0.12 0.11 0.12 0.11 0.09 0.08 0.08 0.06 0.07 0.06
0.07 0.21 0.33 0.29 0.17 0.23 0.25 0.21 0.16 0.12 0.05 0.03 0.02 0.01 0.02 0.00 0.00 0.04 0.14 0.30 0.46 0.60 0.58 0.43 0.23 0.13 0.06 0.05 0.05 0.04 0.04 0.05 0.07 0.10 0.14 0.18 0.14 0.11 0.12 0.12 0.15 0.15 0.16 0.16 0.15 0.13 0.10 0.08 0.07 0.07 0.07 0.07 0.06 0.06
0.03 0.04 0.09 0.33 0.26 0.20 0.20 0.23 0.19 0.10 0.08 0.04 0.04 0.05 0.03 0.02 0.01 0.01 0.03 0.12 0.42 0.52 0.50 0.43 0.34 0.28 0.24 0.22 0.18 0.15 0.14 0.13 0.16 0.15 0.17 0.21 0.19 0.14 0.16 0.17 0.15 0.16 0.15 0.16 0.16 0.16 0.11 0.10 0.09 0.07 0.06 0.06 0.05 0.03
0.04 0.00 0.03 0.05 0.11 0.12 0.09 0.04 0.07 0.08 0.08 0.05 0.05 0.08 0.08 0.08 0.07 0.08 0.08 0.19 0.30 0.24 0.23 0.28 0.29 0.27 0.28 0.27 0.28 0.26 0.21 0.16 0.14 0.15 0.16 0.16 0.20 0.21 0.22 0.25 0.20 0.20 0.18 0.18 0.16 0.14 0.11 0.08 0.07 0.05 0.03 0.03 0.01 0.01
0.04 0.02 0.09 0.06 0.08 0.05 0.04 0.01 0.02 0.03 0.06 0.06 0.08 0.11 0.14 0.24 0.20 0.13 0.14 0.11 0.09 0.11 0.14 0.16 0.16 0.16 0.18 0.21 0.23 0.23 0.22 0.22 0.22 0.20 0.20 0.20 0.20 0.20 0.19 0.21 0.17 0.13 0.14 0.16 0.13 0.12 0.10 0.07 0.04 0.03 0.02 0.02 0.02 0.02
0.00 0.01 0.01 0.01 0.03 0.01 0.00 0.00 0.00 0.03 0.04 0.03 0.06 0.05 0.07 0.08 0.05 0.06 0.12 0.09 0.08 0.08 0.07 0.08 0.07 0.09 0.15 0.19 0.22 0.22 0.24 0.22 0.21 0.19 0.22 0.20 0.16 0.18 0.16 0.15 0.14 0.12 0.10 0.09 0.06 0.06 0.05 0.04 0.03 0.02 0.01 0.01 0.01 0.01
0.00 0.00 0.00 0.00 0.00 0.00 0.00 0.00 0.00 0.01 0.01 0.01 0.01 0.01 0.04 0.02 0.05 0.07 0.08 0.08 0.07 0.08 0.10 0.08 0.06 0.07 0.13 0.16 0.22 0.23 0.20 0.16 0.17 0.17 0.18 0.17 0.17 0.18 0.14 0.12 0.11 0.09 0.09 0.07 0.06 0.05 0.05 0.04 0.03 0.02 0.01 0.01 0.01 0.01
0.00 0.00 0.00 0.00 0.00 0.00 0.00 0.00 0.02 0.03 0.01 0.01 0.02 0.01 0.02 0.05 0.05 0.08 0.07 0.09 0.10 0.08 0.07 0.08 0.09 0.08 0.10 0.09 0.11 0.12 0.12 0.10 0.12 0.13 0.12 0.13 0.13 0.15 0.12 0.08 0.07 0.08 0.08 0.08 0.05 0.04 0.04 0.03 0.02 0.02 0.02 0.02 0.01 0.01
0.00 0.00 0.00 0.00 0.00 0.00 0.00 0.00 0.00 0.01 0.02 0.04 0.05 0.03 0.04 0.06 0.09 0.08 0.07 0.08 0.08 0.09 0.07 0.06 0.06 0.06 0.07 0.08 0.07 0.08 0.08 0.07 0.08 0.10 0.11 0.11 0.12 0.13 0.13 0.13 0.08 0.11 0.08 0.07 0.06 0.06 0.06 0.05 0.04 0.04 0.04 0.04 0.03 0.02
0.00 0.00 0.00 0.00 0.00 0.00 0.01 0.01 0.01 0.03 0.05 0.05 0.06 0.07 0.07 0.09 0.11 0.08 0.07 0.08 0.06 0.05 0.04 0.04 0.07 0.08 0.07 0.08 0.09 0.08 0.10 0.09 0.08 0.08 0.07 0.08 0.10 0.10 0.10 0.09 0.07 0.06 0.06 0.06 0.06 0.05 0.04 0.04 0.04 0.03 0.02 0.02 0.02 0.01
0.00 0.00 0.00 0.00 0.00 0.00 0.02 0.06 0.07 0.07 0.05 0.03 0.03 0.04 0.07 0.06 0.07 0.05 0.03 0.03 0.03 0.04 0.04 0.04 0.08 0.05 0.07 0.11 0.10 0.06 0.08 0.09 0.10 0.13 0.15 0.16 0.10 0.10 0.09 0.07 0.06 0.06 0.05 0.05 0.05 0.05 0.03 0.02 0.02 0.02 0.01 0.02 0.02 0.01
0.00 0.00 0.00 0.00 0.00 0.00 0.02 0.02 0.04 0.03 0.01 0.01 0.01 0.01 0.01 0.04 0.04 0.03 0.03 0.03 0.04 0.05 0.07 0.06 0.07 0.06 0.06 0.05 0.12 0.08 0.06 0.07 0.08 0.10 0.13 0.15 0.11 0.08 0.06 0.05 0.04 0.04 0.04 0.03 0.03 0.04 0.03 0.02 0.01 0.01 0.00 0.01 0.00 0.00
0.00 0.00 0.00 0.01 0.00 0.03 0.02 0.00 0.00 0.01 0.03 0.03 0.03 0.03 0.03 0.05 0.04 0.02 0.03 0.04 0.05 0.06 0.05 0.06 0.08 0.08 0.08 0.08 0.07 0.09 0.11 0.06 0.06 0.08 0.11 0.11 0.09 0.06 0.04 0.04 0.05 0.03 0.02 0.02 0.01 0.01 0.01 0.01 0.01 0.01 0.00 0.00 0.00 0.00
0.00 0.00 0.00 0.00 0.00 0.01 0.00 0.00 0.01 0.03 0.05 0.05 0.05 0.03 0.03 0.03 0.04 0.04 0.03 0.04 0.05 0.06 0.07 0.06 0.07 0.09 0.08 0.08 0.08 0.07 0.05 0.05 0.04 0.05 0.06 0.08 0.07 0.06 0.04 0.03 0.03 0.03 0.02 0.02 0.01 0.01 0.01 0.00 0.00 0.00 0.00 0.00 0.00 0.00
0.00 0.00 0.00 0.00 0.00 0.00 0.01 0.00 0.00 0.05 0.06 0.05 0.04 0.04 0.03 0.02 0.02 0.03 0.02 0.03 0.04 0.06 0.06 0.06 0.07 0.08 0.06 0.04 0.04 0.04 0.04 0.04 0.04 0.04 0.04 0.04 0.04 0.04 0.03 0.03 0.02 0.02 0.02 0.02 0.02 0.01 0.00 0.00 0.00 0.00 0.00 0.00 0.00 0.00

GFSWCAN_prec_precacc24_192.txt.gz
Total_Precipitation_Accumulation
0.70 0.58 0.46 0.36 0.27 0.19 0.11 0.05 0.02 0.01 0.01 0.01 0.01 0.00 0.00 0.01 0.02 0.04 0.05 0.04 0.20 0.31 0.08 0.03 0.03 0.03 0.06 0.09 0.13 0.14 0.14 0.13 0.22 0.38 0.50 0.34 0.22 0.12 0.08 0.03 0.05 0.10 0.17 0.19 0.26 0.32 0.18 0.07 0.08 0.12 0.17 0.16 0.09 0.04
0.67 0.58 0.41 0.31 0.22 0.13 0.07 0.03 0.02 0.01 0.01 0.01 0.01 0.00 0.01 0.01 0.02 0.06 0.04 0.02 0.08 0.29 0.14 0.01 0.00 0.00 0.01 0.03 0.09 0.09 0.14 0.17 0.33 0.39 0.39 0.41 0.34 0.23 0.19 0.14 0.11 0.15 0.23 0.34 0.33 0.25 0.16 0.13 0.15 0.10 0.03 0.01 0.01 0.01
0.62 0.49 0.33 0.20 0.13 0.08 0.05 0.04 0.02 0.01 0.02 0.01 0.01 0.01 0.01 0.01 0.03 0.04 0.03 0.04 0.14 0.25 0.16 0.05 0.00 0.00 0.00 0.01 0.04 0.11 0.08 0.12 0.24 0.35 0.40 0.41 0.25 0.11 0.14 0.14 0.16 0.13 0.19 0.45 0.45 0.23 0.08 0.02 0.02 0.04 0.05 0.02 0.01 0.01
0.35 0.19 0.17 0.19 0.15 0.10 0.07 0.05 0.04 0.02 0.01 0.01 0.02 0.01 0.02 0.04 0.04 0.06 0.04 0.07 0.14 0.19 0.13 0.02 0.00 0.00 0.00 0.00 0.01 0.02 0.05 0.12 0.20 0.31 0.48 0.48 0.30 0.12 0.09 0.11 0.11 0.11 0.13 0.17 0.19 0.06 0.02 0.00 0.00 0.01 0.03 0.04 0.03 0.01
0.20 0.12 0.08 0.12 0.17 0.20 0.15 0.11 0.06 0.05 0.02 0.01 0.01 0.02 0.03 0.04 0.07 0.09 0.08 0.14 0.23 0.26 0.19 0.04 0.00 0.00 0.00 0.00 0.00 0.02 0.06 0.12 0.22 0.32 0.36 0.22 0.08 0.09 0.06 0.05 0.03 0.01 0.02 0.06 0.04 0.01 0.06 0.01 0.00 0.01 0.01 0.00 0.00 0.00
0.12 0.14 0.08 0.07 0.08 0.15 0.22 0.23 0.16 0.07 0.04 0.02 0.03 0.04 0.04 0.06 0.12 0.11 0.14 0.16 0.30 0.53 0.49 0.14 0.00 0.00 0.00 0.00 0.00 0.00 0.01 0.07 0.22 0.32 0.26 0.19 0.10 0.18 0.18 0.06 0.01 0.00 0.01 0.01 0.01 0.00 0.00 0.00 0.01 0.00 0.00 0.00 0.00 0.00
0.07 0.12 0.11 0.05 0.05 0.07 0.11 0.14 0.21 0.23 0.11 0.04 0.04 0.06 0.06 0.09 0.09 0.10 0.16 0.15 0.12 0.36 0.50 0.22 0.02 0.00 0.00 0.00 0.01 0.01 0.04 0.11 0.14 0.19 0.16 0.07 0.06 0.19 0.12 0.03 0.00 0.00 0.00 0.00 0.00 0.00 0.00 0.00 0.00 0.00 0.00 0.00 0.00 0.00
0.06 0.13 0.17 0.14 0.06 0.08 0.07 0.08 0.10 0.18 0.21 0.08 0.12 0.11 0.12 0.18 0.27 0.17 0.12 0.16 0.24 0.36 0.27 0.16 0.03 0.00 0.00 0.02 0.09 0.12 0.15 0.20 0.23 0.17 0.10 0.06 0.08 0.18 0.11 0.00 0.00 0.00 0.00 0.00 0.00 0.01 0.01 0.01 0.00 0.00 0.00 0.00 0.00 0.00
0.07 0.11 0.16 0.18 0.17 0.13 0.09 0.09 0.06 0.08 0.13 0.16 0.21 0.24 0.32 0.41 0.31 0.20 0.10 0.22 0.54 0.95 0.62 0.20 0.03 0.01 0.07 0.14 0.20 0.25 0.36 0.43 0.27 0.16 0.07 0.13 0.14 0.15 0.02 0.00 0.00 0.00 0.00 0.01 0.03 0.03 0.03 0.02 0.00 0.00 0.00 0.00 0.00 0.01
0.07 0.08 0.13 0.17 0.18 0.15 0.08 0.08 0.08 0.15 0.21 0.28 0.35 0.60 0.57 0.25 0.20 0.30 0.42 0.52 0.51 0.42 0.31 0.16 0.06 0.05 0.08 0.14 0.22 0.31 0.43 0.37 0.31 0.11 0.09 0.23 0.06 0.00 0.00 0.00 0.00 0.00 0.00 0.00 0.00 0.00 0.01 0.01 0.01 0.01 0.01 0.01 0.02 0.01
0.06 0.04 0.07 0.13 0.18 0.16 0.11 0.09 0.28 0.40 0.34 0.47 0.45 0.34 0.32 0.26 0.39 0.40 0.51 0.52 0.30 0.21 0.08 0.01 0.00 0.02 0.04 0.15 0.23 0.25 0.26 0.29 0.32 0.18 0.22 0.23 0.12 0.06 0.12 0.12 0.08 0.08 0.05 0.03 0.02 0.00 0.00 0.00 0.00 0.00 0.01 0.01 0.01 0.00
0.04 0.04 0.05 0.08 0.15 0.23 0.19 0.24 0.51 0.28 0.20 0.16 0.25 0.58 0.62 0.60 0.45 0.30 0.24 0.21 0.25 0.09 0.01 0.03 0.02 0.02 0.02 0.03 0.14 0.34 0.31 0.26 0.19 0.37 0.60 0.25 0.14 0.19 0.14 0.11 0.04 0.01 0.00 0.00 0.00 0.00 0.00 0.00 0.00 0.00 0.00 0.00 0.00 0.01
0.12 0.11 0.10 0.11 0.14 0.19 0.24 0.29 0.23 0.19 0.16 0.19 0.33 0.76 0.71 0.32 0.31 0.16 0.08 0.07 0.06 0.07 0.08 0.09 0.17 0.18 0.13 0.15 0.17 0.17 0.26 0.25 0.26 0.39 0.20 0.07 0.14 0.07 0.03 0.03 0.05 0.08 0.13 0.15 0.14 0.10 0.05 0.03 0.03 0.03 0.03 0.04 0.05 0.05
0.07 0.06 0.08 0.10 0.15 0.21 0.21 0.16 0.17 0.22 0.33 0.38 0.35 0.33 0.31 0.22 0.10 0.06 0.05 0.07 0.10 0.09 0.13 0.22 0.33 0.36 0.31 0.42 0.25 0.16 0.10 0.10 0.13 0.14 0.09 0.13 0.12 0.06 0.06 0.05 0.07 0.13 0.16 0.14 0.10 0.08 0.08 0.07 0.04 0.03 0.04 0.06 0.09 0.12
0.05 0.07 0.11 0.15 0.15 0.16 0.16 0.14 0.12 0.17 0.27 0.41 0.45 0.23 0.07 0.05 0.08 0.15 0.12 0.12 0.13 0.31 0.54 0.56 0.51 0.50 0.47 0.39 0.18 0.11 0.13 0.07 0.03 0.05 0.20 0.25 0.12 0.06 0.03 0.02 0.05 0.09 0.07 0.04 0.02 0.03 0.02 0.00 0.01 0.01 0.02 0.03 0.04 0.04
0.06 0.12 0.14 0.10 0.10 0.11 0.12 0.12 0.17 0.29 0.27 0.21 0.25 0.21 0.14 0.13 0.13 0.17 0.20 0.15 0.10 0.32 0.35 0.50 0.62 0.66 0.54 0.35 0.36 0.10 0.05 0.03 0.15 0.25 0.27 0.16 0.07 0.01 0.01 0.02 0.04 0.04 0.02 0.02 0.02 0.01 0.00 0.00 0.01 0.01 0.01 0.01 0.01 0.00
0.07 0.10 0.11 0.11 0.11 0.13 0.14 0.21 0.25 0.23 0.16 0.13 0.05 0.08 0.11 0.13 0.11 0.09 0.08 0.07 0.13 0.16 0.11 0.31 0.46 0.39 0.34 0.32 0.22 0.19 0.20 0.25 0.29 0.20 0.05 0.01 0.00 0.01 0.03 0.06 0.06 0.03 0.03 0.03 0.03 0.02 0.03 0.03 0.03 0.03 0.04 0.04 0.02 0.01
0.08 0.05 0.08 0.06 0.12 0.25 0.37 0.27 0.27 0.20 0.08 0.02 0.03 0.05 0.07 0.05 0.03 0.01 0.02 0.05 0.15 0.20 0.21 0.34 0.30 0.26 0.22 0.21 0.26 0.39 0.31 0.18 0.08 0.02 0.02 0.02 0.01 0.03 0.05 0.06 0.08 0.09 0.10 0.10 0.09 0.07 0.08 0.08 0.08 0.08 0.07 0.07 0.05 0.04
0.12 0.17 0.21 0.15 0.19 0.24 0.35 0.32 0.22 0.20 0.10 0.07 0.04 0.03 0.02 0.01 0.00 0.02 0.08 0.14 0.23 0.36 0.53 0.44 0.30 0.14 0.12 0.11 0.07 0.02 0.02 0.02 0.05 0.08 0.08 0.07 0.06 0.06 0.07 0.09 0.12 0.15 0.15 0.15 0.13 0.12 0.13 0.13 0.12 0.11 0.11 0.10 0.09 0.10
0.07 0.21 0.33 0.30 0.18 0.24 0.26 0.21 0.16 0.12 0.05 0.03 0.02 0.01 0.02 0.00 0.00 0.03 0.10 0.23 0.39 0.57 0.58 0.44 0.24 0.14 0.06 0.06 0.06 0.04 0.04 0.05 0.07 0.10 0.13 0.16 0.13 0.10 0.12 0.12 0.15 0.15 0.15 0.16 0.16 0.15 0.12 0.11 0.13 0.13 0.12 0.11 0.09 0.10
0.03 0.04 0.12 0.40 0.28 0.22 0.21 0.23 0.19 0.10 0.08 0.04 0.04 0.04 0.03 0.02 0.01 0.02 0.03 0.12 0.41 0.51 0.51 0.45 0.35 0.29 0.26 0.26 0.19 0.16 0.14 0.13 0.15 0.17 0.20 0.22 0.18 0.14 0.16 0.17 0.16 0.16 0.16 0.17 0.17 0.17 0.14 0.14 0.15 0.14 0.12 0.13 0.10 0.07
0.05 0.01 0.04 0.09 0.13 0.12 0.09 0.05 0.07 0.08 0.09 0.05 0.05 0.08 0.08 0.08 0.08 0.09 0.12 0.25 0.36 0.25 0.24 0.29 0.30 0.28 0.29 0.29 0.28 0.26 0.21 0.16 0.15 0.15 0.16 0.17 0.20 0.21 0.23 0.24 0.20 0.20 0.19 0.19 0.16 0.16 0.14 0.12 0.11 0.10 0.08 0.08 0.06 0.06
0.15 0.14 0.12 0.07 0.09 0.08 0.05 0.02 0.04 0.04 0.06 0.06 0.08 0.11 0.14 0.24 0.21 0.14 0.15 0.11 0.10 0.10 0.14 0.16 0.16 0.16 0.18 0.25 0.25 0.23 0.22 0.22 0.23 0.21 0.20 0.21 0.20 0.21 0.21 0.24 0.20 0.15 0.15 0.17 0.14 0.12 0.11 0.09 0.08 0.08 0.07 0.06 0.06 0.05
0.02 0.03 0.01 0.02 0.06 0.06 0.01 0.00 0.00 0.03 0.04 0.03 0.05 0.05 0.07 0.08 0.05 0.06 0.13 0.10 0.09 0.07 0.07 0.07 0.07 0.08 0.14 0.19 0.22 0.22 0.24 0.22 0.21 0.20 0.22 0.20 0.16 0.19 0.19 0.20 0.19 0.18 0.15 0.12 0.10 0.10 0.09 0.08 0.08 0.08 0.07 0.06 0.05 0.04
0.00 0.00 0.00 0.00 0.00 0.00 0.00 0.00 0.00 0.01 0.01 0.01 0.01 0.01 0.04 0.02 0.05 0.07 0.08 0.10 0.08 0.07 0.08 0.07 0.05 0.06 0.13 0.16 0.22 0.23 0.20 0.16 0.17 0.18 0.18 0.17 0.17 0.17 0.15 0.15 0.15 0.14 0.14 0.11 0.09 0.08 0.09 0.07 0.07 0.06 0.06 0.04 0.04 0.04
0.00 0.00 0.00 0.00 0.00 0.00 0.00 0.00 0.01 0.03 0.01 0.01 0.02 0.01 0.02 0.05 0.05 0.07 0.06 0.07 0.09 0.07 0.06 0.07 0.07 0.07 0.08 0.09 0.11 0.12 0.12 0.10 0.12 0.14 0.13 0.13 0.14 0.16 0.13 0.10 0.10 0.12 0.11 0.11 0.06 0.06 0.07 0.07 0.06 0.05 0.05 0.05 0.05 0.04
0.00 0.00 0.00 0.00 0.00 0.00 0.00 0.00 0.00 0.01 0.02 0.04 0.04 0.03 0.04 0.06 0.08 0.08 0.06 0.05 0.07 0.07 0.06 0.06 0.06 0.06 0.07 0.08 0.07 0.08 0.09 0.08 0.08 0.12 0.13 0.12 0.13 0.15 0.15 0.15 0.11 0.14 0.11 0.10 0.08 0.08 0.07 0.08 0.07 0.07 0.06 0.06 0.06 0.04
0.00 0.00 0.00 0.00 0.00 0.00 0.01 0.01 0.01 0.03 0.04 0.04 0.05 0.05 0.06 0.08 0.11 0.07 0.06 0.06 0.06 0.05 0.04 0.04 0.06 0.08 0.07 0.08 0.10 0.08 0.10 0.09 0.07 0.10 0.10 0.09 0.11 0.12 0.13 0.11 0.10 0.08 0.08 0.09 0.08 0.08 0.06 0.06 0.06 0.05 0.04 0.04 0.04 0.03
0.00 0.00 0.00 0.00 0.00 0.00 0.02 0.04 0.05 0.06 0.03 0.02 0.02 0.03 0.06 0.05 0.06 0.04 0.03 0.03 0.03 0.04 0.04 0.04 0.08 0.05 0.07 0.11 0.12 0.05 0.08 0.09 0.08 0.12 0.15 0.17 0.11 0.12 0.10 0.08 0.08 0.07 0.07 0.07 0.08 0.07 0.05 0.04 0.04 0.03 0.03 0.03 0.03 0.02
0.00 0.00 0.00 0.00 0.00 0.00 0.02 0.01 0.03 0.02 0.01 0.01 0.01 0.01 0.01 0.03 0.03 0.03 0.02 0.02 0.03 0.04 0.05 0.06 0.06 0.04 0.05 0.05 0.12 0.08 0.05 0.05 0.06 0.09 0.13 0.15 0.11 0.09 0.08 0.05 0.04 0.05 0.04 0.04 0.04 0.06 0.05 0.03 0.03 0.02 0.01 0.01 0.01 0.00
0.00 0.00 0.00 0.00 0.00 0.01 0.01 0.00 0.00 0.01 0.03 0.03 0.03 0.03 0.03 0.05 0.03 0.02 0.01 0.02 0.03 0.04 0.04 0.05 0.07 0.07 0.07 0.07 0.06 0.08 0.09 0.05 0.05 0.07 0.11 0.12 0.09 0.06 0.05 0.05 0.05 0.03 0.02 0.02 0.02 0.02 0.02 0.02 0.02 0.01 0.01 0.00 0.00 0.00
0.00 0.00 0.00 0.00 0.00 0.01 0.00 0.00 0.00 0.02 0.04 0.05 0.05 0.03 0.03 0.02 0.03 0.04 0.02 0.02 0.03 0.04 0.05 0.04 0.05 0.07 0.06 0.07 0.07 0.06 0.05 0.05 0.04 0.05 0.07 0.08 0.07 0.06 0.04 0.04 0.04 0.04 0.03 0.02 0.02 0.02 0.02 0.01 0.01 0.00 0.00 0.00 0.00 0.00
0.00 0.00 0.00 0.00 0.00 0.00 0.01 0.00 0.00 0.02 0.03 0.03 0.03 0.03 0.02 0.01 0.01 0.03 0.01 0.02 0.02 0.03 0.03 0.04 0.05 0.05 0.04 0.03 0.03 0.04 0.04 0.04 0.04 0.04 0.04 0.04 0.04 0.04 0.03 0.03 0.03 0.02 0.02 0.02 0.03 0.02 0.01 0.00 0.00 0.00 0.00 0.00 0.00 0.00